[[{"header":{"parameterUnit":"m.s-1","parameterCategory":1,"la1":30.6,"la2":28.766,"lo1":-90.7593,"lo2":-88.6598,"dy":0.0162,"dx":0.0183,"nx":116,"ny":114,"refTime":"2023-04-06T12:00:00:Z","depth":0,"parameterNumber":2,"parameterNumberName":"U-component_of_WINDS"},"data":[0.0,0.0,0.0,0.0,0.0,0.0,0.0,0.0,0.0,0.0,0.0,0.0,0.0,0.0,0.0,0.0,0.0,0.0,0.0,0.0,0.0,0.0,0.0,0.0,0.0,0.0,0.0,0.0,0.0,0.0,0.0,0.0,0.0,0.0,0.0,0.0,0.0,0.0,0.0,0.0,0.0,0.0,0.0,0.0,0.0,0.0,0.0,0.0,0.0,0.0,0.0,0.0,0.0,0.0,0.0,0.0,0.0,0.0,0.0,0.0,0.0,0.0,0.0,0.0,0.0,0.0,0.0,0.0,0.0,0.0,0.0,0.0,0.0,0.0,0.0,0.0,0.0,0.0,0.0,0.0,0.0,0.0,0.0,0.0,0.0,0.0,0.0,0.0,0.0,0.0,0.0,0.0,0.0,0.0,0.0,0.0,0.0,0.0,0.0,0.0,0.0,0.0,0.0,0.0,0.0,0.0,0.0,0.0,0.0,0.0,0.0,0.0,0.0,0.0,0.0,0.0,0.0,0.0,0.0,0.0,0.0,0.0,0.0,0.0,0.0,0.0,0.0,0.0,0.0,0.0,0.0,0.0,0.0,0.0,0.0,0.0,0.0,0.0,0.0,0.0,0.0,0.0,0.0,0.0,0.0,0.0,0.0,0.0,0.0,0.0,0.0,0.0,0.0,0.0,0.0,0.0,0.0,0.0,0.0,0.0,0.0,0.0,0.0,0.0,0.0,0.0,0.0,0.0,0.0,0.0,0.0,0.0,0.0,0.0,0.0,0.0,0.0,0.0,0.0,0.0,0.0,0.0,0.0,0.0,0.0,0.0,0.0,0.0,0.0,0.0,0.0,0.0,0.0,0.0,0.0,0.0,0.0,0.0,0.0,0.0,0.0,0.0,0.0,0.0,0.0,0.0,0.0,0.0,0.0,0.0,0.0,0.0,0.0,0.0,0.0,0.0,0.0,0.0,0.0,0.0,0.0,0.0,0.0,0.0,0.0,0.0,0.0,0.0,0.0,0.0,0.0,0.0,0.0,0.0,0.0,0.0,0.0,0.0,0.0,0.0,0.0,0.0,0.0,0.0,0.0,0.0,0.0,0.0,0.0,0.0,0.0,0.0,0.0,0.0,0.0,0.0,0.0,0.0,0.0,0.0,0.0,0.0,0.0,0.0,0.0,0.0,0.0,0.0,0.0,0.0,0.0,0.0,0.0,0.0,0.0,0.0,0.0,0.0,0.0,0.0,0.0,0.0,0.0,0.0,0.0,0.0,0.0,0.0,0.0,0.0,0.0,0.0,0.0,0.0,0.0,0.0,0.0,0.0,0.0,0.0,0.0,0.0,0.0,0.0,0.0,0.0,0.0,0.0,0.0,0.0,0.0,0.0,0.0,0.0,0.0,0.0,0.0,0.0,0.0,0.0,0.0,0.0,0.0,0.0,0.0,0.0,0.0,0.0,0.0,0.0,0.0,0.0,0.0,0.0,0.0,0.0,0.0,0.0,0.0,0.0,0.0,0.0,0.0,0.0,0.0,0.0,0.0,0.0,0.0,0.0,0.0,0.0,0.0,0.0,0.0,0.0,0.0,0.0,0.0,0.0,0.0,0.0,0.0,0.0,0.0,0.0,0.0,0.0,0.0,0.0,0.0,0.0,0.0,0.0,0.0,0.0,0.0,0.0,0.0,0.0,0.0,0.0,0.0,0.0,0.0,0.0,0.0,0.0,0.0,0.0,0.0,0.0,0.0,0.0,0.0,0.0,0.0,0.0,0.0,0.0,0.0,0.0,0.0,0.0,0.0,0.0,0.0,0.0,0.0,0.0,0.0,0.0,0.0,0.0,0.0,0.0,0.0,0.0,0.0,0.0,0.0,0.0,0.0,0.0,0.0,0.0,0.0,0.0,0.0,0.0,0.0,0.0,0.0,0.0,0.0,0.0,0.0,0.0,0.0,0.0,0.0,0.0,0.0,0.0,0.0,0.0,0.0,0.0,0.0,0.0,0.0,0.0,0.0,0.0,0.0,0.0,0.0,0.0,0.0,0.0,0.0,0.0,0.0,0.0,0.0,0.0,0.0,0.0,0.0,0.0,0.0,0.0,0.0,0.0,0.0,0.0,0.0,0.0,0.0,0.0,0.0,0.0,0.0,0.0,0.0,0.0,0.0,0.0,0.0,0.0,0.0,0.0,0.0,0.0,0.0,0.0,0.0,0.0,0.0,0.0,0.0,0.0,0.0,0.0,0.0,0.0,0.0,0.0,0.0,0.0,0.0,0.0,0.0,0.0,0.0,0.0,0.0,0.0,0.0,0.0,0.0,0.0,0.0,0.0,0.0,0.0,0.0,0.0,0.0,0.0,0.0,0.0,0.0,0.0,0.0,0.0,0.0,0.0,0.0,0.0,0.0,0.0,0.0,0.0,0.0,0.0,0.0,0.0,0.0,0.0,0.0,0.0,0.0,0.0,0.0,0.0,0.0,0.0,0.0,0.0,0.0,0.0,0.0,0.0,0.0,0.0,0.0,0.0,0.0,0.0,0.0,0.0,0.0,0.0,0.0,0.0,0.0,0.0,0.0,0.0,0.0,0.0,0.0,0.0,0.0,0.0,0.0,0.0,0.0,0.0,0.0,0.0,0.0,0.0,0.0,0.0,0.0,0.0,0.0,0.0,0.0,0.0,0.0,0.0,0.0,0.0,0.0,0.0,0.0,0.0,0.0,0.0,0.0,0.0,0.0,0.0,0.0,0.0,0.0,0.0,0.0,0.0,0.0,0.0,0.0,0.0,0.0,0.0,0.0,0.0,0.0,0.0,0.0,0.0,0.0,0.0,0.0,0.0,0.0,0.0,0.0,0.0,0.0,0.0,0.0,0.0,0.0,0.0,0.0,0.0,0.0,0.0,0.0,0.0,0.0,0.0,0.0,0.0,0.0,0.0,0.0,0.0,0.0,0.0,0.0,0.0,0.0,0.0,0.0,0.0,0.0,0.0,0.0,0.0,0.0,0.0,0.0,0.0,0.0,0.0,0.0,0.0,0.0,0.0,0.0,0.0,0.0,0.0,0.0,0.0,0.0,0.0,0.0,0.0,0.0,0.0,0.0,0.0,0.0,0.0,0.0,0.0,0.0,0.0,0.0,0.0,0.0,0.0,0.0,0.0,0.0,0.0,0.0,0.0,0.0,0.0,0.0,0.0,0.0,0.0,0.0,0.0,0.0,0.0,0.0,0.0,0.0,0.0,0.0,0.0,0.0,0.0,0.0,0.0,0.0,0.0,0.0,0.0,0.0,0.0,0.0,0.0,0.0,0.0,0.0,0.0,0.0,0.0,0.0,0.0,0.0,0.0,0.0,0.0,0.0,0.0,0.0,0.0,0.0,0.0,0.0,0.0,0.0,0.0,0.0,0.0,0.0,0.0,0.0,0.0,0.0,0.0,0.0,0.0,0.0,0.0,0.0,0.0,0.0,0.0,0.0,0.0,0.0,0.0,0.0,0.0,0.0,0.0,0.0,0.0,0.0,0.0,0.0,0.0,0.0,0.0,0.0,0.0,0.0,0.0,0.0,0.0,0.0,0.0,0.0,0.0,0.0,0.0,0.0,0.0,0.0,0.0,0.0,0.0,0.0,0.0,0.0,0.0,0.0,0.0,0.0,0.0,0.0,0.0,0.0,0.0,0.0,0.0,0.0,0.0,0.0,0.0,0.0,0.0,0.0,0.0,0.0,0.0,0.0,0.0,0.0,0.0,0.0,0.0,0.0,0.0,0.0,0.0,0.0,0.0,0.0,0.0,0.0,0.0,0.0,0.0,0.0,0.0,0.0,0.0,0.0,0.0,0.0,0.0,0.0,0.0,0.0,0.0,0.0,0.0,0.0,0.0,0.0,0.0,0.0,0.0,0.0,0.0,0.0,0.0,0.0,0.0,0.0,0.0,0.0,0.0,0.0,0.0,0.0,0.0,0.0,0.0,0.0,0.0,0.0,0.0,0.0,0.0,0.0,0.0,0.0,0.0,0.0,0.0,0.0,0.0,0.0,0.0,0.0,0.0,0.0,0.0,0.0,0.0,0.0,0.0,0.0,0.0,0.0,0.0,0.0,0.0,0.0,0.0,0.0,0.0,0.0,0.0,0.0,0.0,0.0,0.0,0.0,0.0,0.0,0.0,0.0,0.0,0.0,0.0,0.0,0.0,0.0,0.0,0.0,0.0,0.0,0.0,0.0,0.0,0.0,0.0,0.0,0.0,0.0,0.0,0.0,0.0,0.0,0.0,0.0,0.0,0.0,0.0,0.0,0.0,0.0,0.0,0.0,0.0,0.0,0.0,0.0,0.0,0.0,0.0,0.0,0.0,0.0,0.0,0.0,0.0,0.0,0.0,0.0,0.0,0.0,0.0,0.0,0.0,0.0,0.0,0.0,0.0,0.0,0.0,0.0,0.0,0.0,0.0,0.0,0.0,0.0,0.0,0.0,0.0,0.0,0.0,0.0,0.0,0.0,0.0,0.0,0.0,0.0,0.0,0.0,0.0,0.0,0.0,0.0,0.0,0.0,0.0,0.0,0.0,0.0,0.0,0.0,0.0,0.0,0.0,0.0,0.0,0.0,0.0,0.0,0.0,0.0,0.0,0.0,0.0,0.0,0.0,0.0,0.0,0.0,0.0,0.0,0.0,0.0,0.0,0.0,0.0,0.0,0.0,0.0,0.0,0.0,0.0,0.0,0.0,0.0,0.0,0.0,0.0,0.0,0.0,0.0,0.0,0.0,0.0,0.0,0.0,0.0,0.0,0.0,0.0,0.0,0.0,0.0,0.0,0.0,0.0,0.0,0.0,0.0,0.0,0.0,0.0,0.0,0.0,0.0,0.0,0.0,0.0,0.0,0.0,0.0,0.0,0.0,0.0,0.0,0.0,0.0,0.0,0.0,0.0,0.0,0.0,0.0,0.0,0.0,0.0,0.0,0.0,0.0,0.0,0.0,0.0,0.0,0.0,0.0,0.0,0.0,0.0,0.0,0.0,0.0,0.0,0.0,0.0,0.0,0.0,0.0,0.0,0.0,0.0,0.0,0.0,0.0,0.0,0.0,0.0,0.0,0.0,0.0,0.0,0.0,0.0,0.0,0.0,0.0,0.0,0.0,0.0,0.0,0.0,0.0,0.0,0.0,0.0,0.0,0.0,0.0,0.0,0.0,0.0,0.0,0.0,0.0,0.0,0.0,0.0,0.0,0.0,0.0,0.0,0.0,0.0,0.0,0.0,0.0,0.0,0.0,0.0,0.0,0.0,0.0,0.0,0.0,0.0,0.0,0.0,0.0,0.0,0.0,0.0,0.0,0.0,0.0,0.0,0.0,0.0,0.0,0.0,0.0,0.0,0.0,0.0,0.0,0.0,0.0,0.0,0.0,0.0,0.0,0.0,0.0,0.0,0.0,0.0,0.0,0.0,0.0,0.0,0.0,0.0,0.0,0.0,0.0,0.0,0.0,0.0,0.0,0.0,0.0,0.0,0.0,0.0,0.0,0.0,0.0,0.0,0.0,0.0,0.0,0.0,0.0,0.0,0.0,0.0,0.0,0.0,0.0,0.0,0.0,0.0,0.0,0.0,0.0,0.0,0.0,0.0,0.0,0.0,0.0,0.0,0.0,0.0,0.0,0.0,0.0,0.0,0.0,0.0,0.0,0.0,0.0,0.0,0.0,0.0,0.0,0.0,0.0,0.0,0.0,0.0,0.0,0.0,0.0,0.0,0.0,0.0,0.0,0.0,0.0,0.0,0.0,0.0,0.0,0.0,0.0,0.0,0.0,0.0,0.0,0.0,0.0,0.0,0.0,0.0,0.0,0.0,0.0,0.0,0.0,0.0,0.0,0.0,0.0,0.0,0.0,0.0,0.0,0.0,0.0,0.0,0.0,0.0,0.0,0.0,0.0,0.0,0.0,0.0,0.0,0.0,0.0,0.0,0.0,0.0,0.0,0.0,0.0,0.0,0.0,0.0,0.0,0.0,0.0,0.0,0.0,0.0,0.0,0.0,0.0,0.0,0.0,0.0,0.0,0.0,0.0,0.0,0.0,0.0,0.0,0.0,0.0,0.0,0.0,0.0,0.0,0.0,0.0,0.0,0.0,0.0,0.0,0.0,2.1355,0.0,0.0,0.0,0.0,0.0,0.0,0.0,0.0,0.0,0.0,0.0,0.0,0.0,0.0,0.0,0.0,0.0,0.0,0.0,0.0,0.0,0.0,0.0,0.0,0.0,0.0,0.0,0.0,0.0,0.0,0.0,0.0,0.0,0.0,0.0,0.0,0.0,0.0,0.0,1.8384,1.8881,1.9116,1.9135,1.8934,1.8536,0.0,0.0,0.0,0.0,0.0,0.0,0.0,0.0,0.0,0.0,0.0,0.0,0.0,0.0,0.0,0.0,0.0,0.0,0.0,0.0,0.0,0.0,0.0,0.0,0.0,0.0,0.0,0.0,0.0,0.0,0.0,0.0,0.0,0.0,0.0,0.0,0.0,0.0,0.0,0.0,0.0,0.0,0.0,0.0,0.0,0.0,0.0,0.0,0.0,0.0,0.0,0.0,0.0,0.0,0.0,0.0,0.0,0.0,0.0,0.0,0.0,0.0,0.0,0.0,0.0,0.0,0.0,0.0,0.0,0.0,0.0,2.2104,0.0,0.0,0.0,0.0,0.0,0.0,0.0,0.0,0.0,0.0,0.0,0.0,0.0,0.0,0.0,0.0,0.0,0.0,0.0,0.0,0.0,0.0,0.0,1.8801,1.8686,1.8923,1.8647,1.8494,0.0,0.0,0.0,0.0,0.0,0.0,0.0,0.0,0.0,1.8306,1.9056,1.9813,2.0607,2.0578,1.995,1.886,1.8712,0.0,0.0,0.0,0.0,0.0,0.0,0.0,0.0,0.0,0.0,0.0,0.0,0.0,0.0,0.0,0.0,0.0,0.0,0.0,0.0,0.0,0.0,0.0,0.0,0.0,0.0,0.0,0.0,0.0,0.0,0.0,0.0,0.0,0.0,0.0,0.0,0.0,0.0,0.0,0.0,0.0,0.0,0.0,0.0,0.0,0.0,0.0,0.0,0.0,0.0,0.0,0.0,0.0,0.0,0.0,0.0,0.0,0.0,0.0,0.0,0.0,0.0,0.0,2.6002,2.6016,2.5866,2.6206,2.6098,2.562,2.3965,2.3332,2.3365,2.2622,0.0,0.0,0.0,0.0,0.0,0.0,0.0,0.0,0.0,0.0,0.0,0.0,0.0,0.0,0.0,0.0,0.0,0.0,0.0,0.0,0.0,1.9698,1.9604,1.9208,1.8861,1.8511,1.8213,0.0,0.0,0.0,0.0,0.0,0.0,1.7745,1.8124,1.9133,2.0167,2.0748,2.0954,2.1321,2.1237,2.0734,2.0492,1.9955,1.9264,0.0,0.0,0.0,0.0,0.0,0.0,0.0,0.0,0.0,0.0,0.0,0.0,0.0,0.0,0.0,0.0,0.0,0.0,0.0,0.0,0.0,0.0,0.0,0.0,0.0,0.0,0.0,0.0,0.0,0.0,0.0,0.0,0.0,0.0,0.0,0.0,0.0,0.0,0.0,0.0,0.0,2.0172,2.1006,0.0,0.0,0.0,0.0,0.0,0.0,0.0,0.0,0.0,0.0,0.0,0.0,0.0,2.6662,2.6919,2.7191,2.7466,2.7735,2.7437,2.726,2.7208,2.6718,2.651,2.6511,2.5864,0.0,2.435,2.4384,0.0,0.0,0.0,0.0,0.0,0.0,0.0,0.0,0.0,0.0,0.0,0.0,0.0,0.0,0.0,0.0,0.0,0.0,0.0,0.0,0.0,1.9951,1.996,1.9718,1.9622,1.9496,1.9188,1.8813,0.0,0.0,0.0,1.7886,1.816,1.8331,1.9048,2.027,2.0881,2.1408,2.1834,2.2037,2.2049,2.1879,2.1761,2.1097,2.0046,1.9925,0.0,0.0,0.0,0.0,0.0,0.0,0.0,0.0,0.0,0.0,0.0,0.0,0.0,0.0,0.0,0.0,0.0,0.0,0.0,0.0,0.0,0.0,0.0,0.0,0.0,0.0,0.0,0.0,0.0,0.0,0.0,0.0,0.0,0.0,0.0,0.0,0.0,0.0,0.0,2.0178,2.1024,2.1699,2.198,2.2433,0.0,0.0,0.0,0.0,0.0,0.0,0.0,0.0,0.0,2.7042,2.7896,2.8264,2.8151,2.8574,2.8739,2.8602,2.8424,2.8214,2.8015,2.7714,2.7611,2.763,2.7548,2.7168,2.6568,2.5828,2.5308,2.4881,0.0,0.0,0.0,0.0,2.3941,2.391,0.0,0.0,0.0,0.0,0.0,0.0,0.0,0.0,0.0,0.0,0.0,0.0,2.0093,2.0223,2.0354,2.0383,2.0318,2.0207,2.0013,1.9535,1.8965,0.0,1.8382,1.8431,1.8523,1.9297,2.0142,2.105,2.1598,2.213,2.2657,2.2767,2.2792,2.2827,2.2827,2.2117,2.0919,2.0847,2.0156,1.9054,0.0,0.0,0.0,0.0,0.0,0.0,0.0,0.0,0.0,0.0,0.0,0.0,0.0,0.0,0.0,0.0,0.0,0.0,0.0,0.0,0.0,0.0,0.0,0.0,0.0,0.0,0.0,0.0,0.0,0.0,0.0,0.0,0.0,0.0,0.0,0.0,0.0,2.115,2.1835,2.2355,2.2684,2.32,0.0,0.0,0.0,0.0,0.0,0.0,2.6709,2.7758,2.837,2.8345,2.914,2.9456,2.9243,2.9536,2.9625,2.9396,2.9277,2.907,2.8774,2.855,2.8494,2.8483,2.85,2.84,2.813,2.701,2.6435,2.6269,2.5599,2.5376,2.5397,2.5144,2.4883,2.4701,0.0,0.0,0.0,0.0,0.0,0.0,0.0,0.0,0.0,0.0,0.0,2.0942,2.0944,2.0939,2.1006,2.1135,2.0559,2.0151,2.0012,1.9438,1.9082,1.906,1.8632,1.8719,1.9433,2.0638,2.1255,2.1175,2.2462,2.3115,2.3086,2.3442,2.3635,2.3633,2.3633,2.3069,2.2117,2.185,2.135,2.06,1.9497,0.0,0.0,0.0,0.0,0.0,0.0,0.0,0.0,0.0,0.0,0.0,0.0,0.0,0.0,0.0,0.0,0.0,0.0,0.0,0.0,0.0,0.0,0.0,0.0,0.0,0.0,0.0,0.0,0.0,0.0,0.0,0.0,0.0,0.0,0.0,0.0,0.0,0.0,2.3195,2.4241,0.0,0.0,0.0,0.0,2.66,2.7275,2.7951,2.8445,2.8557,2.8816,2.9303,2.9374,2.9632,3.0126,2.9907,3.0064,3.0496,3.0079,2.9863,2.9806,2.9027,2.8668,2.8645,2.8198,2.804,2.8015,2.7777,2.7406,2.6913,2.6438,2.634,2.6528,2.6504,2.633,2.6106,0.0,0.0,0.0,0.0,0.0,0.0,0.0,0.0,1.9774,1.9859,2.0439,2.0864,2.0875,2.1496,2.1771,2.1428,2.1498,2.122,2.0455,1.9878,1.9227,1.8497,1.8659,1.9336,2.0559,2.0873,2.1471,2.2436,2.2781,2.3115,2.3494,2.3637,2.3698,2.372,2.372,2.3517,2.313,2.2452,2.1585,2.0552,1.986,1.9195,0.0,0.0,0.0,0.0,0.0,0.0,0.0,0.0,0.0,0.0,0.0,0.0,0.0,0.0,0.0,0.0,0.0,0.0,0.0,0.0,0.0,0.0,0.0,0.0,0.0,0.0,0.0,0.0,0.0,0.0,0.0,0.0,0.0,0.0,0.0,0.0,0.0,2.4384,2.4973,0.0,2.6737,2.7087,2.7481,2.7957,2.8363,2.8815,2.9328,2.9808,3.0317,3.0845,3.1197,3.141,3.1448,3.1344,3.1032,3.0606,3.0432,2.9996,2.937,2.9089,2.8965,2.8943,2.8776,2.88,2.8925,2.8549,2.8143,2.7809,2.7428,2.7105,2.6901,2.6526,2.5996,2.5426,0.0,0.0,0.0,0.0,0.0,0.0,0.0,0.0,1.9626,1.9912,2.0446,2.0913,2.1241,2.165,2.1863,2.1659,2.1778,2.1516,2.0742,2.0186,1.9542,1.8824,1.9305,2.0024,2.0944,2.1312,2.1919,2.2872,2.3003,2.3328,2.3777,2.3777,2.3758,2.3746,2.3746,2.3624,2.3305,2.2751,2.1985,2.1112,2.0614,1.9841,1.8845,0.0,0.0,0.0,0.0,0.0,0.0,0.0,0.0,0.0,0.0,0.0,0.0,0.0,0.0,0.0,0.0,0.0,0.0,0.0,0.0,0.0,0.0,0.0,0.0,0.0,0.0,0.0,0.0,0.0,0.0,0.0,0.0,0.0,0.0,0.0,2.4525,2.5196,2.5823,2.6621,2.7534,2.7833,2.83,2.9051,2.9378,2.9833,3.0431,3.0926,3.1355,3.1705,3.2054,3.2193,3.198,3.1874,3.1512,3.085,3.0503,3.0021,2.9382,2.9112,2.8989,2.8989,2.8989,2.9035,2.9095,2.8728,2.8442,2.8166,2.7967,2.7632,2.725,2.6881,2.6214,2.5464,0.0,0.0,0.0,0.0,0.0,0.0,0.0,1.9021,1.9683,1.9956,2.0463,2.1138,2.2061,2.1486,2.129,2.1921,2.1336,2.0899,2.0878,2.0416,2.0103,2.0114,2.0534,2.0722,2.0547,2.1999,2.269,2.2454,2.3285,2.3758,2.3903,2.3903,2.3874,2.3805,2.3795,2.3381,2.273,2.273,2.2586,2.2372,2.1668,2.0699,1.9508,0.0,0.0,0.0,0.0,0.0,0.0,0.0,0.0,0.0,0.0,0.0,0.0,0.0,0.0,0.0,0.0,0.0,0.0,0.0,0.0,0.0,0.0,0.0,0.0,0.0,0.0,0.0,0.0,0.0,0.0,0.0,0.0,0.0,2.3207,2.4419,2.5402,2.5624,2.6878,2.7734,2.7767,2.8355,2.906,2.9851,3.0362,3.0944,3.1754,3.1789,3.18,3.1812,3.1812,3.1812,3.1812,3.1502,3.1346,3.1275,3.0396,2.9924,2.988,2.9149,2.8814,2.8803,2.8803,2.8617,2.8395,2.8395,2.8243,2.8006,2.801,2.7811,2.7602,2.7602,2.7094,2.6315,0.0,0.0,0.0,0.0,0.0,0.0,0.0,1.8618,1.91,1.9586,2.0175,2.0774,2.1272,2.134,2.1465,2.1675,2.1476,2.1141,2.0628,2.035,2.0155,2.0185,2.0159,2.0671,2.1859,2.2292,2.2841,2.3476,2.3748,2.3931,2.4135,2.3938,2.3795,2.3795,2.3596,2.3384,2.3187,2.3187,2.2979,2.2526,2.1518,2.0899,2.0487,0.0,0.0,0.0,0.0,0.0,0.0,0.0,0.0,0.0,0.0,0.0,0.0,0.0,0.0,0.0,0.0,0.0,0.0,0.0,0.0,0.0,0.0,0.0,0.0,0.0,0.0,0.0,0.0,0.0,0.0,0.0,0.0,2.3867,2.3699,2.5171,2.6404,2.6768,2.7451,2.8271,2.9227,2.9451,2.9869,3.0586,3.0743,3.1083,3.1687,3.1709,3.1927,3.2289,3.23,3.23,3.23,3.2239,3.1872,3.1316,3.1047,3.0469,2.9584,2.9215,2.8812,2.8488,2.8279,2.8186,2.8092,2.8092,2.7951,2.7741,2.7907,2.7643,2.7104,2.7104,2.6393,2.5331,0.0,0.0,0.0,0.0,0.0,0.0,0.0,1.8114,1.8607,1.9356,1.986,2.0394,2.1127,2.1187,2.1239,2.1406,2.1225,2.0931,2.0453,2.0381,2.0391,2.0386,2.074,2.1363,2.2246,2.2781,2.3252,2.374,2.3906,2.4021,2.4053,2.3845,2.3696,2.3447,2.3297,2.3147,2.3046,2.2946,2.2707,2.238,2.1432,2.1017,2.0811,1.9878,1.9195,1.869,1.7886,1.7381,1.7004,1.6627,0.0,0.0,0.0,0.0,0.0,0.0,0.0,0.0,0.0,0.0,0.0,0.0,0.0,0.0,0.0,0.0,0.0,0.0,0.0,0.0,0.0,0.0,0.0,0.0,2.3747,2.4756,2.4947,2.6179,2.7158,2.7608,2.8283,2.9088,2.9943,3.0046,3.0341,3.1011,3.1045,3.1354,3.1995,3.2017,3.2202,3.2493,3.2493,3.2493,3.2493,3.224,3.1893,3.1416,3.1018,3.0437,2.9737,2.9397,2.8946,2.8496,2.8343,2.8084,2.7715,2.7715,2.7431,0.0,0.0,0.0,0.0,0.0,2.5535,2.4705,0.0,0.0,0.0,0.0,0.0,0.0,0.0,1.7535,1.809,1.9109,1.9385,1.9947,2.1096,2.0797,2.0612,2.0907,2.0584,2.0285,2.011,2.0351,2.0514,2.0561,2.1712,2.2267,2.2192,2.3261,2.3758,2.3563,2.3978,2.4053,2.3805,2.3755,2.3447,2.2996,2.2946,2.2745,2.2544,2.2182,2.2072,2.1996,2.1495,2.1094,2.0763,2.0197,1.9567,1.8957,1.8314,1.7812,1.7368,1.7064,0.0,0.0,0.0,0.0,0.0,0.0,0.0,0.0,0.0,0.0,0.0,0.0,0.0,0.0,0.0,0.0,0.0,0.0,0.0,0.0,0.0,0.0,0.0,0.0,2.4467,2.6016,2.6506,2.7236,2.7851,2.8189,2.9166,2.9899,3.0188,3.0237,3.0543,3.1224,3.1257,3.1545,3.2269,0.0,0.0,0.0,0.0,3.2302,3.2302,3.1783,3.1527,3.1516,3.0606,3.0178,3.0053,2.9639,2.9151,2.8603,2.8603,2.8061,2.7214,2.7167,2.6678,2.6052,2.6965,2.687,2.6149,2.5118,2.452,2.4146,0.0,0.0,0.0,0.0,0.0,0.0,0.0,1.7039,1.7394,1.81,1.8538,1.8978,1.951,1.9379,1.9251,1.9271,1.9022,1.8864,1.8749,1.9423,1.9939,2.0276,2.1264,2.2133,2.275,2.331,2.3761,2.4082,2.3967,2.3845,2.3795,2.3347,2.3097,2.2996,2.2485,2.2232,2.2182,2.1928,2.1776,2.1768,2.1651,2.142,2.1056,2.0626,2.0033,1.9401,1.9261,1.8776,1.8191,1.8125,1.7672,1.708,1.7006,1.6585,0.0,0.0,0.0,0.0,0.0,0.0,0.0,0.0,0.0,0.0,0.0,0.0,0.0,0.0,0.0,0.0,0.0,0.0,0.0,2.3805,2.511,2.6275,2.6979,2.7964,2.8683,2.8806,2.9426,2.9979,3.0396,3.0428,3.0673,3.1159,3.0998,3.0938,3.1127,3.1137,3.1137,3.1137,3.1137,3.1137,3.1137,3.1034,3.0931,3.0931,0.0,0.0,3.0064,2.9756,2.905,2.807,2.7875,2.7385,2.664,2.6438,2.5858,2.5177,2.5372,2.5206,2.4796,2.3917,2.3329,2.282,0.0,0.0,0.0,0.0,0.0,0.0,0.0,1.642,1.6653,1.7489,1.7603,1.7844,1.8436,1.8231,1.8045,1.8043,1.7879,1.7861,1.8083,1.8847,1.9552,2.0183,2.1472,2.239,2.2895,2.3393,2.3744,2.4003,2.3746,2.3546,2.3397,2.3147,2.2846,2.2535,2.2224,2.203,2.1878,2.1623,2.1522,2.1479,2.1369,2.1221,2.1034,2.081,2.0403,1.9901,1.9554,1.9039,1.8414,1.8229,1.7683,1.7138,1.6972,1.6602,1.6142,0.0,0.0,0.0,0.0,0.0,0.0,0.0,0.0,0.0,0.0,0.0,0.0,0.0,0.0,2.0598,0.0,0.0,2.3523,2.4506,2.5528,2.6567,2.7522,2.837,2.9034,2.9293,2.9775,3.0272,3.0598,3.067,3.0664,3.0795,3.0661,3.0557,3.0412,3.0412,3.0412,3.0412,3.0412,3.0412,3.0412,3.0256,3.0193,3.0193,3.0193,2.9964,2.958,2.9632,2.8982,2.783,2.7621,2.6952,2.6052,2.5362,2.4716,2.4084,2.3678,2.3569,2.361,2.282,2.2064,2.1404,0.0,0.0,0.0,0.0,0.0,0.0,0.0,1.5796,1.5905,1.6699,1.6524,1.6564,1.7138,1.6947,1.6726,1.6687,1.6596,1.6795,1.7325,1.8325,1.9219,1.9963,2.1545,2.253,2.2762,2.3316,2.3624,2.3705,2.3447,2.3197,2.2996,2.2896,2.2585,2.2072,2.1971,2.1827,2.1623,2.1326,2.1224,2.1224,2.0976,2.0925,2.0885,2.0728,2.0452,2.0168,1.9621,1.9012,1.8388,1.8055,1.7512,1.6997,1.6774,1.6408,1.6026,1.5969,1.5684,0.0,0.0,0.0,0.0,0.0,0.0,0.0,0.0,1.8845,1.9393,1.9393,2.0385,2.1263,2.1343,2.2699,2.4042,2.4841,2.5774,2.6828,2.7841,2.8507,2.9033,2.9517,3.0005,3.0401,3.062,3.062,3.0453,3.0183,3.0078,2.9973,2.9669,2.9669,2.9669,2.9669,2.9669,2.9669,2.9669,2.9501,2.9448,2.9448,2.9501,2.9343,2.9132,2.9396,2.8805,2.7592,2.7069,2.6238,2.5255,2.4322,2.3578,2.2929,2.2173,2.2013,2.2114,2.1564,2.0842,2.0019,0.0,0.0,0.0,0.0,0.0,0.0,0.0,0.0,1.5268,1.5028,1.5188,1.5201,1.484,1.5002,1.4992,1.4588,1.4811,1.5178,1.5737,1.7481,1.8717,1.9281,2.0843,2.1868,2.2262,2.2708,2.3108,2.3447,2.3197,2.3046,2.2996,2.2434,2.2173,2.2072,2.1623,2.1369,2.1326,2.107,2.0917,2.0917,2.0917,2.0925,2.0834,2.0284,1.9904,1.9581,1.9503,1.8915,1.8133,1.8087,1.7651,1.7064,1.7026,1.6591,1.6079,1.6083,1.583,1.565,1.5849,1.6421,1.718,1.792,1.8398,1.8751,0.0,1.9632,2.0163,2.0163,2.0995,2.1817,2.2175,2.2973,2.3785,2.4587,2.578,2.6843,2.7568,2.8242,2.8817,2.9104,2.9691,3.0047,3.0099,2.9879,2.9606,2.929,2.9016,2.8751,2.8504,2.8504,2.8504,2.8504,2.8504,2.8504,2.8504,2.8708,2.8794,2.8794,2.9016,2.9132,2.9079,2.9132,2.8378,2.6984,2.5477,2.4464,2.3877,2.3529,2.2778,2.1818,2.1251,2.0467,1.9694,2.0122,1.9561,1.8624,0.0,0.0,0.0,0.0,0.0,0.0,0.0,0.0,0.0,1.4595,1.4379,1.4121,1.3901,1.3508,1.3191,1.2981,1.3289,1.3847,1.4678,1.6171,1.7466,1.8473,2.0057,2.1127,2.1652,2.2039,2.2311,2.247,2.2088,2.2004,2.2177,2.1761,2.1519,2.1369,2.1173,2.0909,2.0593,2.0498,2.0506,2.0652,2.0296,2.0218,2.0323,1.9737,1.9094,1.8554,1.8692,1.8422,0.0,1.7326,1.6879,1.6497,1.6119,1.582,1.5565,1.5676,1.5602,1.5617,1.6309,1.6954,1.7552,1.8046,1.8819,1.9474,1.9563,2.0312,2.0942,2.0942,2.1562,2.2188,2.2362,2.2957,2.3732,0.0,2.5396,2.6177,2.7022,2.7752,2.8291,2.8388,2.8601,2.892,2.9237,2.9122,2.8804,2.8174,2.8014,2.7736,2.7305,2.7305,2.7305,2.7305,2.7305,2.7368,2.753,2.7628,2.7789,2.795,2.8271,2.8281,2.8111,2.808,2.7224,2.5663,2.4372,2.3479,2.2979,2.2526,2.1818,2.0944,2.0388,1.9509,1.8572,1.8938,1.8415,1.7364,0.0,0.0,0.0,0.0,0.0,0.0,0.0,0.0,0.0,0.0,1.3671,1.3179,1.2905,1.2074,1.1563,1.1571,1.1857,1.2507,1.3567,1.4889,1.6212,1.7447,1.8948,2.0079,2.0749,2.1062,2.1294,2.1509,2.1142,2.1084,2.1245,2.0983,2.0725,2.053,2.0428,2.0175,1.9811,1.9811,1.9921,2.0066,1.9617,1.9568,1.9671,1.9037,1.8364,1.7787,1.7922,1.7721,1.7283,1.6557,1.6133,1.5842,1.5343,1.514,1.5113,1.5258,1.546,1.5794,1.6592,1.7286,1.7866,1.8314,1.9114,1.9874,2.0075,2.0727,2.1326,2.1326,2.1778,2.2191,2.2191,2.2713,2.3421,2.4218,2.479,2.5387,2.6169,2.6943,2.7359,2.7359,2.7454,2.7628,2.7833,2.8101,2.7897,2.6989,2.6935,2.6663,2.61,2.6109,2.6109,2.6109,2.6109,2.6218,2.6491,2.6609,2.6772,2.7053,2.7476,2.753,2.7305,2.6935,2.598,2.4508,2.3497,2.2728,2.2123,2.1615,2.0901,2.013,1.9465,1.8639,1.7753,1.774,1.7206,1.6418,0.0,0.0,0.0,0.0,0.0,0.0,0.0,0.0,0.0,0.0,0.0,0.0,0.0,1.0609,1.0182,1.0257,1.0486,1.1088,1.2084,1.3763,1.5172,1.6214,1.7541,1.8616,1.9342,1.9541,2.0036,2.0709,2.0717,2.0564,2.0313,2.0071,1.9794,1.9517,1.9272,1.9132,1.9132,1.9132,1.9132,1.9132,1.9117,1.9117,1.903,1.826,1.7735,1.7409,1.7402,1.6925,1.6204,1.5835,1.5483,1.5224,1.521,1.4993,1.4748,1.5048,1.5635,1.6227,1.6548,1.7247,1.8096,1.8929,1.9439,1.9851,2.044,2.0916,2.1197,2.1197,2.1469,2.1709,2.1709,2.2165,2.2655,2.31,2.3881,2.4597,2.5013,2.5614,2.6083,2.6083,2.6424,2.6436,0.0,2.6554,2.6663,2.5798,2.5734,2.5514,2.4898,2.4834,2.4834,2.4834,2.4834,2.5,2.5276,2.5569,2.5844,2.6127,2.6718,2.7043,2.6961,2.5959,2.4945,2.3948,2.2942,2.2072,2.1267,2.0747,2.0078,1.9272,1.8384,1.7701,1.712,1.6264,1.5945,1.5838,0.0,0.0,0.0,0.0,0.0,0.0,0.0,0.0,0.0,0.0,0.0,0.0,0.0,0.0,0.0,0.0,0.9423,0.9982,1.0776,1.2366,1.3604,1.4375,1.5786,1.6847,1.7553,1.7961,1.837,1.8856,1.8675,1.8567,1.855,1.8311,1.8174,1.8163,1.8074,1.8052,1.8108,1.8108,1.8083,1.8003,1.7599,1.7436,1.735,1.6568,1.6071,1.5777,0.0,1.5338,1.5334,1.4851,1.464,1.4519,1.446,1.4487,1.4608,1.5255,1.5878,1.6477,1.7098,1.7789,1.852,1.9153,1.9902,2.0459,2.0679,2.1138,2.1552,2.1552,2.1643,2.1725,2.1725,2.1827,2.2063,2.2401,2.2929,2.3444,2.3963,2.4473,2.4827,2.4827,2.4943,0.0,0.0,0.0,0.0,2.4612,2.4501,2.4223,2.3624,2.3624,2.3624,2.3624,2.3792,2.4072,2.4326,2.4842,2.5229,2.5505,2.5639,2.5595,2.5306,2.4314,2.3555,2.2968,2.1877,2.1165,2.0696,1.9983,1.9212,1.8384,1.7905,1.7166,1.6264,1.5832,1.5405,1.4976,0.0,0.0,0.0,0.0,0.0,0.0,0.0,0.0,0.0,0.0,0.0,0.0,0.0,0.0,0.0,0.0,0.0,0.8813,0.9606,1.0916,1.204,1.282,1.4185,1.5223,1.5944,1.6405,1.6813,1.72,1.6993,1.6843,1.6698,1.6632,1.6545,1.6472,1.6584,1.6651,1.6656,1.6656,1.6633,1.6565,1.619,1.6035,1.5962,1.526,1.4818,0.0,1.3879,1.3898,1.4172,1.4043,1.4011,1.4021,1.4177,1.448,1.4944,1.5455,1.6075,1.6743,1.7576,1.8163,1.8795,1.9573,2.0214,2.0674,2.0795,2.0958,2.1081,2.1081,2.0934,2.0795,2.0795,2.0837,2.1028,2.141,2.1768,2.2222,2.2784,2.3237,2.3529,2.3529,2.3649,2.3515,0.0,0.0,0.0,2.346,2.3311,2.3054,2.2505,2.2325,2.2199,2.2327,2.2433,2.2743,2.3225,2.361,2.4103,2.4648,2.4629,2.4377,2.3983,2.3376,2.2698,2.203,2.1224,2.0652,2.0181,1.9413,1.8639,1.7799,1.7424,1.6736,1.5832,1.5458,1.503,1.4546,0.0,0.0,0.0,0.0,0.0,0.0,0.0,0.0,0.0,0.0,0.0,0.0,0.0,0.0,0.0,0.0,0.0,0.0,0.8526,0.9552,1.0535,1.1536,1.2714,1.3715,1.4447,1.4914,1.5363,1.5741,1.5741,1.5411,1.4789,1.5014,1.491,1.4512,1.4743,1.487,1.489,1.489,1.4877,1.4863,1.4863,1.4856,1.4816,1.4338,1.3969,1.3597,1.2883,1.263,1.2756,1.3452,1.3682,1.3822,1.4286,1.4972,1.5612,1.5691,1.6293,1.7113,1.7925,1.8408,1.8918,2.0126,2.0392,2.048,2.0762,2.037,1.9976,1.9926,1.9472,1.9102,1.9102,0.0,1.9636,2.0263,2.0576,2.0955,2.155,2.1971,2.221,0.0,0.0,0.0,0.0,0.0,0.0,2.2355,0.0,2.1836,2.1494,2.095,2.0788,2.1089,2.0838,2.1101,2.1904,2.1957,2.2548,2.3665,2.3648,2.3451,2.3065,2.304,2.2424,2.1275,2.0968,2.0403,1.9628,1.9042,1.8311,1.7477,1.6942,1.6365,1.5785,1.5196,1.4821,1.4444,0.0,0.0,0.0,0.0,0.0,0.0,0.0,0.0,0.0,0.0,0.0,0.0,0.0,0.0,0.0,0.0,0.0,0.0,0.7259,0.8229,0.9157,0.9958,1.1,1.1921,1.2642,1.3018,1.3401,1.3724,1.3604,1.3373,1.3119,1.3035,1.2983,1.2943,1.3012,1.3198,1.3435,1.3435,1.3273,1.3043,1.3043,1.2954,1.2754,1.2457,1.2314,1.2195,1.1966,1.1861,1.2024,1.2867,1.3638,1.4313,1.4836,1.539,1.5943,1.661,1.7094,1.7614,1.8527,1.9041,1.9455,2.0231,2.025,2.0123,2.021,1.9768,1.9273,1.9125,1.9007,1.8897,1.8897,1.8947,1.9068,1.9356,1.9687,0.0,2.0662,2.1033,0.0,2.1515,0.0,2.1291,2.0935,2.0522,0.0,0.0,2.0632,2.0542,1.9973,1.9847,1.9741,1.9859,2.0227,2.0518,2.0736,2.1588,2.2387,2.3081,2.3024,2.2795,2.2486,2.2203,2.1765,2.1275,2.0601,1.9939,1.9376,1.8736,1.7891,1.6889,1.6783,1.6099,1.5196,1.5035,1.4719,1.4186,0.0,0.0,0.0,0.0,0.0,0.0,0.0,0.0,0.0,0.0,0.0,0.0,0.0,0.0,0.0,0.0,0.0,0.0,0.0,0.7201,0.8006,0.8798,0.9686,1.0503,1.1202,1.1567,1.1888,1.2123,1.2013,1.1795,1.1463,1.1372,1.1258,1.1077,1.1225,1.1318,1.145,1.145,1.137,0.0,0.0,1.1219,1.1169,1.1103,1.107,1.107,1.1103,1.1406,1.1888,1.2726,1.3789,1.4801,1.5104,1.5777,1.6558,1.7071,1.7508,1.8003,1.8769,1.9152,1.9386,1.9878,1.9873,1.9724,1.9633,1.9075,1.854,1.8435,1.8074,1.7833,1.7833,1.7833,1.8022,0.0,0.0,0.0,1.9926,2.0339,2.0601,0.0,2.0652,0.0,2.0153,1.9747,1.943,0.0,1.9488,1.947,1.9016,1.8728,1.866,1.8762,1.9017,1.9384,2.0027,2.0923,2.161,2.2179,2.2138,2.1995,2.1832,2.162,2.1369,2.107,2.0395,1.9776,1.922,1.8534,1.7635,1.6677,1.6418,1.5779,1.4982,1.4874,1.445,1.3921,0.0,0.0,0.0,0.0,0.0,0.0,0.0,0.0,0.0,0.0,0.8686,0.771,0.0,0.0,0.0,0.0,0.0,0.0,0.0,0.0,0.7043,0.7887,0.8651,0.9357,1.0006,1.0409,1.0627,1.0718,1.071,1.0405,0.985,0.9921,0.965,0.9145,0.9374,0.941,0.9297,0.9297,0.9382,0.9558,0.9558,0.967,0.9889,0.0,1.0054,1.0092,1.0306,1.1068,1.2034,1.2669,1.3842,1.5111,1.5238,1.6117,1.7176,1.722,1.7674,1.8202,1.8776,1.8964,1.905,1.9351,1.9398,1.9269,1.8984,1.8301,1.7706,1.7651,1.6964,1.643,1.6472,1.6479,1.6725,1.761,0.0,1.8449,1.929,1.9709,1.9981,2.0078,2.0086,1.9931,1.968,1.9376,1.8952,1.8318,1.8549,1.8577,1.8343,1.7784,1.7646,1.7956,1.7769,1.8265,1.9628,2.0205,2.0719,2.1173,2.1275,2.1275,2.1275,2.1275,2.1173,2.0865,2.0344,1.9776,1.9227,1.8384,1.7483,1.6624,1.6099,1.5517,1.4982,1.4659,1.4175,1.3645,0.0,0.0,0.0,0.0,0.0,0.0,0.0,0.0,0.0,0.0,0.8307,0.771,0.0,0.0,0.0,0.0,0.0,0.0,0.0,0.0,0.0,0.6978,0.7779,0.8473,0.9019,0.9379,0.9483,0.9334,0.9138,0.8844,0.8524,0.8153,0.7912,0.775,0.7693,0.77,0.7785,0.7785,0.7958,0.8229,0.8229,0.8403,0.8679,0.872,0.0,0.0,0.9567,1.0579,1.1702,1.2068,1.3251,1.4647,1.5376,1.6197,1.6981,1.7475,1.7863,1.8155,1.8546,1.8686,1.877,1.9108,1.8783,1.8378,1.8152,1.741,1.6625,1.6255,1.5691,1.5418,1.5853,1.5756,1.5891,1.6711,1.7117,1.7582,1.8392,1.8816,1.9271,0.0,1.9879,1.968,1.9376,1.89,0.0,0.0,1.7583,1.7483,1.7429,1.7051,1.7125,1.7655,1.7826,1.8384,1.9376,1.9887,2.0351,2.0617,2.107,2.1173,2.0968,2.1224,2.1173,2.0865,2.0344,0.0,1.9227,1.8384,1.7483,1.6624,1.6099,1.5517,1.4928,1.4439,1.4013,1.3645,0.0,0.0,0.0,0.0,0.0,0.0,0.0,0.9858,0.9368,0.8598,0.8062,0.7502,0.6859,0.5959,0.5296,0.0,0.0,0.0,0.0,0.0,0.0,0.0,0.0,0.0,0.8172,0.8508,0.862,0.8522,0.0,0.7903,0.7502,0.7049,0.667,0.641,0.6159,0.605,0.6033,0.6033,0.6246,0.6568,0.6693,0.7031,0.7459,0.0,0.0,0.0,0.0,1.0096,1.0856,1.1546,1.255,1.369,1.4804,1.5917,1.6921,1.7187,1.7672,1.8117,1.8285,1.8331,1.8322,1.8394,1.8168,1.7807,1.7268,1.6714,1.613,1.5529,1.5057,1.4817,1.5007,1.5015,1.5206,1.5718,1.6313,1.6856,1.7386,1.8024,1.8534,1.8935,1.8999,1.8952,1.8848,1.8318,1.7898,1.7635,1.706,1.6755,1.6755,1.6583,1.6683,1.71,1.7582,1.8213,1.9049,1.9472,1.9939,2.0522,2.0771,2.0873,2.0925,2.1019,2.0976,2.0668,2.0292,1.9717,1.8945,1.8167,1.7272,1.6424,1.5731,1.5089,1.4546,1.4121,1.3527,1.2989,0.0,0.0,0.0,0.0,0.0,0.0,0.9693,0.9397,0.9047,0.8541,0.7897,0.7273,0.6725,0.5846,0.5226,0.0,0.0,0.0,0.0,0.0,0.0,0.0,0.0,0.0,0.0,0.0,0.0,0.7803,0.7544,0.0,0.0,0.0,0.0,0.0,0.4809,0.4594,0.4505,0.4505,0.4702,0.0,0.0,0.5747,0.0,0.0,0.0,0.0,0.0,0.9468,0.9926,1.0904,1.1715,1.2441,1.3675,1.5166,1.648,1.6552,1.7119,1.7702,1.7695,1.7701,1.7714,1.7535,1.7436,1.7179,1.6518,1.6029,1.559,1.4961,1.4543,1.4244,1.4219,1.4314,1.455,0.0,1.5542,1.6077,1.6482,1.7109,1.7618,1.78,1.8022,0.0,1.816,1.774,0.0,1.7265,1.6477,1.6057,1.6117,1.6111,1.6264,1.6524,1.716,1.7845,1.8624,1.9056,1.9635,2.0308,2.047,2.0617,2.0822,2.0822,2.0719,2.047,2.0094,1.9457,1.867,1.7786,1.6948,1.6111,1.5196,1.4552,1.4116,1.3635,1.2985,1.2382,0.0,0.0,0.0,0.0,0.0,0.0,0.9547,0.9177,0.881,0.8455,0.7829,0.7181,0.6583,0.5782,0.5226,0.0,0.0,0.0,0.0,0.0,0.0,0.0,0.0,0.0,0.0,0.0,0.0,0.6825,0.679,0.0,0.0,0.0,0.0,0.0,0.0,0.353,0.3541,0.3541,0.0,0.0,0.0,0.0,0.0,0.0,0.0,0.0,0.0,0.8458,0.9209,0.9915,1.0441,1.0948,1.1951,1.3567,1.5117,1.5445,1.5931,1.6359,1.6306,1.6511,1.673,1.673,1.6518,1.626,1.5925,1.5266,1.464,1.4344,1.3739,1.3379,1.3755,1.3737,1.3875,0.0,0.0,1.5134,1.5894,1.6061,1.6391,1.719,0.0,0.0,1.7305,1.7279,1.6908,1.6105,1.5464,1.5256,1.5535,1.5589,1.569,1.5945,1.6802,1.749,1.8069,1.8907,1.948,1.9783,2.0256,2.0514,2.0522,2.0522,2.0522,2.047,1.9687,1.9004,0.0,1.7259,1.6471,1.5838,1.4708,1.4223,1.4062,1.2925,1.2491,1.2332,0.0,0.0,0.0,0.0,0.0,0.0,0.9328,0.9085,0.8749,0.834,0.7697,0.7042,0.645,0.5631,0.5031,0.4775,0.0,0.0,0.0,0.0,0.0,0.0,0.0,0.0,0.0,0.0,0.6564,0.6291,0.595,0.0,0.0,0.0,0.0,0.0,0.0,0.246,0.2384,0.2433,0.0,0.0,0.0,0.0,0.0,0.0,0.0,0.0,0.0,0.0,0.8399,0.9133,0.9759,1.0338,1.0802,1.1884,1.3185,1.4147,1.492,1.5524,1.5614,1.5802,1.5892,1.6036,1.5983,1.576,1.5191,1.4835,1.4389,1.3687,1.3303,1.3125,1.3145,1.3088,1.3188,1.3489,0.0,0.0,1.4475,1.488,1.5313,1.5632,1.596,0.0,0.0,0.0,1.5945,1.541,1.4982,1.4821,1.4934,1.5315,1.5636,1.5891,1.653,1.716,1.7747,1.8429,1.9004,1.948,1.9843,2.0094,2.0248,2.0248,2.0197,1.999,1.9532,1.8855,0.0,1.7107,1.6152,1.5303,1.4493,1.3732,1.3034,1.2599,1.206,1.1564,0.0,0.0,0.0,0.0,0.0,0.9248,0.9157,0.8943,0.8618,0.8188,0.7565,0.6909,0.6267,0.5475,0.4836,0.4421,0.417,0.0,0.0,0.0,0.0,0.0,0.0,0.0,0.0,0.0,0.6099,0.5783,0.5366,0.4853,0.0,0.0,0.3021,0.2446,0.0,0.0,0.0,0.0,0.0,0.0,0.0,0.0,0.0,0.0,0.0,0.0,0.0,0.0,0.0,0.0,0.0,0.9416,0.9883,1.056,1.1454,1.286,1.381,1.452,1.479,1.4966,1.5129,1.5263,1.5195,1.4984,1.4482,1.4239,1.3942,1.3131,1.2924,1.2796,1.254,1.2527,1.2592,1.2668,0.0,1.3315,1.3461,1.3933,1.432,1.4426,0.0,1.5046,0.0,1.5046,1.4874,1.4606,1.439,1.4229,1.4337,1.4826,1.5256,1.5624,1.6152,1.6789,1.7483,1.795,1.8534,1.9175,1.9428,1.9732,1.9983,1.9879,1.9783,1.9524,1.9004,1.8377,0.0,1.6736,1.5779,1.4821,1.4116,1.3251,1.2387,1.2114,1.1564,1.0966,0.0,0.0,0.0,0.0,0.0,0.9157,0.9016,0.8724,0.8378,0.8041,0.7419,0.6747,0.6081,0.5394,0.4705,0.3968,0.3902,0.0,0.0,0.0,0.0,0.0,0.0,0.0,0.0,0.0,0.5713,0.531,0.5162,0.4767,0.4097,0.3291,0.2538,0.1887,0.0,0.0,0.0,0.0,0.0,0.0,0.0,0.0,0.0,0.0,0.0,0.0,0.0,0.0,0.0,0.0,0.0,0.0,0.0,0.9622,1.0264,1.1636,1.2554,1.3163,1.343,1.3926,1.4321,1.4315,1.4065,1.3811,1.3805,1.3466,1.3058,1.2747,1.2534,1.2326,1.2037,1.2,1.208,1.2374,1.2414,0.0,1.3129,1.3204,1.3393,0.0,0.0,1.4025,1.4281,1.3933,1.3694,1.3699,1.3478,0.0,1.3699,1.4013,1.4439,1.4982,1.5571,1.6318,1.7179,1.7483,1.8062,1.8928,1.9175,1.9428,1.968,1.9428,1.9331,1.922,1.8108,1.7483,0.0,1.5992,1.5137,1.4493,1.3364,1.2713,1.2273,1.1455,1.0966,1.0692,0.0,0.0,0.0,0.0,0.0,0.0,0.8932,0.8639,0.8283,0.785,0.7217,0.6513,0.5744,0.4966,0.4316,0.381,0.3729,0.0,0.0,0.0,0.0,0.0,0.0,0.0,0.0,0.5267,0.5124,0.4821,0.4463,0.394,0.327,0.2645,0.1998,0.1328,0.0886,0.051,0.0,0.0,0.0,0.0,0.0,0.0,0.0,0.0,0.0,0.0,0.0,0.0,0.0,0.0,0.0,0.0,0.0,0.0,0.0,1.0032,1.0987,1.1946,1.2368,1.2711,1.3083,1.3392,1.3278,1.2993,1.2867,1.2491,1.2057,1.1805,1.1857,1.1895,1.1817,1.1657,1.1532,1.1646,1.1541,1.1536,0.0,0.0,0.0,1.2585,1.2663,1.2893,0.0,0.0,1.2822,1.2822,1.2935,1.3044,1.3152,1.3586,1.4229,1.4987,1.5571,1.6205,1.6842,1.7371,1.7852,1.8286,1.8534,1.8736,1.8788,1.8743,1.8586,1.8384,1.7845,1.7213,1.6483,1.5571,1.4713,1.391,1.293,1.2278,1.1787,1.1076,1.0637,1.0308,0.0,0.0,0.0,0.0,0.0,0.0,0.8708,0.8455,0.8098,0.7649,0.6979,0.6252,0.5507,0.4753,0.4096,0.3634,0.3437,0.0,0.0,0.0,0.0,0.0,0.0,0.0,0.4867,0.4845,0.4692,0.4338,0.3921,0.3413,0.2812,0.219,0.1588,0.1008,0.0529,0.014,0.0,0.0,0.0,0.0,0.0,0.0,0.3019,0.0,0.0,0.0,0.0,0.0,0.0,0.0,0.0,0.0,0.0,0.0,0.0,0.0,0.9736,1.0595,1.1311,1.1758,1.2046,1.2331,1.2294,1.2133,1.201,1.1763,1.1491,1.1243,1.1246,1.1293,1.13,1.1101,1.0925,1.0923,1.0806,1.0825,0.0,0.0,0.0,1.1726,0.0,0.0,0.0,1.2005,1.1891,1.1891,1.211,1.2387,1.2713,1.3044,1.3689,1.4659,1.525,1.5838,1.6365,1.6895,1.7378,1.7859,1.8003,1.816,1.8272,1.816,1.7957,1.7648,1.716,1.6577,0.0,1.5083,1.4175,1.3315,1.255,1.1841,1.1185,1.0692,1.0198,0.9699,0.0,0.0,0.0,0.0,0.0,0.0,0.0,0.8172,0.7842,0.7433,0.6747,0.6033,0.5351,0.4683,0.4052,0.3442,0.3098,0.0,0.0,0.0,0.0,0.0,0.0,0.0,0.4252,0.4434,0.4316,0.3858,0.3527,0.3132,0.264,0.1927,0.1344,0.0873,0.0404,-0.0022,-0.0383,-0.0188,0.0124,0.0555,0.1276,0.2006,0.0,0.0,0.0,0.0,0.0,0.0,0.0,0.0,0.0,0.0,0.0,0.0,0.0,0.0,0.0,0.0,0.0,1.0871,1.1221,1.1238,1.1226,1.1215,1.1215,1.1163,0.0,1.0911,1.0778,1.0626,1.0538,1.0396,1.0276,1.026,1.0217,1.0284,0.0,1.0505,0.0,0.0,1.13,0.0,1.1038,1.1017,1.1017,1.1017,1.1021,1.14,1.2219,1.2332,1.2871,1.4062,1.4606,1.5196,1.5891,1.6164,1.669,1.7529,1.7529,1.7694,1.7911,1.7641,1.7378,0.0,1.6211,1.5672,1.5345,1.4493,1.363,1.2772,1.2169,1.1404,1.0582,1.0308,0.9644,0.8868,0.0,0.0,0.0,0.0,0.0,0.0,0.0,0.0,0.0,0.0,0.6647,0.5937,0.5226,0.4552,0.3939,0.0,0.0,0.0,0.0,0.0,0.0,0.0,0.0,0.0,0.3772,0.3853,0.3788,0.3508,0.3176,0.2751,0.2235,0.1701,0.1188,0.0741,0.0359,-0.0022,-0.0383,-0.0235,0.0048,0.0467,0.1016,0.1658,0.0,0.0,0.0,0.0,0.4588,0.4961,0.0,0.0,0.0,0.0,0.0,0.0,0.0,0.0,0.836,0.8835,0.91,0.0,1.0361,1.0579,1.0447,1.0319,0.0,1.0029,0.9748,0.971,0.9955,1.009,0.9876,0.9953,0.9981,0.9811,0.9549,0.9461,0.9659,0.9758,0.0,1.0418,1.0264,1.0196,1.0441,1.0253,1.0088,1.0088,1.0363,1.0692,1.1076,1.1514,1.2114,1.2817,1.3364,1.4337,1.5565,1.5838,1.6211,1.659,1.6789,1.6942,1.7001,1.6743,1.6477,1.6158,1.5517,1.4928,1.4439,1.3581,1.2822,1.2114,1.1295,1.0582,0.9923,0.9423,0.8982,0.8484,0.0,0.0,0.0,0.0,0.0,0.0,0.0,0.0,0.0,0.0,0.6526,0.5863,0.5166,0.4508,0.3939,0.0,0.0,0.0,0.0,0.0,0.0,0.0,0.0,0.3241,0.3178,0.3317,0.3281,0.3087,0.2773,0.2395,0.1947,0.1545,0.1076,0.0584,0.0202,-0.0135,-0.0382,-0.0184,0.0094,0.0429,0.0872,0.0,0.0,0.0,0.0,0.0,0.4408,0.4797,0.0,0.587,0.6242,0.651,0.0,0.0,0.0,0.0,0.7908,0.8155,0.8271,0.8972,0.9717,0.9841,0.9779,0.9692,0.9692,0.0,0.0,0.9165,0.936,0.9505,0.9349,0.9335,0.932,0.9148,0.8828,0.0,0.0,0.0,0.9006,0.9387,0.9268,0.9239,0.0,0.9316,0.9206,0.9206,0.9372,0.9699,1.0253,1.0582,1.1181,1.2005,1.2332,1.3305,1.4863,1.519,1.5517,1.5945,1.6099,1.6146,1.6146,1.5838,1.5571,1.525,1.4552,1.4013,1.3521,1.2659,1.1841,1.1131,1.0527,0.9868,0.9151,0.865,0.826,0.782,0.0,0.0,0.0,0.0,0.0,0.0,0.0,0.0,0.0,0.0,0.0,0.0,0.0,0.0,0.0,0.0,0.0,0.0,0.0,0.0,0.0,0.0,0.2625,0.2702,0.2597,0.2767,0.2771,0.2598,0.2348,0.2059,0.1725,0.1411,0.0987,0.0472,0.0067,-0.018,-0.027,-0.0022,0.0229,0.0472,0.0879,0.0,0.0,0.0,0.0,0.0,0.0,0.0,0.0,0.5801,0.6079,0.6225,0.6927,0.0,0.0,0.0,0.0,0.0,0.7699,0.8389,0.9087,0.9122,0.9132,0.9132,0.9132,0.0,0.0,0.0,0.0,0.893,0.8896,0.8665,0.0,0.8472,0.0,0.0,0.7659,0.776,0.7898,0.8187,0.822,0.0,0.829,0.8318,0.8318,0.8318,0.8318,0.8709,0.9482,0.9596,1.0143,1.1295,1.135,1.211,1.3786,1.4223,1.4654,1.5244,1.5292,1.5292,1.5298,1.4928,1.4606,1.4337,1.3418,0.0,1.2604,1.1732,1.0852,1.0029,0.9647,0.904,0.8263,0.7878,0.7432,0.6877,0.0,0.0,0.0,0.0,0.0,0.0,0.0,0.0,0.0,0.0,0.0,0.0,0.0,0.0,0.0,0.0,0.0,0.0,0.0,0.0,0.0,0.1821,0.202,0.212,0.21,0.2195,0.2196,0.2107,0.1949,0.1725,0.1456,0.1231,0.0897,0.0494,0.036,0.0292,0.0292,0.0382,0.0519,0.0682,0.1082,0.0,0.0,0.0,0.0,0.0,0.0,0.0,0.0,0.5633,0.5973,0.6198,0.6703,0.0,0.0,0.0,0.0,0.0,0.7504,0.7779,0.8077,0.8253,0.8293,0.8293,0.8293,0.0,0.0,0.0,0.0,0.0,0.0,0.8092,0.7911,0.0,0.0,0.7369,0.0,0.0,0.6988,0.7037,0.0,0.7161,0.7354,0.7376,0.7376,0.7376,0.7604,0.7881,0.8266,0.854,0.9147,1.0033,1.0091,1.0692,1.2005,1.2985,1.364,1.3964,1.4277,1.4385,1.4385,1.3797,1.3532,1.3423,0.0,1.1841,1.1732,1.0527,0.9864,0.9416,0.8595,0.7931,0.7321,0.6763,0.632,0.5875,0.0,0.0,0.0,0.0,0.0,0.0,0.0,0.0,0.0,0.0,0.0,0.0,0.0,0.0,0.0,0.0,0.0,0.0,0.0,0.0,0.1997,0.1861,0.1784,0.1744,0.1783,0.1889,0.1928,0.1884,0.1748,0.1569,0.1344,0.0964,0.0674,0.0494,0.0472,0.045,0.0472,0.065,0.083,0.1034,0.0,0.0,0.0,0.0,0.0,0.0,0.0,0.0,0.0,0.0,0.5793,0.5986,0.6325,0.0,0.0,0.0,0.0,0.0,0.6985,0.7009,0.7098,0.7373,0.7791,0.8128,0.8229,0.0,0.0,0.0,0.0,0.0,0.0,0.0,0.7385,0.696,0.0,0.6448,0.6174,0.6194,0.6295,0.0,0.0,0.6204,0.6417,0.632,0.6262,0.6432,0.6546,0.6824,0.7268,0.7435,0.7931,0.8819,0.8797,0.9352,1.0492,1.098,1.178,1.2914,1.2954,1.2946,1.2951,1.2428,1.2212,1.2163,0.0,1.0637,1.0527,0.9316,0.8647,0.8312,0.7429,0.6821,0.6376,0.5594,0.4812,0.403,0.0,0.0,0.0,0.0,0.0,0.0,0.0,0.0,0.0,0.0,0.0,0.0,0.0,0.0,0.0,0.0,0.0,0.0,0.0,0.2634,0.2131,0.1981,0.1708,0.1547,0.1586,0.1673,0.1703,0.1703,0.1614,0.1456,0.1254,0.0763,0.0562,0.0584,0.0584,0.0607,0.0651,0.0919,0.1141,0.1344,0.0,0.0,0.0,0.0,0.0,0.0,0.0,0.0,0.0,0.0,0.0,0.0,0.0,0.0,0.0,0.6349,0.6342,0.6393,0.6506,0.6488,0.6455,0.6745,0.7326,0.788,0.8063,0.0,0.0,0.0,0.0,0.0,0.0,0.7088,0.0,0.6139,0.5894,0.5701,0.5457,0.5539,0.5584,0.5605,0.5414,0.533,0.5477,0.5316,0.526,0.5485,0.5543,0.5766,0.6267,0.6354,0.6727,0.7555,0.7485,0.8009,0.9133,0.9028,0.9915,1.1732,1.1585,1.1511,1.1469,1.108,1.0896,1.0852,0.9847,0.9372,0.9261,0.8097,0.7487,0.7204,0.626,0.5594,0.5094,0.4367,0.3417,0.2465,0.0,0.0,0.0,0.0,0.0,0.0,0.0,0.0,0.0,0.0,0.0,0.0,0.0,0.0,0.0,0.0,0.0,0.0,0.0,0.2912,0.2311,0.1931,0.1766,0.1625,0.1507,0.1458,0.1433,0.1433,0.1411,0.1321,0.1119,0.0831,0.0742,0.0877,0.0877,0.0943,0.1075,0.1277,0.1366,0.1433,0.1928,0.0,0.0,0.0,0.0,0.0,0.0,0.0,0.0,0.0,0.0,0.0,0.0,0.0,0.6125,0.6122,0.6173,0.6256,0.6393,0.6412,0.6418,0.6596,0.6791,0.7022,0.7153,0.7319,0.0,0.73,0.0,0.0,0.0,0.6593,0.6101,0.5633,0.5565,0.5459,0.5,0.0,0.4827,0.4456,0.4424,0.4455,0.4583,0.459,0.459,0.459,0.4817,0.4985,0.5043,0.5292,0.568,0.6224,0.6178,0.6706,0.7809,0.7678,0.856,1.0337,1.0325,1.0316,1.0325,0.9918,0.9724,0.9681,0.8588,0.8156,0.8045,0.6874,0.6429,0.6262,0.5093,0.4088,0.3249,0.2968,0.241,0.1795,0.0,0.0,0.0,0.0,0.0,0.0,0.0,0.0,0.0,0.0,0.0,0.0,0.0,0.0,0.0,0.0,0.0,0.0,0.0,0.3067,0.2477,0.2159,0.1893,0.1685,0.1507,0.1436,0.1411,0.1411,0.1277,0.1164,0.1097,0.0831,0.0764,0.09,0.0988,0.112,0.1299,0.1456,0.1614,0.1794,0.2087,0.2266,0.0,0.0,0.0,0.0,0.0,0.0,0.0,0.0,0.5485,0.5608,0.5596,0.5735,0.5896,0.5804,0.5739,0.5758,0.5969,0.5835,0.5692,0.5912,0.6009,0.6188,0.6742,0.6854,0.6793,0.672,0.6599,0.0,0.0,0.0,0.5408,0.5124,0.4964,0.4781,0.4451,0.4492,0.447,0.4312,0.4194,0.4064,0.3976,0.3754,0.364,0.364,0.3696,0.3848,0.4029,0.411,0.4344,0.4729,0.4806,0.5231,0.6009,0.6208,0.6732,0.7591,0.8458,0.8816,0.882,0.8464,0.8318,0.8302,0.7479,0.7031,0.6874,0.6096,0.5539,0.5037,0.3863,0.2913,0.2242,0.1737,0.1177,0.0617,0.0,0.0,0.0,0.0,0.0,0.0,0.0,0.0,0.0,0.0,0.0,0.0,0.0,0.0,0.0,0.0,0.0,0.0,0.4014,0.3272,0.2692,0.2322,0.2041,0.1763,0.1507,0.1479,0.1433,0.1411,0.1208,0.1075,0.1031,0.0809,0.0787,0.0965,0.1053,0.1232,0.1478,0.1614,0.1817,0.2087,0.2243,0.2397,0.0,0.0,0.0,0.0,0.0,0.0,0.0,0.0,0.5299,0.543,0.527,0.5481,0.5699,0.5457,0.5378,0.5426,0.5512,0.53,0.5149,0.5298,0.5331,0.5431,0.5844,0.6051,0.6155,0.6103,0.5998,0.5787,0.5506,0.0,0.0,0.0,0.4455,0.4312,0.4023,0.4077,0.4108,0.3964,0.3785,0.3589,0.3365,0.3027,0.2802,0.2802,0.2733,0.2766,0.2953,0.2919,0.3047,0.3327,0.3424,0.3802,0.4415,0.4712,0.5083,0.5486,0.6434,0.7086,0.749,0.7127,0.6972,0.7006,0.6317,0.593,0.5662,0.5081,0.4367,0.3585,0.2745,0.1962,0.129,0.0785,0.0224,-0.0336,0.0,0.0,0.0,0.0,0.0,0.0,0.0,0.0,0.0,0.0,0.0,0.0,0.0,0.0,0.0,0.0,0.0,0.0,0.416,0.3526,0.2924,0.2322,0.2173,0.1921,0.1507,0.1565,0.1524,0.1389,0.1186,0.1031,0.09,0.0764,0.0853,0.1097,0.1097,0.1277,0.1614,0.1748,0.1951,0.2221,0.2417,0.2573,0.2729,0.0,0.0,0.0,0.0,0.0,0.0,0.0,0.498,0.5097,0.5097,0.5329,0.5514,0.5039,0.5128,0.5326,0.4983,0.4909,0.486,0.4722,0.4826,0.4863,0.4406,0.4912,0.549,0.5499,0.5294,0.4997,0.4759,0.4533,0.0,0.4034,0.4046,0.4018,0.3823,0.3838,0.3685,0.3187,0.3081,0.2971,0.2693,0.2413,0.2188,0.2188,0.1932,0.1804,0.1804,0.1745,0.1815,0.2074,0.2037,0.2369,0.3173,0.3173,0.3575,0.4379,0.4379,0.5081,0.6389,0.595,0.5794,0.5756,0.5052,0.4638,0.4371,0.3782,0.2858,0.1795,0.1795,0.1234,0.0336,0.0056,-0.0393,-0.1009,0.0,0.0,0.0,0.0,0.0,0.0,0.0,0.0,0.0,0.0,0.0,0.0,0.0,0.0,0.0,0.0,0.0,0.0,0.4355,0.3572,0.2924,0.2457,0.2305,0.2058,0.1644,0.1479,0.1366,0.1321,0.1077,0.0944,0.09,0.0764,0.0787,0.0965,0.1053,0.1231,0.1478,0.1703,0.1906,0.2087,0.2373,0.2526,0.2593,0.0,0.0,0.0,0.0,0.0,0.0,0.0,0.0,0.0,0.4956,0.5016,0.5066,0.4948,0.4779,0.4622,0.4695,0.4398,0.4178,0.4305,0.4229,0.0,0.0,0.4467,0.0,0.0,0.4423,0.423,0.4191,0.4169,0.0,0.3847,0.3863,0.3775,0.3357,0.3303,0.3233,0.2858,0.2636,0.2355,0.2076,0.1739,0.1395,0.1048,0.0932,0.0757,0.0528,0.0522,0.0516,0.0611,0.081,0.106,0.1514,0.1865,0.2267,0.272,0.3075,0.3981,0.5236,0.4762,0.4606,0.4665,0.4086,0.3658,0.3333,0.2625,0.1983,0.1379,0.0781,0.0112,-0.0561,-0.1065,-0.1514,-0.1907,0.0,0.0,0.0,0.0,0.0,0.0,0.0,0.0,0.0,0.0,0.0,0.0,0.0,0.0,0.0,0.0,0.0,0.0,0.4443,0.3644,0.2973,0.2527,0.2394,0.2153,0.1739,0.1395,0.1231,0.1231,0.0943,0.0787,0.0742,0.0629,0.0674,0.0832,0.0898,0.112,0.1411,0.1569,0.1817,0.2087,0.2308,0.244,0.2529,0.0,0.0,0.0,0.0,0.0,0.0,0.0,0.0,0.0,0.4629,0.4687,0.4717,0.4564,0.4362,0.4189,0.4151,0.3894,0.3671,0.379,0.3594,0.3403,0.3345,0.0,0.0,0.0,0.3946,0.3783,0.3825,0.3732,0.0,0.3411,0.3422,0.3324,0.2947,0.2941,0.2803,0.2413,0.2188,0.1851,0.129,0.0947,0.0608,0.0164,-0.0054,-0.0266,-0.0525,-0.0625,-0.0673,-0.0722,-0.0512,-0.0306,-0.0051,0.0405,0.0857,0.121,0.1766,0.2471,0.3374,0.3478,0.3501,0.3437,0.2841,0.2461,0.2292,0.1564,0.1083,0.0704,-0.0055,-0.0659,-0.1265,-0.1884,-0.2387,-0.2833,0.0,0.0,0.0,0.0,0.0,0.0,0.0,0.0,0.0,0.0,0.0,0.0,0.0,0.0,0.0,0.0,0.0,0.0,0.0,0.3726,0.3079,0.2543,0.241,0.2165,0.1813,0.1344,0.1097,0.1097,0.0808,0.0629,0.0494,0.0427,0.0494,0.0674,0.0674,0.092,0.1344,0.1366,0.1658,0.2131,0.2154,0.2286,0.2484,0.2754,0.0,0.0,0.0,0.0,0.0,0.0,0.0,0.0,0.4135,0.4257,0.4335,0.3989,0.3958,0.3936,0.353,0.339,0.3307,0.3167,0.3031,0.2851,0.2621,0.3146,0.3693,0.3767,0.0,0.3484,0.3484,0.3281,0.3048,0.2902,0.29,0.2844,0.2569,0.2556,0.2413,0.1795,0.168,0.1287,0.0448,0.0055,-0.0218,-0.0491,-0.1007,-0.131,-0.1437,-0.1626,-0.1832,-0.1916,-0.1832,-0.1659,-0.1399,-0.1121,-0.0656,-0.0151,0.0404,0.0757,0.1059,0.217,0.2522,0.2222,0.154,0.12,0.1166,0.0638,0.0213,-0.016,-0.0692,-0.1278,-0.1922,-0.2499,-0.3061,-0.3724,0.0,0.0,0.0,0.0,0.0,0.0,0.0,0.0,0.0,0.0,0.0,0.0,0.0,0.0,0.0,0.0,0.0,0.0,0.0,0.3872,0.3212,0.2683,0.2191,0.1882,0.1813,0.1344,0.1097,0.1097,0.0718,0.0539,0.0494,0.0427,0.0427,0.0472,0.0517,0.0652,0.0854,0.1075,0.1321,0.1591,0.1794,0.1973,0.2129,0.2348,0.2504,0.0,0.0,0.0,0.0,0.0,0.0,0.0,0.3691,0.3721,0.3722,0.3747,0.3645,0.3544,0.3426,0.3207,0.2945,0.2779,0.2537,0.2377,0.2358,0.248,0.2649,0.2688,0.2666,0.2674,0.2674,0.2623,0.2601,0.2635,0.2658,0.2531,0.2055,0.1959,0.1795,0.1177,0.0665,0.033,0.011,-0.0541,-0.1071,-0.1392,-0.1703,-0.2017,-0.229,-0.2388,-0.2494,-0.2717,-0.267,-0.2541,-0.2334,-0.2139,-0.1765,-0.126,-0.0707,-0.0404,-0.0303,0.0959,0.1414,0.1111,0.0761,0.0611,0.0563,0.0,-0.0522,-0.1045,-0.1377,-0.2129,-0.304,-0.3257,-0.3823,-0.4598,0.0,0.0,0.0,0.0,0.0,0.0,0.0,0.0,0.0,0.0,0.0,0.0,0.0,0.0,0.0,0.0,0.0,0.0,0.0,0.0,0.325,0.2678,0.2202,0.1927,0.1904,0.1433,0.1141,0.1007,0.0629,0.0409,0.0301,0.0185,0.0093,0.0071,0.0095,0.0238,0.0428,0.0628,0.0853,0.1082,0.1355,0.1547,0.1681,0.188,0.2014,0.2081,0.2217,0.0,0.0,0.0,0.0,0.0,0.0,0.0,0.3134,0.319,0.3146,0.3057,0.2978,0.2781,0.254,0.2261,0.0,0.1787,0.1724,0.1658,0.1587,0.1634,0.2056,0.2422,0.2422,0.2422,0.2341,0.2199,0.2172,0.1989,0.1435,0.1227,0.095,0.0499,-0.0055,-0.049,-0.081,-0.1275,-0.1741,-0.2129,-0.2484,-0.2809,-0.3017,-0.329,-0.3519,-0.3711,-0.3621,-0.352,-0.3414,-0.3118,-0.2822,-0.2569,-0.1866,-0.1413,-0.1161,-0.005,0.0354,0.0202,-0.0202,-0.0354,-0.0404,-0.0969,-0.1433,-0.1843,-0.2276,-0.2958,-0.3747,-0.4168,-0.4692,-0.5302,0.0,0.0,0.0,0.0,0.0,0.0,0.0,0.0,0.0,0.0,0.0,0.0,0.0,0.0,0.0,0.0,0.0,0.0,0.0,0.0,0.0,0.2685,0.2325,0.2081,0.1995,0.1547,0.1164,0.0895,0.0539,0.023,0.0,-0.0168,-0.0292,-0.0378,-0.0403,-0.0277,-0.0025,0.0073,0.0264,0.0527,0.0788,0.0961,0.1098,0.1305,0.1396,0.1419,0.1535,0.1767,0.1965,0.1978,0.0,0.0,0.0,0.0,0.2552,0.2589,0.2611,0.2546,0.2456,0.2296,0.2041,0.173,0.1453,0.0,0.11,0.094,0.0815,0.0782,0.1495,0.2119,0.2119,0.2119,0.1979,0.1603,0.1575,0.1387,0.0815,0.0496,0.0221,-0.0163,-0.0651,-0.1131,-0.1699,-0.2034,-0.2343,-0.2713,-0.3259,-0.36,-0.367,-0.4107,-0.4455,-0.4569,-0.4426,-0.4348,-0.4399,-0.3947,-0.3729,-0.3729,-0.2975,-0.237,-0.1865,-0.1211,-0.0757,-0.0656,-0.1111,-0.1364,-0.1465,-0.1917,-0.232,-0.2672,-0.3128,-0.3688,-0.4271,-0.5047,-0.5541,-0.6003,0.0,0.0,0.0,0.0,0.0,0.0,0.0,0.0,0.0,0.0,0.0,0.0,0.0,0.0,0.0,0.0,0.0,0.0,0.0,0.0,0.0,0.2955,0.2503,0.2184,0.1995,0.1547,0.1164,0.0895,0.0449,0.0,-0.0425,-0.0387,-0.0461,-0.0655,-0.0756,-0.0731,-0.058,-0.0577,-0.045,-0.0225,-0.0025,0.0099,0.0199,0.0472,0.0571,0.0571,0.072,0.0899,0.1089,0.1151,0.1358,0.0,0.0,0.0,0.1973,0.2196,0.2173,0.2126,0.2197,0.1853,0.1419,0.0,0.107,0.0792,0.0,0.0,0.0815,0.0,0.0897,0.101,0.101,0.101,0.1016,0.0983,0.0988,0.0786,0.0214,0.0107,-0.0215,-0.0962,-0.1318,-0.1617,-0.1925,-0.2611,-0.3134,-0.3345,-0.3879,-0.4256,-0.4345,-0.4352,-0.4431,-0.4766,-0.4559,-0.4631,-0.4886,-0.4483,-0.4288,-0.4286,-0.3729,-0.3277,-0.2977,-0.2877,-0.2321,-0.1462,-0.1765,-0.2017,-0.227,-0.2573,-0.2976,-0.3478,-0.3781,-0.4275,-0.4965,-0.5648,-0.6277,-0.6859,0.0,0.0,0.0,0.0,0.0,0.0,0.0,0.0,0.0,0.0,0.0,0.0,0.0,0.0,0.0,0.0,0.0,0.0,0.0,0.0,0.0,0.3137,0.2809,0.2481,0.217,0.1792,0.1366,0.0895,0.0516,0.0,-0.0605,-0.0817,-0.1016,-0.1207,-0.142,-0.1472,-0.1416,-0.144,-0.1324,-0.1165,-0.0913,-0.0755,-0.0655,-0.0454,-0.0378,-0.0378,-0.0328,-0.0128,0.013,0.0159,0.0405,0.0742,0.0892,0.0,0.0,0.0,0.1546,0.156,0.1582,0.1318,0.1068,0.0,0.0708,0.0474,0.0577,0.0321,0.0141,0.0144,0.0,0.01,0.0706,0.0808,0.0709,0.046,0.0413,0.0208,-0.0367,-0.0742,-0.1061,-0.1365,-0.2084,-0.2583,-0.2659,-0.3244,-0.3723,-0.382,-0.425,-0.4508,-0.462,-0.4703,-0.4792,-0.4951,-0.499,-0.5079,-0.5231,-0.5137,-0.4989,-0.4839,-0.4585,-0.4334,-0.4083,-0.4083,-0.353,-0.2522,-0.2773,-0.3025,-0.3327,-0.358,-0.4058,-0.4657,-0.4963,-0.5431,-0.6055,-0.6645,-0.72,-0.7801,0.0,0.0,0.0,0.0,0.0,0.0,0.0,0.0,0.0,0.0,0.0,0.0,0.0,0.0,0.0,0.0,0.0,0.0,0.0,0.0,0.0,0.3342,0.31,0.2773,0.2368,0.1994,0.15,0.0895,0.0539,-0.0023,-0.0756,-0.1234,-0.16,-0.188,-0.21,-0.2211,-0.2233,-0.2259,-0.2244,-0.2177,-0.1986,-0.1871,-0.1809,-0.1728,-0.1649,-0.1622,-0.1622,-0.1406,-0.1107,-0.1051,-0.0699,-0.0284,-0.0085,0.0169,0.0,0.0,0.0,0.0942,0.0856,0.0,0.0585,0.0465,0.0242,0.0084,0.0,0.0,-0.0462,0.0,-0.0627,-0.0542,0.025,0.0403,0.0253,-0.0152,-0.0256,-0.0464,-0.0928,-0.146,-0.1829,-0.2011,-0.2781,-0.3332,-0.3386,-0.3833,-0.4116,-0.4245,-0.451,-0.4754,-0.4782,-0.498,-0.5073,-0.5073,-0.5246,-0.5402,-0.5451,-0.5677,-0.5687,-0.5391,-0.5491,-0.5388,-0.5186,-0.5186,-0.4796,-0.4062,-0.3939,-0.4093,-0.4365,-0.4671,-0.5131,-0.5683,-0.6096,-0.6529,-0.7071,-0.7594,-0.8081,-0.8499,0.0,0.0,0.0,0.0,0.0,0.0,0.0,0.0,0.0,0.0,0.0,0.0,0.6926,0.65,0.6114,0.5836,0.562,0.5248,0.4626,0.4513,0.4228,0.3686,0.3366,0.0,0.2504,0.2038,0.15,0.0895,0.0426,-0.0164,-0.0908,-0.156,-0.2148,-0.2635,-0.2663,-0.2742,-0.285,-0.2986,-0.3152,-0.3304,-0.329,-0.3375,-0.3467,-0.355,-0.3432,-0.3285,-0.3285,-0.3047,-0.2749,-0.2565,-0.2129,-0.1642,-0.1319,-0.0804,-0.028,0.0,0.0,0.0,0.0165,-0.0034,0.0,-0.0231,-0.0393,-0.0562,0.0,0.0,-0.0677,-0.0692,-0.0765,-0.0786,-0.0737,-0.0699,-0.0707,-0.0758,-0.0961,-0.1214,-0.1518,-0.1821,-0.2275,-0.3033,-0.3185,-0.3384,-0.3934,-0.4236,-0.4423,-0.4558,-0.4818,-0.5012,-0.5049,-0.5026,-0.5031,-0.5031,-0.5145,-0.5347,-0.5593,-0.6089,-0.6239,-0.5942,-0.6237,-0.6337,-0.6337,-0.6337,-0.6401,-0.6449,-0.5275,-0.4987,-0.533,-0.5688,-0.6007,-0.6418,-0.6998,-0.7343,-0.7567,-0.844,-0.8798,-0.8965,0.0,0.0,0.0,0.0,0.0,0.0,0.0,0.0,0.0,0.0,0.0,0.0,0.0,0.635,0.6007,0.5805,0.5492,0.5145,0.4753,0.4495,0.4166,0.3722,0.3369,0.3015,0.264,0.2219,0.1681,0.103,0.056,-0.014,-0.1034,-0.1636,-0.2276,-0.2965,-0.3193,-0.3413,-0.3635,-0.4031,-0.4234,-0.431,-0.4542,-0.4752,-0.4943,-0.4971,-0.5094,-0.5243,-0.5118,-0.4926,-0.4685,-0.4221,-0.3763,-0.3224,0.0,0.0,-0.144,-0.0762,-0.055,-0.0482,0.0,0.0,0.0,-0.0743,-0.0862,-0.0989,-0.1014,-0.1188,-0.1326,-0.1355,-0.1531,-0.1709,-0.1683,-0.1187,-0.0909,-0.1263,-0.1415,-0.1667,-0.2271,-0.2624,-0.2925,-0.3379,-0.3932,-0.4284,-0.4483,-0.4937,-0.5102,-0.4987,-0.509,-0.5052,-0.493,-0.4902,-0.4936,-0.5141,-0.5356,-0.5737,-0.6342,-0.6739,-0.6889,-0.6789,-0.6889,-0.6936,-0.6939,-0.7027,-0.7244,-0.7443,-0.7067,-0.6796,-0.6631,-0.6736,-0.7118,-0.7657,-0.8094,-0.8453,-0.8801,-0.9239,-0.96,-0.9812,0.0,0.0,0.0,0.0,0.0,0.0,0.0,0.0,0.0,0.7168,0.0,0.0,0.0,0.0,0.5808,0.5574,0.5254,0.4954,0.4648,0.4429,0.4118,0.3682,0.3372,0.3015,0.264,0.2219,0.1681,0.103,0.0514,-0.0185,-0.1089,-0.1726,-0.2417,-0.3162,-0.3671,-0.4076,-0.4376,-0.488,-0.5214,-0.5408,-0.5881,-0.6215,-0.6472,-0.6731,-0.6933,-0.7017,-0.6949,-0.681,-0.652,-0.601,-0.5541,-0.5016,0.0,0.0,0.0,0.0,0.0,0.0,-0.1207,0.0,0.0,0.0,-0.1421,-0.1509,-0.1598,-0.1791,-0.1949,-0.2008,-0.2201,-0.2392,-0.2424,-0.193,-0.1589,-0.1799,-0.2012,-0.2323,-0.2876,-0.3331,-0.3682,-0.3981,-0.4533,-0.4985,-0.5085,-0.5386,-0.5536,-0.5338,-0.5338,-0.5238,-0.4937,-0.5035,-0.5188,-0.5441,-0.5737,-0.6189,-0.6795,-0.7241,-0.7487,-0.7487,-0.7633,-0.7759,-0.7862,-0.7963,-0.8213,-0.8463,-0.8569,-0.8295,-0.7765,-0.7868,-0.8217,-0.8723,-0.9001,-0.9286,-0.9544,-0.9871,-1.0143,-1.0472,0.0,0.0,0.0,0.0,0.0,0.0,0.0,0.0,0.7214,0.7085,0.0,0.0,0.0,0.0,0.0,0.5106,0.4902,0.4648,0.432,0.4272,0.4078,0.36,0.3328,0.297,0.2504,0.2038,0.15,0.0895,0.0291,-0.0343,-0.1024,-0.1904,-0.2643,-0.3245,-0.4123,-0.4717,-0.5067,-0.5534,-0.6066,-0.6606,-0.7353,-0.7797,-0.8079,-0.8847,-0.8941,-0.8639,-0.8816,-0.8634,-0.8276,-0.7926,-0.7478,-0.6899,0.0,0.0,0.0,0.0,0.0,0.0,0.0,0.0,0.0,0.0,0.0,0.0,-0.2371,0.0,-0.2462,-0.2621,-0.2735,-0.2815,-0.2816,-0.2962,-0.287,-0.2437,-0.2836,-0.3228,-0.3228,-0.3934,-0.4537,-0.4786,-0.5087,-0.5338,-0.5586,-0.5636,-0.5634,-0.5636,-0.5636,-0.5486,-0.524,-0.5489,-0.5737,-0.5992,-0.6287,-0.6539,-0.6842,-0.764,-0.8041,-0.8045,-0.8535,-0.8918,-0.9086,-0.914,-0.9317,-0.962,-0.9624,-0.9305,-0.8824,-0.9094,-0.9291,-0.9489,-0.9706,-0.9816,-0.9871,-1.0202,-1.0472,-1.0747,0.0,0.0,0.0,0.0,0.0,0.7031,0.6588,0.6431,0.6354,0.0,0.0,0.0,0.6016,0.5421,0.4953,0.4681,0.4445,0.4202,0.4012,0.3877,0.3653,0.3328,0.3109,0.2796,0.2368,0.1994,0.1456,0.076,0.0246,-0.0434,-0.131,-0.2078,-0.2847,-0.3612,-0.4419,-0.5256,-0.6037,-0.6422,-0.7085,-0.7911,-0.853,-0.9269,-1.0048,-1.052,-1.0892,-1.1202,-1.1357,-1.123,-1.0887,-1.0399,-0.9697,-0.8721,0.0,0.0,0.0,0.0,0.0,0.0,-0.2882,0.0,0.0,0.0,0.0,0.0,0.0,0.0,-0.3235,-0.3378,-0.3479,-0.3526,-0.3583,-0.3765,-0.3835,-0.3718,-0.3547,-0.3611,-0.4203,-0.4499,-0.4937,-0.5589,-0.5887,-0.6189,-0.6442,-0.6637,-0.6587,0.0,-0.6187,-0.5987,-0.5536,-0.5739,-0.5989,-0.6287,-0.6736,-0.7188,-0.764,-0.8088,-0.8442,-0.8809,-0.8957,-0.9097,-0.9317,-0.9639,-0.9955,-1.0267,-1.0558,-1.0724,-1.0724,-0.9964,-0.9936,-1.0363,-1.0417,-1.0692,-1.1131,-1.1185,-1.1295,-1.135,0.0,0.0,0.0,0.0,0.0,0.6223,0.5805,0.5673,0.5618,0.0,0.0,0.0,0.5367,0.4875,0.4472,0.4309,0.3969,0.3727,0.3618,0.342,0.3189,0.2926,0.2682,0.2393,0.2014,0.1679,0.121,0.0583,0.0,-0.0679,-0.1418,-0.2258,-0.3077,-0.3817,-0.4685,-0.5677,-0.6773,-0.7369,-0.8087,-0.8936,-0.972,-1.0615,-1.155,-1.2092,-1.2538,-1.2959,-1.33,-1.3121,-1.2725,-1.2397,-1.1388,-1.001,0.0,0.0,0.0,0.0,0.0,0.0,0.0,0.0,0.0,0.0,0.0,0.0,-0.3533,-0.3695,-0.3858,-0.4035,-0.4146,-0.4209,-0.4311,-0.4455,-0.4613,-0.4656,-0.4441,-0.4426,-0.4728,-0.5081,-0.5525,-0.6067,-0.6418,-0.6781,-0.7083,-0.7188,-0.7135,-0.6933,-0.6786,-0.6587,-0.6284,-0.6289,-0.6489,-0.6883,-0.7338,-0.7739,-0.8187,-0.8746,-0.9179,-0.9431,-0.976,-0.9995,-1.0176,-1.0433,-1.0679,-1.097,-1.1352,-1.1564,-1.1732,-1.1131,-1.0966,-1.1076,-1.1076,-1.1295,-1.1623,-1.1623,-1.1678,-1.1787,0.0,0.0,0.6344,0.5973,0.5677,0.5371,0.5042,0.4987,0.4932,0.0,0.4787,0.4736,0.4605,0.4271,0.3997,0.3872,0.3414,0.3105,0.3058,0.284,0.262,0.2389,0.2138,0.1842,0.15,0.1186,0.0807,0.0314,-0.0403,-0.1009,-0.1513,-0.2503,-0.3346,-0.4053,-0.4992,0.0,-0.7339,-0.8344,-0.9171,-0.9894,-1.0947,-1.1937,-1.2822,-1.3689,-1.4089,-1.4299,-1.4915,-1.4776,-1.4273,-1.4075,-1.2772,-1.1135,-1.0287,-0.9074,0.0,0.0,-0.6103,0.0,0.0,0.0,0.0,0.0,-0.4033,0.0,-0.4226,-0.4282,-0.4322,-0.458,-0.4723,-0.4809,-0.4934,-0.5098,-0.5221,-0.5331,-0.5462,-0.537,-0.5057,-0.5583,-0.6111,-0.6378,-0.6782,-0.7213,-0.7622,-0.7502,-0.7462,-0.7657,-0.7425,-0.7238,-0.7288,-0.7042,-0.7138,-0.768,-0.7935,-0.8244,-0.8556,-0.9501,-1.0006,-1.0047,-1.0733,-1.1129,-1.1376,-1.1425,-1.1518,-1.1787,-1.2005,-1.2114,-1.2169,-1.2387,-1.2223,-1.1732,-1.1732,-1.1787,-1.1787,-1.1787,-1.1951,-1.2169,0.0,0.5959,0.55,0.5317,0.5046,0.4715,0.427,0.4215,0.4159,0.4045,0.4018,0.3962,0.3821,0.3409,0.3102,0.2968,0.2422,0.2089,0.2064,0.183,0.1653,0.1532,0.1482,0.1273,0.0874,0.0716,0.0336,-0.0246,-0.0761,-0.1366,-0.2069,-0.2971,-0.3818,-0.4669,-0.5724,-0.6769,-0.7865,-0.9278,-1.0548,-1.1655,-1.2318,-1.3215,-1.4336,-1.5518,-1.6048,-1.6351,-1.7035,-1.7079,-1.6633,-1.5612,-1.4302,-1.2919,-1.1814,-1.0658,-0.9412,-0.8343,0.0,0.0,0.0,0.0,0.0,0.0,-0.4872,0.0,-0.4763,-0.4729,-0.4737,-0.49,-0.5046,-0.5192,-0.53,-0.5528,-0.5743,-0.5771,-0.5988,-0.6047,-0.5833,-0.6016,-0.6453,-0.7196,-0.7357,-0.7601,-0.8098,-0.8268,-0.8247,-0.8091,-0.7714,-0.7633,-0.7839,-0.7584,-0.7683,-0.823,-0.8478,-0.8938,-0.9579,-1.0015,-1.0497,-1.1014,-1.1159,-1.1438,-1.1892,-1.2109,-1.2349,-1.2659,-1.2935,-1.3044,-1.3044,-1.3098,-1.2935,-1.2663,-1.2663,-1.2772,-1.2989,-1.2989,-1.2989,-1.3044,0.5723,0.5171,0.4704,0.4574,0.4328,0.4024,0.3605,0.3549,0.3466,0.3272,0.3188,0.3067,0.2829,0.2454,0.2108,0.1887,0.1422,0.1114,0.1008,0.0822,0.0675,0.0662,0.0588,0.0433,0.0208,0.0046,-0.0274,-0.0738,-0.1297,-0.1893,-0.2564,-0.3404,-0.4361,-0.5432,-0.6356,-0.7571,-0.904,-1.0189,-1.1701,-1.3344,-1.3694,-1.4494,-1.5583,-1.6829,-1.7442,-1.778,-1.8559,-1.8606,-1.8133,-1.713,-1.5932,-1.47,-1.3514,-1.2351,-1.1176,-0.9871,-0.9075,-0.8419,0.0,0.0,0.0,-0.6048,-0.5694,0.0,0.0,-0.5272,-0.5232,-0.5359,-0.5489,-0.5567,-0.569,-0.585,-0.5974,-0.6097,-0.6218,-0.6308,-0.6293,-0.6463,-0.6781,-0.7286,-0.7643,-0.8037,-0.8486,-0.8699,-0.8752,-0.8602,-0.8367,-0.8311,-0.8465,-0.8439,-0.8581,-0.8981,-0.9274,-0.9705,-1.0294,-1.0846,-1.13,-1.1757,-1.2131,-1.2396,-1.2659,-1.2772,-1.2985,-1.3315,-1.3635,-1.3797,-1.3959,-1.4067,-1.4067,-1.3905,-1.3478,-1.3478,-1.3743,-1.3743,-1.3743,-1.3743,0.4959,0.4401,0.3959,0.3855,0.3608,0.3304,0.2963,0.2935,0.2805,0.2486,0.2291,0.2031,0.1655,0.1304,0.0928,0.0614,0.0205,-0.0085,-0.0256,-0.0379,-0.0443,-0.0437,-0.0514,-0.058,-0.0625,-0.0818,-0.1066,-0.1399,-0.1967,-0.2544,-0.3152,-0.3953,-0.5004,-0.6257,-0.6997,-0.8397,-1.025,-1.1252,-1.2855,-1.4784,-1.5393,-1.6084,-1.6923,-1.8075,-1.8765,-1.9191,-1.9852,-1.9778,-1.922,-1.8624,-1.7538,-1.6335,-1.5265,-1.4141,-1.292,-1.1573,-1.0653,0.0,0.0,0.0,0.0,0.0,-0.6618,-0.6239,0.0,0.0,0.0,-0.5868,0.0,0.0,0.0,0.0,0.0,-0.6311,0.0,0.0,0.0,-0.6801,0.0,-0.7266,-0.7757,-0.8293,-0.8778,-0.9042,-0.92,-0.927,-0.9127,-0.9076,-0.9208,-0.925,-0.9444,-0.9723,-1.0068,-1.0477,-1.0917,-1.1686,-1.2154,-1.2399,-1.3014,-1.3369,-1.3472,-1.3472,-1.364,-1.3964,-1.4277,-1.4546,-1.4761,-1.5035,-1.5196,-1.5143,-1.4288,-1.4175,-1.4433,-1.4433,-1.4487,-1.4546,0.4079,0.363,0.3213,0.3213,0.2968,0.2689,0.2352,0.2294,0.2093,0.1543,0.1197,0.0798,0.0275,-0.0184,-0.0582,-0.0923,-0.1527,-0.1915,-0.1915,-0.2054,-0.2082,-0.1963,-0.1851,-0.1797,-0.1802,-0.195,-0.2148,-0.2438,-0.2906,-0.3438,-0.3971,-0.4725,-0.5748,-0.7007,-0.7877,-0.924,-1.1006,-1.2755,-1.4284,-1.5759,-1.7793,-1.8571,-1.863,-1.9585,-2.0343,-2.0923,-2.1157,-2.0678,-1.9956,-1.9913,-1.8845,-1.7529,-1.7057,-1.5811,-1.4394,-1.3525,-1.2357,-1.1245,-1.06,-0.973,-0.8896,-0.8475,-0.7851,-0.7261,-0.6929,0.0,-0.6288,-0.6165,0.0,0.0,0.0,0.0,0.0,0.0,0.0,0.0,-0.661,-0.6792,-0.708,-0.7601,-0.7713,-0.8036,-0.8835,-0.9443,-0.995,-1.0311,-0.9897,-0.9797,-1.0214,-0.9853,-0.9841,-1.031,-1.0801,-1.1288,-1.1784,-1.2272,-1.275,-1.3171,-1.3251,-1.3581,-1.4116,-1.4116,-1.439,-1.488,-1.519,-1.5345,-1.5405,-1.5672,-1.5945,-1.6057,-1.5196,-1.5083,-1.5345,-1.5345,-1.5512,-1.5731,0.338,0.2991,0.2573,0.2573,0.2294,0.1987,0.1709,0.1368,0.0955,0.0381,0.003,-0.0461,-0.1159,-0.1714,-0.2293,-0.2941,-0.344,-0.3745,-0.3806,-0.3843,-0.3737,-0.3487,-0.3304,-0.3147,-0.2999,-0.312,-0.3261,-0.3418,-0.3795,-0.4292,-0.486,-0.5418,-0.6438,-0.7883,-0.8806,-1.0296,-1.2218,-1.3976,-1.5671,-1.7294,-1.9012,-2.0207,-2.0967,-2.109,-2.1631,-2.2335,-2.2656,-2.2253,-2.1598,-2.1362,-2.0539,-1.936,-1.8432,-1.7507,-1.6496,-1.5176,-1.4146,-1.3271,-1.2374,-1.1558,-1.0755,-0.9995,-0.9312,-0.8639,-0.7977,-0.7466,-0.7103,-0.6885,0.0,0.0,0.0,0.0,0.0,0.0,-0.6679,0.0,0.0,0.0,-0.7019,-0.7487,0.0,0.0,-0.9374,-0.9746,-1.0116,-1.0691,-1.0539,-1.0486,-1.0697,-1.0749,-1.0829,-1.0869,-1.1376,-1.1895,-1.2282,-1.2854,-1.3346,-1.3846,-1.4121,-1.4444,-1.4659,-1.4869,-1.5137,-1.5517,-1.5838,-1.6158,-1.6477,-1.659,-1.6796,-1.7008,-1.663,-1.6358,-1.6199,-1.6418,-1.6583,-1.6696,0.2462,0.0,0.1961,0.1961,0.1624,0.1235,0.0879,0.0319,-0.0266,-0.0811,-0.1299,-0.1926,-0.2696,-0.3406,-0.4099,-0.4833,-0.5262,-0.5576,-0.5738,-0.5697,-0.5546,-0.5247,-0.5032,-0.4795,-0.449,-0.4542,-0.46,-0.4665,-0.4902,-0.5302,-0.5829,-0.6259,-0.7258,-0.8745,-0.9739,-1.1372,-1.3471,-1.5101,-1.6937,-1.883,-2.0104,-2.1598,-2.3123,-2.2679,-2.29,-2.3441,-2.3863,-2.3677,-2.3144,-2.2922,-2.2201,-2.1256,-2.0163,-1.9376,-1.8598,-1.7017,-1.6087,-1.5319,-1.4383,-1.3435,-1.2563,-1.1765,-1.0926,-1.0094,-0.9237,-0.8649,-0.818,-0.7859,-0.7636,0.0,0.0,0.0,0.0,0.0,0.0,-0.6819,0.0,-0.6881,0.0,0.0,0.0,0.0,0.0,-1.0012,-1.0376,-1.0914,-1.1069,-1.1176,-1.1188,-1.1589,-1.1728,-1.1557,-1.2009,-1.249,-1.2946,-1.347,-1.3967,-1.4439,-1.4928,-1.5196,-1.525,-1.5565,-1.5945,-1.6264,-1.653,-1.6961,-1.7437,-1.749,-1.7641,-1.7845,-1.7898,-1.7681,-1.7305,-1.7378,-1.749,-1.7543,0.115,0.1262,0.1319,0.1319,0.101,0.0481,-0.0233,-0.0851,-0.147,-0.2067,-0.289,-0.3681,-0.4439,-0.5332,-0.6065,-0.6393,-0.6959,-0.742,-0.7597,-0.7597,-0.7523,-0.7321,-0.7121,-0.6836,-0.6506,-0.6374,-0.6331,-0.6322,-0.6321,-0.6524,-0.6875,-0.74,-0.8308,-0.9512,-1.0666,-1.2422,-1.4632,-1.6119,-1.8043,-2.0156,-2.1343,-2.3046,-2.4798,-2.4509,-2.4316,-2.4227,-2.4709,-2.4674,-2.4414,-2.445,-2.3863,-2.3052,-2.2532,-2.1556,-2.0403,-1.9326,-1.8225,-1.7239,-1.6588,-1.5357,-1.4138,-1.3777,-1.2654,-1.1454,-1.0784,-1.0144,-0.9595,-0.9124,-0.8767,-0.8503,0.0,0.0,0.0,0.0,0.0,0.0,0.0,0.0,0.0,0.0,0.0,0.0,0.0,-1.0244,-1.0866,-1.1062,-1.1584,-1.1853,-1.186,-1.2204,-1.2352,-1.2362,-1.2833,-1.333,-1.3862,-1.4123,-1.4533,-1.4982,-1.5298,-1.5618,-1.5891,-1.6164,-1.659,-1.7179,-1.743,-1.7694,-1.7964,-1.8272,-1.837,-1.8422,-1.8677,-1.8774,-1.867,-1.8167,-1.8115,-1.837,0.0,0.0,0.028,0.0645,0.0196,-0.0538,-0.1462,-0.2128,-0.2843,-0.3607,-0.4453,-0.5373,-0.6522,-0.7286,-0.8101,-0.8985,-0.9397,-0.9583,-0.9622,-0.9601,-0.9392,-0.8883,-0.8707,-0.8435,-0.7991,-0.7919,-0.7782,-0.7602,-0.7758,-0.7972,-0.8228,-0.8718,-0.9434,-1.0361,-1.1637,-1.3142,-1.4888,-1.703,-1.8911,-2.0713,-2.3133,-2.4691,-2.5583,-2.5785,-2.5839,-2.5854,-2.6258,-2.618,-2.5879,-2.5879,-2.5381,-2.469,-2.4088,-2.3327,-2.2393,-2.1296,-2.0301,-1.9462,-1.8795,-1.7761,-1.6739,-1.6196,-1.4991,-1.3705,-1.2806,-1.1973,-1.1198,-1.0513,-1.008,-0.9775,0.0,0.0,0.0,0.0,0.0,0.0,0.0,0.0,0.0,0.0,0.0,0.0,0.0,-0.9998,-1.0678,-1.1602,-1.1948,-1.2215,-1.254,-1.2826,-1.3049,-1.313,-1.3432,-1.3996,-1.4689,-1.4937,-1.536,-1.5844,-1.6152,-1.6471,-1.6749,-1.706,-1.7378,-1.7753,-1.801,-1.8429,-1.8855,-1.8959,-1.9212,-1.9509,-1.9613,-1.9799,-1.9941,-1.9579,-1.9533,-1.9669,-0.0309,-0.0533,-0.0561,-0.0084,-0.0792,-0.1735,-0.2683,-0.3539,-0.4371,-0.5196,-0.6159,-0.7187,-0.8306,-0.9058,-0.9852,-1.0791,-1.11,-1.1282,-1.1304,-1.1401,-1.1239,-1.0803,-1.0595,-1.0315,-1.0001,-0.9739,-0.9482,-0.927,-0.9356,-0.9408,-0.9463,-0.9867,-1.0431,-1.1189,-1.2561,-1.4007,-1.5575,-1.7859,-1.9767,-2.1491,-2.4533,-2.6077,-2.6621,-2.7253,-2.7214,-2.6898,-2.7311,-2.7338,-2.7087,-2.7087,-2.6681,-2.6117,-2.5601,-2.4978,-2.4213,-2.324,-2.2464,-2.1791,-2.0944,-2.0046,-1.9119,-1.83,-1.7067,-1.581,-1.4928,-1.4026,-1.3119,-1.2331,-1.1836,-1.141,0.0,0.0,0.0,0.0,0.0,0.0,0.0,-0.8229,0.0,0.0,0.0,0.0,0.0,-1.0027,-1.0712,-1.1735,-1.227,-1.2665,-1.2844,-1.3439,-1.3767,-1.3849,-1.4132,-1.462,-1.5345,-1.5645,-1.603,-1.6445,-1.6903,-1.7272,-1.749,-1.774,-1.8062,-1.8338,-1.8586,-1.9004,-1.9428,-1.9532,-1.9783,-2.0138,-2.0189,-2.0448,-2.0695,-2.0431,-2.0408,-2.0597,-0.099,-0.1181,-0.1294,-0.0929,-0.1932,-0.3062,-0.398,-0.5,-0.5985,-0.6813,-0.7956,-0.9013,-0.9846,-1.0684,-1.137,-1.1784,-1.2178,-1.2498,-1.2684,-1.2923,-1.304,-1.2984,-1.2655,-1.2467,-1.2402,-1.1844,-1.1448,-1.1329,-1.1031,-1.0819,-1.0624,-1.0879,-1.1353,-1.2041,-1.342,-1.4968,-1.6659,-1.8685,-2.0615,-2.261,-2.5543,-2.7138,-2.7817,-2.8756,-2.8416,-2.7473,-2.7921,-2.8081,-2.8081,-2.8034,-2.7736,-2.7317,-2.7129,-2.6574,-2.5823,-2.5166,-2.4658,-2.4068,-2.3028,-2.2149,-2.1265,-2.0159,-1.8843,-1.7703,-1.7063,-1.6221,-1.5338,-1.4573,-1.4046,-1.342,-1.2653,0.0,0.0,0.0,0.0,0.0,0.0,0.0,-0.8883,0.0,-0.893,0.0,0.0,-1.0309,-1.0991,-1.1486,-1.2564,-1.3084,-1.2849,-1.3947,-1.4578,-1.4532,-1.4876,-1.531,-1.583,-1.6192,-1.6493,-1.6749,-1.7612,-1.8016,-1.8069,-1.8325,-1.8646,-1.8974,-1.9227,-1.948,-1.9783,-2.0034,-2.013,-2.0189,-2.0426,-2.0747,-2.1051,-2.0794,-2.091,-2.1201,-0.1862,-0.2293,-0.2805,-0.3285,-0.3588,-0.4142,-0.5373,-0.6315,-0.7345,-0.8644,-0.9601,-1.0604,-1.1806,-1.2479,-1.3057,-1.3642,-1.3786,-1.3947,-1.4093,-1.416,-1.4146,-1.4093,-1.4,-1.3927,-1.3874,-1.346,-1.3187,-1.3074,-1.2601,-1.2335,-1.2282,-1.2312,-1.2621,-1.3198,-1.4094,-1.5486,-1.7207,-1.9137,-2.1798,-2.4876,-2.6319,-2.7431,-2.8261,-2.8894,-2.9039,-2.894,-2.9061,-2.9117,-2.9071,-2.8885,-2.8623,-2.8375,-2.8118,-2.7544,-2.6855,-2.6339,-2.5832,-2.5333,-2.4681,-2.39,-2.3115,-2.2443,-2.1239,-1.9937,-1.912,-1.8434,-1.7616,-1.6573,-1.613,-1.5632,-1.4604,-1.3835,0.0,0.0,0.0,0.0,0.0,0.0,0.0,-0.9439,0.0,0.0,-1.0143,-1.045,-1.1044,-1.2009,-1.2732,-1.3232,-1.3455,-1.4245,-1.4819,-1.5098,-1.5506,-1.6032,-1.6599,-1.6987,-1.7358,-1.7668,-1.8126,-1.8436,-1.866,-1.8966,-1.922,-1.9532,-1.9783,-2.0042,-2.0308,-2.0359,-2.0514,-2.0735,-2.1055,-2.1581,-2.2103,-2.2048,-2.2222,-2.2521,-0.2825,-0.3294,-0.4065,-0.5154,-0.5531,-0.5962,-0.6776,-0.7979,-0.9191,-1.0263,-1.1254,-1.2357,-1.3528,-1.4011,-1.4509,-1.524,-1.5405,-1.5504,-1.5542,-1.5738,-1.5865,-1.5793,-1.5612,-1.5566,-1.5701,-1.5235,-1.4876,-1.4673,-1.4342,-1.4024,-1.3704,-1.3635,-1.3851,-1.4253,-1.4981,-1.6208,-1.7839,-2.0372,-2.3267,-2.6121,-2.6864,-2.7775,0.0,-2.9258,-2.9554,-2.968,-2.976,-2.9669,-2.9519,-2.9615,-2.946,-2.9305,-2.9325,-2.891,-2.831,-2.7846,-2.7358,-2.6832,-2.6023,-2.5371,-2.475,-2.4088,-2.3115,-2.2074,-2.1264,-2.0527,-1.9757,-1.8758,-1.8344,-1.7879,-1.6808,-1.5956,0.0,0.0,0.0,0.0,0.0,0.0,0.0,0.0,-1.0397,-1.0637,-1.1103,-1.0962,-1.1262,-1.2342,-1.2987,-1.3429,-1.3739,-1.4717,-1.534,-1.5517,-1.613,-1.6616,-1.7035,-1.771,-1.8138,-1.8318,-1.8876,-1.9257,-1.9428,-1.9576,-1.9732,-1.9879,-2.0145,-2.0351,-2.0522,-2.0624,-2.0771,-2.0972,-2.1473,-2.2005,-2.2506,-2.2656,-2.2847,-2.3014,-0.386,-0.4384,-0.5261,-0.6616,-0.7541,-0.8171,-0.8436,-0.9827,-1.1098,-1.1809,-1.2936,-1.4035,-1.4964,-1.5376,-1.5864,-1.658,-1.6831,-1.6963,-1.6963,-1.735,-1.762,-1.7664,-1.7275,-1.7269,-1.7704,-1.705,-1.658,-1.6295,-1.6122,-1.5687,-1.4985,-1.4889,-1.497,-1.5245,-1.5951,-1.7176,-1.8911,-2.1961,-2.4598,-2.677,-2.7259,-2.813,-2.922,-2.9703,-2.9931,-2.9977,-3.0217,-3.0045,-2.9746,-3.0206,-3.0209,-3.0152,-3.0504,-3.0285,-2.9808,-2.9322,-2.8903,-2.8315,-2.716,-2.6641,-2.6201,-2.5297,-2.4623,-2.3957,-2.3275,-2.2538,-2.1749,-2.0869,-2.0484,-2.0011,-1.8948,-1.7969,0.0,0.0,0.0,0.0,0.0,0.0,0.0,0.0,0.0,0.0,-1.2113,-1.1605,-1.1641,-1.2573,-1.3292,-1.3717,-1.385,-1.5247,-1.5988,-1.5857,-1.6684,-1.7209,-1.7342,-1.8321,-1.8784,-1.8841,-1.9707,-2.0078,-2.0078,-2.0138,-2.0138,-2.0189,-2.0462,-2.0565,-2.0565,-2.0822,-2.0972,-2.1175,-2.1881,-2.2407,-2.2704,-2.3015,-2.3127,-2.3127,-0.5236,-0.5919,-0.6744,-0.7623,-0.9165,-1.0512,-1.1319,-1.1598,-1.2137,-1.3413,-1.4479,-1.5362,-1.5995,-1.6667,-1.7157,-1.7306,-1.7569,-1.7779,-1.7945,-1.8032,-1.8248,-1.8646,-1.8555,-1.8752,-1.9185,-1.8617,-1.836,-1.8461,-1.7334,-1.6748,-1.6592,-1.5911,-1.5849,-1.6344,-1.6862,-1.8668,-2.1436,-2.2851,-2.4787,-2.6972,-2.747,-2.8355,-2.9439,-2.9783,-3.0011,-3.0194,-3.0675,-3.0835,-3.0696,-3.0578,-3.0801,-3.1078,-3.0711,-3.054,-3.0372,-2.9846,-2.9618,-2.9353,-2.8363,-2.789,-2.7404,-2.6278,-2.5744,-2.5249,-2.4398,-2.4105,-2.3632,-2.2387,-2.2085,-2.1683,-2.0454,-1.9144,-1.7723,0.0,0.0,-1.4658,-1.3644,0.0,0.0,0.0,0.0,-1.2036,-1.2406,-1.2206,-1.2314,-1.2895,-1.3582,-1.4024,-1.4057,-1.5445,-1.6229,-1.6209,-1.7297,-1.7941,-1.7962,-1.8871,-1.938,-1.9388,-1.9867,-2.0078,-2.0138,-2.0351,-2.0411,-2.0462,-2.0719,-2.0822,-2.0822,-2.0873,-2.1414,-2.2188,-2.2887,-2.339,-2.3663,-2.3728,-2.3745,-2.3697,-0.7198,-0.7664,-0.8381,-0.9516,-1.0719,-1.2085,-1.3694,-1.4152,-1.4475,-1.5068,-1.6061,-1.6935,-1.7501,-1.7902,-1.8261,-1.8551,-1.8783,-1.8998,-1.9079,-1.9337,-1.9611,-1.9832,-1.9861,-2.0051,-2.0352,-2.0029,-1.9813,-1.9676,-1.892,-1.8375,0.0,-1.7539,-1.7499,-1.7891,-1.8935,-2.0482,-2.2385,-2.3841,-2.5423,-2.7071,-2.7922,-2.8757,-2.9531,-2.9909,-3.0308,-3.0663,-3.0928,-3.1352,-3.1777,-3.1622,-3.1638,-3.1754,-3.1609,-3.1489,-3.1186,-3.0575,-3.0262,-3.0005,-2.9336,-2.8817,-2.8317,-2.7533,-2.7034,-2.6479,-2.5605,-2.5278,-2.4914,-2.4091,-2.3918,-2.3428,-2.191,-2.0505,-1.9136,-1.776,-1.6993,-1.6186,-1.5171,-1.4606,-1.4113,0.0,0.0,0.0,0.0,-1.3511,-1.3428,-1.3197,-1.3855,-1.4321,-1.4518,-1.5944,-1.672,-1.6615,-1.7921,-1.8516,-1.83,-1.9505,-2.0119,-2.0127,-2.0676,-2.0952,-2.0952,-2.1062,-2.1121,-2.1121,-2.1275,-2.1318,-2.1334,-2.1528,-2.2022,-2.2679,-2.3165,-2.3591,-2.3921,-2.3921,-2.4033,-2.4097,-0.9224,-0.9556,-1.0158,-1.1471,-1.2419,-1.3631,-1.5561,-1.6581,-1.6998,-1.6661,-1.7544,-1.8389,-1.8799,-1.9031,-1.9339,-1.9783,-2.0027,-2.0147,-2.0147,-2.0564,-2.0915,-2.1048,-2.1149,-2.133,-2.1583,-2.1451,-2.118,-2.0827,-2.0438,-1.9985,-1.9457,0.0,-1.9145,-1.9524,-2.0964,-2.2148,-2.3188,-2.4712,-2.6077,-2.7323,-2.8343,-2.9138,-2.97,-3.0205,-3.0709,-3.1192,-3.1283,-3.1775,-3.2452,-3.2566,-3.2453,-3.2286,-3.247,-3.228,-3.1898,-3.126,-3.091,-3.0601,-3.0076,-2.9639,-2.9176,-2.8673,-2.8216,-2.7657,-2.6693,-2.633,-2.6,-2.543,-2.5249,-2.4706,-2.3163,-2.2012,-2.0801,-1.9345,-1.8601,-1.7885,-1.6821,-1.6309,-1.5822,0.0,0.0,0.0,-1.472,-1.4853,-1.4577,-1.3774,-1.4281,-1.4778,-1.5057,-1.6482,-1.7247,-1.7144,-1.854,-1.9196,-1.9053,-2.0234,-2.0895,-2.0978,-2.147,-2.1725,-2.1725,-2.1725,-2.1725,-2.1725,-2.1725,-2.1775,-2.1874,-2.2297,-2.2714,-2.3071,-2.3507,-2.3886,-2.4089,-2.4089,-2.4264,-2.4432,-1.0842,-1.1482,-1.2157,-1.2897,-1.4428,-1.583,-1.6665,-1.814,-1.8869,-1.8097,-1.8756,-1.9287,-1.932,-2.0026,-2.052,-2.0609,-2.0781,-2.0907,-2.0907,-2.1159,-2.1599,-2.2227,-2.2427,-2.2717,-2.3159,-2.2978,-2.2793,-2.2577,-2.157,-2.1048,-2.0986,-2.0183,-2.0233,-2.1026,-2.2025,-2.3293,-2.4724,-2.5326,-2.6487,-2.7981,-2.8578,-2.9351,-3.0285,-3.0753,-3.126,-3.1802,-3.219,-3.2262,-3.2215,-3.2703,-3.2862,-3.2773,-3.2594,-3.228,-3.1964,-3.1615,-3.1502,-3.1353,-3.0622,-3.0393,-3.0124,-2.9197,-2.8932,-2.8598,-2.767,-2.7459,-2.7117,-2.599,-2.546,-2.4897,-2.3928,-2.3657,-2.3018,-2.132,-2.0625,-1.9908,-1.8721,-1.7889,-1.7242,-1.6848,0.0,0.0,-1.5705,-1.5703,-1.5493,-1.5045,-1.5241,-1.5476,-1.5695,-1.682,-1.7643,-1.7988,-1.9132,-2.0104,-2.0855,-2.119,-2.1545,-2.1904,-2.1745,-2.1725,-2.1725,-2.1725,-2.1725,-2.1725,-2.1725,-2.1915,-2.227,-2.2934,-2.3409,-2.3787,-2.4395,-2.4676,-2.471,-2.471,-2.4765,-2.4765,-1.2921,-1.3348,-1.3947,-1.4847,-1.5789,-1.6887,-1.8216,-1.9131,-1.97,-1.9857,-2.0181,-2.0365,-2.0365,-2.0684,-2.0871,-2.0871,-2.1105,-2.1428,-2.1808,-2.2053,-2.2464,-2.314,-2.3574,-2.3859,-2.4042,-2.4285,-2.4117,-2.3632,-2.3088,-2.2594,-2.2219,-2.1755,-2.1776,-2.2259,-2.3462,-2.4388,-2.5232,-2.6378,-2.7289,-2.8102,-2.9061,-2.9689,-3.0114,-3.0726,-3.1287,-3.175,-3.1931,-3.2142,-3.2385,-3.2588,-3.2667,-3.2606,-3.2291,-3.2128,-3.1975,-3.1669,-3.1618,-3.1534,-3.1237,-3.104,-3.078,-3.0084,-2.9666,-2.9239,-2.858,-2.8328,-2.7955,-2.7232,-2.6525,-2.5865,-2.5361,-2.4862,-2.4155,-2.3018,-2.2261,-2.1434,-2.0427,-1.9673,-1.8933,-1.8171,0.0,-1.7413,-1.6937,-1.6866,-1.683,-1.6767,-1.6298,-1.612,-1.6318,-1.7404,-1.8228,-1.8632,-1.9531,-2.0364,-2.1096,-2.1599,-2.2084,-2.2495,-2.2696,-2.2775,-2.2784,-2.285,-2.2781,-2.2535,-2.2806,-2.2866,-2.2849,-2.3547,-2.3931,-2.411,-2.4612,-2.4821,-2.4821,-2.4821,-2.4821,-2.4821,-1.4929,-1.528,-1.5771,-1.6638,-1.7279,-1.811,-1.9414,-1.9998,-2.0482,-2.1105,-2.1275,-2.1275,-2.1141,-2.1186,-2.123,-2.132,-2.1617,-2.1998,-2.2556,-2.2906,-2.3426,-2.4077,-2.4526,-2.4861,-2.5,-2.5324,-2.5224,-2.4725,-2.4428,-2.397,-2.3381,-2.3216,-2.3329,-2.3732,-2.4881,-2.5614,-2.6076,-2.7297,-2.8028,-2.8528,-2.952,-3.0068,-3.0356,-3.092,-3.1453,-3.1928,-3.1928,-3.2101,-3.2342,-3.2342,-3.2291,-3.219,-3.2066,-3.1975,-3.1874,-3.168,-3.1618,-3.1618,-3.1618,-3.1476,-3.1246,-3.0809,-3.0408,-2.9975,-2.935,-2.9055,-2.8738,-2.8038,-2.7417,-2.6832,-2.6413,-2.5803,-2.5194,-2.451,-2.3697,-2.283,-2.1967,-2.1269,-2.0517,-1.9508,-1.9268,-1.8925,-1.8321,-1.8285,-1.826,-1.823,-1.7757,-1.7361,-1.7107,-1.8096,-1.8867,-1.9245,-2.015,-2.0967,-2.1626,-2.2205,-2.2756,-2.3282,-2.3531,-2.3694,-2.3808,-2.3808,-2.3677,-2.3401,-2.3606,-2.358,-2.3485,-2.4016,-2.4299,-2.4528,-2.4812,-2.4979,-2.5034,-2.5034,-2.5034,-2.5034,-1.6676,-1.725,-1.7782,-1.8124,-1.9052,-1.9833,-2.0053,-2.0846,-2.1482,-2.1651,-2.1919,-2.1928,-2.1437,-2.1562,-2.1785,-2.2052,-2.246,-2.2784,-2.3066,-2.3731,-2.4376,-2.5039,-2.5352,-2.5691,-2.617,-2.616,-2.6074,-2.5865,-2.5385,-2.4941,-2.4487,-2.4487,-2.4843,-2.5597,-2.6292,-2.6995,-2.7696,-2.79,-2.8593,-2.9514,-2.9796,-3.0466,-3.1307,-3.1605,-3.2006,-3.2493,-3.2493,-3.228,-3.2026,-3.2026,-3.1823,-3.168,-3.1924,-3.1823,-3.1618,-3.1618,-3.1618,-3.1618,-3.1618,-3.1618,-3.1527,-3.127,-3.1167,-3.0936,-2.9946,-2.9688,-2.9375,-2.816,-2.7865,-2.7634,-2.6734,-2.6604,-2.6367,-2.5706,-2.4976,-2.4157,-2.3295,-2.2582,-2.1826,-2.0978,-2.088,-2.0597,-1.9943,-1.9866,-1.9692,-1.932,-1.9628,-1.9335,-1.8136,-1.8861,-1.9485,-1.9866,-2.1046,-2.2071,-2.2885,-2.3,-2.3507,-2.4359,-2.4112,-2.4205,-2.457,-2.4246,-2.4079,-2.4079,-2.3824,-2.3879,-2.4167,-2.4176,-2.4608,-2.5221,-2.5165,-2.5395,-2.5688,-2.5688,-2.5688,-2.5688,-1.8178,-1.8481,-1.8896,-1.9418,-1.9948,-2.0439,-2.0927,-2.1346,-2.1797,-2.2288,-2.2597,-2.2845,-2.2935,-2.2765,-2.28,-2.3174,-2.3315,-2.3597,-2.4172,-2.4551,-2.5106,-2.5729,-2.6189,-2.6543,-2.6686,-2.6866,-2.677,-2.6397,-2.6216,-2.5906,-2.5451,-2.5451,-2.5568,-2.5823,-2.6679,-2.7203,-2.7511,-2.8549,-2.9205,-2.9543,-3.0296,-3.0734,-3.1091,-3.1471,-3.1741,-3.1885,-3.1885,-3.1823,-3.1721,-3.1721,-3.1669,-3.1618,-3.1721,-3.1669,-3.1618,-3.1618,-3.1618,-3.1618,-3.1618,-3.1618,-3.1578,-3.1476,-3.1333,-3.1135,-3.0779,-3.0174,-2.9553,-2.8979,-2.8618,-2.8204,-2.7603,-2.7489,-2.7156,-2.6182,-2.5649,-2.5111,-2.439,-2.3816,-2.3304,-2.2748,-2.2277,-2.1806,-2.1287,-2.0987,-2.072,-2.0589,-2.0701,-2.0372,-1.9393,-1.9852,-2.0448,-2.1101,-2.1495,-2.2208,-2.3297,-2.366,-2.4135,-2.4683,-2.4918,-2.5165,-2.5369,-2.5252,-2.5057,-2.4774,-2.4984,-2.4965,-2.4806,-2.5114,-2.5344,-2.5569,-2.5569,-2.5624,-2.5688,-2.5688,-2.5688,-2.5688,-1.9462,-1.9705,-2.0,-2.0368,-2.0651,-2.0971,-2.1445,-2.1696,-2.2102,-2.2737,-2.3066,-2.3412,-2.3983,-2.3961,-2.3846,-2.3858,-2.4011,-2.4306,-2.4802,-2.5262,-2.5717,-2.6235,-2.6651,-2.6948,-2.7034,-2.7214,-2.7164,-2.6874,-2.6708,-2.6563,-2.6438,-2.6262,-2.6318,-2.6597,-2.7239,-2.7704,-2.8046,-2.9085,-2.9685,-3.0067,-3.0657,-3.1007,-3.1203,-3.1509,-3.1618,-3.1618,-3.1618,-3.1618,-3.1618,-3.1618,-3.1618,-3.1618,-3.1618,-3.1618,-3.1618,-3.1618,-3.1618,-3.1618,-3.1618,-3.1618,-3.1618,-3.1618,-3.1476,-3.1281,-3.1075,-3.048,-2.9857,-2.9393,-2.9073,-2.8731,-2.8266,-2.8183,-2.7847,-2.6877,-2.6526,-2.6019,-2.5176,-2.4715,-2.428,-2.3772,-2.3348,-2.2945,-2.2625,-2.2315,-2.2163,-2.2163,-2.2163,-2.1876,-2.1192,-2.1136,-2.1369,-2.1888,-2.2208,-2.2803,-2.3767,-2.418,-2.4716,-2.5286,-2.5672,-2.5955,-2.6017,-2.5907,-2.5719,-2.5504,-2.5636,-2.5546,-2.5351,-2.559,-2.5844,-2.6063,-2.6063,-2.6172,-2.6336,-2.6336,-2.6336,-2.6336,-2.0527,-2.0846,-2.1042,-2.1078,-2.1284,-2.1526,-2.1741,-2.1982,-2.2417,-2.3102,-2.336,-2.3859,-2.4678,-2.4965,-2.4904,-2.4272,-2.4543,-2.487,-2.5117,-2.5777,-2.6245,-2.6496,-2.6747,-2.7034,-2.7309,-2.7309,-2.7309,-2.7309,-2.6874,-2.6884,-2.7299,-2.6864,-2.6999,-2.7636,-2.7899,-2.8412,-2.9112,-2.9432,-3.0089,-3.0898,-3.093,-3.1214,-3.1618,-3.1618,-3.1618,-3.1618,-3.1618,-3.1618,-3.1618,-3.1618,-3.1618,-3.1618,-3.1618,-3.1618,-3.1618,-3.1618,-3.1618,-3.1618,-3.1618,-3.1618,-3.1618,-3.1618,-3.1618,-3.1476,-3.0931,-3.062,-3.0224,-2.9487,-2.9352,-2.9208,-2.8752,-2.8609,-2.8415,-2.7705,-2.7377,-2.6781,-2.5712,-2.5326,-2.4914,-2.4291,-2.4167,-2.4055,-2.3813,-2.3784,-2.3765,-2.3765,-2.3765,-2.3645,-2.3383,-2.2711,-2.2333,-2.2401,-2.3123,-2.3776,-2.4248,-2.4689,-2.5243,-2.6058,-2.6399,-2.6591,-2.6582,-2.63,-2.6127,-2.6127,-2.5852,-2.5789,-2.5789,-2.5789,-2.6118,-2.6654,-2.6654,-2.6935,-2.7377,-2.7377,-2.7377,-2.7377,-2.1328,-2.1489,-2.1642,-2.1989,-2.2122,-2.2176,-2.222,-2.2706,-2.3293,-2.3806,-2.4328,-2.4876,-2.5421,-2.5528,-2.5489,-2.5343,-2.5421,-2.5479,-2.5528,-2.6099,-2.6448,-2.6496,-2.6928,-2.7214,-2.7309,-2.7309,-2.7309,-2.7309,-2.7195,-2.7195,-2.7309,-2.7195,-2.7382,-2.7866,-2.8118,-2.8623,-2.9373,-2.9973,-3.0502,-3.093,-3.1302,-3.152,-3.1618,-3.1618,-3.1618,-3.1618,-3.1618,-3.1618,-3.1618,-3.1618,-3.1618,-3.1618,-3.1618,-3.1618,-3.1618,-3.1618,-3.1618,-3.1618,-3.1618,-3.1618,-3.1618,-3.1618,-3.1618,-3.1476,-3.0931,-3.0776,-3.0536,-2.9953,-2.9829,-2.9684,-2.9228,-2.8952,-2.8594,-2.7884,-2.7272,-2.6745,-2.6251,-2.584,-2.5489,-2.5343,-2.5032,-2.4818,-2.4771,-2.4423,-2.4229,-2.4229,-2.4229,-2.4198,-2.406,-2.4183,-2.3906,-2.3263,-2.3749,-2.4257,-2.4629,-2.5378,-2.5993,-2.6444,-2.6536,-2.6591,-2.6591,-2.6527,-2.6473,-2.6473,-2.6418,-2.6518,-2.6663,-2.6663,-2.6881,-2.7206,-2.7206,-2.7269,-2.7377,-2.7377,-2.7377,-2.7377,-2.183,-2.1963,-2.2087,-2.2353,-2.2397,-2.2441,-2.2574,-2.306,-2.3618,-2.4181,-2.4758,-2.5244,-2.5635,-2.5693,-2.5693,-2.5693,-2.5693,-2.5693,-2.5693,-2.6217,-2.6496,-2.6496,-2.7023,-2.7309,-2.7309,-2.7309,-2.7309,-2.7309,-2.7309,-2.7309,-2.7309,-2.7309,-2.7489,-2.7924,-2.8178,-2.881,-2.9753,-3.031,-3.0777,-3.1247,-3.152,-3.1618,-3.1618,-3.1618,-3.1618,-3.1618,-3.1618,-3.1618,-3.1618,-3.1618,-3.1618,-3.1618,-3.1618,-3.1618,-3.1618,-3.1772,-3.1721,-3.1618,-3.1618,-3.1618,-3.1618,-3.1618,-3.1527,-3.1333,-3.0879,-3.0724,-3.0516,-3.0099,-2.9994,-2.9869,-2.9507,-2.93,-2.895,-2.8084,-2.7441,-2.6943,-2.6466,-2.6016,-2.5762,-2.6006,-2.582,-2.5742,-2.5937,-2.5742,-2.5605,-2.5605,-2.5605,-2.546,-2.5159,-2.5377,-2.5061,-2.4125,-2.45,-2.4955,-2.5317,-2.5931,-2.6362,-2.6591,-2.6591,-2.6591,-2.6591,-2.6591,-2.6591,-2.6591,-2.6736,-2.689,-2.6989,-2.7152,-2.7368,-2.7638,-2.7755,-2.7916,-2.8023,-2.8121,-2.8174,-2.8174,-2.2141,-2.2353,-2.2485,-2.2476,-2.253,-2.2574,-2.2794,-2.3252,-2.3777,-2.4319,-2.4853,-2.5312,-2.5645,-2.5693,-2.5693,-2.5693,-2.5693,-2.5693,-2.5693,-2.6169,-2.6448,-2.6496,-2.6976,-2.7262,-2.7309,-2.7309,-2.7309,-2.7309,-2.7309,-2.7309,-2.7309,-2.7309,-2.7531,-2.8028,-2.8282,-2.9102,-3.0232,-3.0474,-3.1005,-3.1618,-3.1618,-3.1618,-3.1618,-3.1618,-3.1618,-3.1618,-3.1618,-3.1618,-3.1618,-3.1618,-3.1618,-3.1618,-3.1618,-3.1618,-3.1721,-3.1913,-3.1874,-3.1732,-3.1669,-3.1618,-3.1578,-3.1578,-3.1373,-3.1127,-3.0827,-3.0557,-3.0287,-2.9984,-2.9942,-2.9827,-2.9554,-2.9501,-2.9169,-2.8326,-2.7786,-2.7278,-2.6681,-2.6211,-2.6015,-2.6435,-2.6484,-2.6621,-2.6982,-2.7012,-2.7012,-2.7012,-2.7012,-2.6807,-2.6275,-2.628,-2.5909,-2.5071,-2.5341,-2.5708,-2.6104,-2.6408,-2.6591,-2.6591,-2.6591,-2.6591,-2.6591,-2.6636,-2.6636,-2.6691,-2.6944,-2.7098,-2.7152,-2.7368,-2.7691,-2.8014,-2.8291,-2.8514,-2.8781,-2.9026,-2.9079,-2.9079,-2.2627,-2.2715,-2.2794,-2.296,-2.3003,-2.3013,-2.3047,-2.3719,-2.429,-2.4414,-2.5079,-2.5615,-2.5684,-2.5693,-2.5693,-2.5693,-2.5693,-2.5693,-2.5693,-2.6014,-2.6245,-2.6496,-2.6794,-2.7081,-2.7309,-2.7309,-2.7309,-2.7309,-2.7309,-2.7309,-2.7309,-2.7309,-2.7707,-2.8504,-2.8791,-2.9566,-3.0721,-3.0968,-3.1308,-3.1618,-3.1618,-3.1618,-3.1618,-3.1618,-3.1618,-3.1618,-3.1618,-3.1618,-3.1618,-3.1618,-3.1618,-3.1618,-3.1618,-3.1772,-3.1975,-3.1964,-3.2179,-3.2291,-3.2026,-3.1772,-3.1578,-3.1322,-3.123,-3.1075,-3.0547,-3.0443,-3.0235,-2.9764,-2.9659,-2.9554,-2.9237,-2.8983,-2.8814,-2.8638,-2.8052,-2.7643,-2.7532,-2.709,-2.6846,-2.6914,-2.6914,-2.6943,-2.7012,-2.7012,-2.7012,-2.7012,-2.7012,-2.6858,-2.6541,-2.6627,-2.6535,-2.6154,-2.5998,-2.6122,-2.649,-2.6554,-2.6591,-2.6591,-2.6591,-2.6591,-2.6591,-2.6836,-2.6944,-2.6935,-2.7206,-2.7476,-2.7745,-2.7799,-2.813,-2.8568,-2.8621,-2.8824,-2.9026,-2.9079,-2.9079,-2.9079,-2.2759,-2.2882,-2.3013,-2.3091,-2.3091,-2.3091,-2.3091,-2.3822,-2.4414,-2.4414,-2.5138,-2.5693,-2.5693,-2.5693,-2.5693,-2.5693,-2.5693,-2.5693,-2.5693,-2.5965,-2.6149,-2.6294,-2.6699,-2.7044,-2.7309,-2.7309,-2.7309,-2.7309,-2.7309,-2.7309,-2.7309,-2.7309,-2.7614,-2.8255,-2.8781,-2.9534,-3.0466,-3.0968,-3.1373,-3.1618,-3.1618,-3.1618,-3.1618,-3.1618,-3.1618,-3.1618,-3.1618,-3.1669,-3.1823,-3.1823,-3.1936,-3.2088,-3.2088,-3.2179,-3.228,-3.2454,-3.2342,-3.2179,-3.2015,-3.1823,-3.1527,-3.1281,-3.1075,-3.0868,-3.0495,-3.0183,-2.9921,-2.9659,-2.9448,-2.9237,-2.893,-2.8781,-2.8674,-2.8514,-2.8045,-2.7718,-2.7718,-2.7295,-2.71,-2.7344,-2.7363,-2.7451,-2.7685,-2.7705,-2.7705,-2.7705,-2.7705,-2.7591,-2.7328,-2.7362,-2.7191,-2.6763,-2.645,-2.6488,-2.6791,-2.6845,-2.6899,-2.7008,-2.7008,-2.7008,-2.7062,-2.7161,-2.7206,-2.7206,-2.753,-2.7745,-2.7906,-2.8067,-2.8354,-2.8727,-2.8887,-2.9089,-2.9396,-2.9511,-2.9564,-2.9564,-2.2838,-2.3013,-2.3091,-2.3091,-2.3091,-2.313,-2.3227,-2.3926,-2.4453,-2.4551,-2.5254,-2.5693,-2.5693,-2.5693,-2.5693,-2.5693,-2.5693,-2.5693,-2.5693,-2.5868,-2.6052,-2.61,-2.6592,-2.7044,-2.7309,-2.7309,-2.7309,-2.7309,-2.7309,-2.7309,-2.7309,-2.7357,-2.7596,-2.8042,-2.8845,-2.9558,-3.0248,-3.0974,-3.1424,-3.1618,-3.1618,-3.1618,-3.1669,-3.1669,-3.1721,-3.1834,-3.1834,-3.1924,-3.2128,-3.2128,-3.2291,-3.2493,-3.2493,-3.2555,-3.2606,-3.283,-3.2505,-3.2128,-3.2015,-3.1772,-3.1424,-3.1178,-3.0931,-3.0609,-3.0287,-2.9921,-2.9554,-2.9396,-2.9195,-2.893,-2.8674,-2.8631,-2.8514,-2.8344,-2.8027,-2.7812,-2.7812,-2.7519,-2.7441,-2.7826,-2.7812,-2.7939,-2.8262,-2.8291,-2.8291,-2.8291,-2.8291,-2.8237,-2.8014,-2.7906,-2.7638,-2.7098,-2.6845,-2.6845,-2.7098,-2.7098,-2.7206,-2.7377,-2.7377,-2.7377,-2.7377,-2.7485,-2.7539,-2.753,-2.7853,-2.8014,-2.8014,-2.8291,-2.8568,-2.8834,-2.9089,-2.9396,-2.9722,-2.9942,-2.9994,-2.9994,-2.3057,-2.3101,-2.3091,-2.3091,-2.3091,-2.3227,-2.3682,-2.4121,-2.456,-2.4971,-2.5439,-2.5693,-2.5693,-2.5693,-2.5693,-2.5693,-2.5693,-2.5693,-2.5693,-2.5742,-2.582,-2.61,-2.6592,-2.7044,-2.7309,-2.7309,-2.7309,-2.7309,-2.7309,-2.7309,-2.7309,-2.7489,-2.7835,-2.8307,-2.9287,-3.0005,-3.054,-3.1269,-3.1567,-3.1618,-3.1618,-3.1772,-3.1964,-3.1964,-3.2179,-3.2443,-3.2443,-3.2443,-3.2443,-3.2443,-3.2493,-3.2493,-3.2493,-3.2667,-3.288,-3.288,-3.2667,-3.2392,-3.2077,-3.1618,-3.1178,-3.0879,-3.0609,-3.0287,-2.9764,-2.9606,-2.9459,-2.8887,-2.8737,-2.8674,-2.8398,-2.8344,-2.8291,-2.8291,-2.8262,-2.8252,-2.8252,-2.8223,-2.8213,-2.8242,-2.8252,-2.8262,-2.8291,-2.8291,-2.8291,-2.8291,-2.8291,-2.8291,-2.8291,-2.8014,-2.7745,-2.7377,-2.7098,-2.7107,-2.7377,-2.7368,-2.7377,-2.7377,-2.7377,-2.7377,-2.7431,-2.7691,-2.7853,-2.7906,-2.813,-2.8291,-2.8291,-2.8568,-2.8834,-2.9079,-2.9448,-2.9722,-2.9994,-2.9994,-2.9994,-2.9994,-2.3091,-2.3091,-2.3091,-2.3091,-2.3091,-2.3247,-2.3721,-2.415,-2.457,-2.5057,-2.5459,-2.5693,-2.5693,-2.5693,-2.5693,-2.5693,-2.5693,-2.5693,-2.5693,-2.5693,-2.5878,-2.6352,-2.6544,-2.6842,-2.7309,-2.7309,-2.7357,-2.7499,-2.7499,-2.7584,-2.7715,-2.7809,-2.7952,-2.8153,-2.9305,-2.9893,-3.0158,-3.1341,-3.1874,-3.1874,-3.2077,-3.224,-3.2331,-3.2331,-3.2392,-3.2493,-3.2493,-3.2606,-3.2729,-3.2729,-3.2869,-3.3019,-3.3019,-3.3081,-3.3081,-3.2768,-3.2606,-3.2392,-3.1874,-3.1476,-3.1127,-3.0879,-3.0609,-3.0235,-2.9711,-2.9448,-2.9185,-2.8781,-2.8568,-2.8408,-2.8291,-2.8291,-2.8291,-2.8291,-2.8291,-2.8291,-2.8291,-2.8291,-2.8291,-2.8291,-2.8291,-2.8291,-2.8291,-2.8291,-2.8291,-2.8291,-2.8291,-2.8291,-2.8291,-2.8103,-2.8198,-2.8742,-2.8309,-2.8075,-2.8103,-2.8351,-2.8397,-2.8356,-2.8356,-2.8221,-2.797,-2.8237,-2.8408,-2.8398,-2.8664,-2.8814,-2.8814,-2.893,-2.9142,-2.9396,-2.9554,-2.9659,-2.9774,-2.9774,-2.9617,-2.9448,-2.3091,-2.3091,-2.314,-2.3276,-2.3305,-2.3535,-2.4102,-2.4434,-2.4775,-2.5225,-2.5547,-2.5693,-2.5693,-2.5693,-2.5693,-2.5693,-2.5693,-2.5693,-2.5693,-2.5781,-2.6014,-2.6496,-2.6602,-2.6832,-2.7309,-2.7357,-2.7441,-2.7584,-2.7678,-2.782,-2.7998,-2.8092,-2.8149,-2.8181,-2.9321,-2.9911,-3.0144,-3.1401,-3.1984,-3.2179,-3.2493,-3.2656,-3.2757,-3.2796,-3.2896,-3.2996,-3.2996,-3.3119,-3.3281,-3.3281,-3.3381,-3.353,-3.353,-3.3481,-3.3319,-3.2706,-3.2493,-3.2392,-3.1772,-3.1322,-3.1034,-3.0838,-3.0453,-3.0026,-2.9554,-2.9185,-2.8877,-2.8621,-2.8408,-2.8291,-2.8291,-2.8291,-2.8291,-2.8291,-2.8291,-2.8291,-2.8291,-2.8291,-2.8291,-2.8291,-2.8291,-2.8291,-2.8291,-2.8291,-2.8291,-2.8291,-2.8418,-2.8491,-2.8529,-2.8416,-2.8703,-2.9393,-2.9191,-2.9021,-2.9012,-2.9157,-2.9201,-2.9121,-2.9241,-2.9015,-2.8667,-2.8926,-2.8963,-2.8834,-2.9026,-2.9079,-2.9132,-2.9237,-2.9396,-2.9606,-2.9711,-2.9659,-2.9606,-2.9606,-2.9396,-2.9132,-2.3091,-2.3091,-2.3237,-2.3711,-2.3789,-2.4082,-2.4988,-2.5116,-2.5225,-2.5625,-2.5693,-2.5693,-2.5693,-2.5693,-2.5693,-2.5693,-2.5693,-2.5693,-2.5693,-2.5965,-2.6197,-2.6496,-2.6747,-2.7034,-2.7309,-2.7499,-2.7584,-2.7594,-2.7857,-2.7998,-2.7987,-2.829,-2.8395,-2.8463,-2.9434,-3.0157,-3.067,-3.1404,-3.1995,-3.2544,-3.2757,-3.3019,-3.3331,-3.3557,-3.3805,-3.4125,-3.4125,-3.4125,-3.4125,-3.4125,-3.4125,-3.4125,-3.4125,-3.3927,-3.3519,-3.2757,-3.2493,-3.2392,-3.1783,-3.123,-3.0786,-3.0786,-3.0193,-2.9501,-2.9185,-2.8877,-2.8631,-2.8344,-2.8291,-2.8291,-2.8291,-2.8291,-2.8291,-2.8291,-2.8291,-2.8291,-2.8291,-2.8291,-2.8291,-2.8291,-2.8291,-2.8291,-2.8291,-2.8291,-2.8291,-2.8301,-2.8682,-2.8946,-2.9113,-2.9076,-2.9076,-2.9085,-2.9555,-2.9939,-3.0205,-2.9785,-2.9636,-2.9636,-2.9859,-2.9808,-2.9392,-2.9697,-2.9554,-2.9079,-2.9132,-2.9132,-2.9132,-2.9448,-2.9606,-2.9606,-2.9889,-2.9827,-2.9606,-2.9606,-2.9396,-2.9132,-2.3091,-2.3389,-2.3633,-2.3769,-2.4033,-2.4414,-2.5028,-2.5116,-2.5225,-2.5625,-2.5693,-2.5693,-2.5693,-2.5693,-2.5693,-2.5693,-2.5693,-2.5781,-2.5965,-2.6255,-2.6592,-2.7023,-2.7119,-2.7262,-2.7489,-2.7762,-2.7951,-2.816,-2.8254,-2.843,-2.8746,-2.885,-2.8989,-2.9196,-2.9836,-3.0421,-3.0949,-3.1882,-3.259,-3.3119,-3.3519,-3.3767,-3.3878,-3.3915,-3.4014,-3.4125,-3.4125,-3.4211,-3.4298,-3.4162,-3.4211,-3.4298,-3.4125,-3.3927,-3.363,-3.317,-3.2807,-3.2392,-3.1975,-3.1322,-3.0786,-3.0786,-3.036,-2.9722,-2.9237,-2.9036,-2.8877,-2.8398,-2.8291,-2.8291,-2.8291,-2.8291,-2.8291,-2.8291,-2.8291,-2.8291,-2.8291,-2.8291,-2.8291,-2.8291,-2.8291,-2.8291,-2.8291,-2.8291,-2.8418,-2.8711,-2.892,-2.9178,-2.9555,-2.9165,-2.9125,-2.9659,-2.9792,-3.0034,-3.0364,-3.0431,-3.0332,-3.001,-3.0312,-3.0105,-2.9392,-2.985,-2.9865,-2.9448,-2.9669,-2.9722,-2.9722,-2.9827,-2.9879,-2.9889,-2.9994,-2.9827,-2.9554,-2.9343,-2.9089,-2.8887,-2.3398,-2.374,-2.4092,-2.4268,-2.4512,-2.4824,-2.5264,-2.5332,-2.543,-2.5654,-2.5693,-2.5693,-2.5693,-2.5693,-2.5693,-2.5693,-2.5781,-2.5965,-2.6245,-2.6592,-2.7023,-2.7404,-2.7631,-2.7726,-2.7773,-2.7998,-2.829,-2.8581,-2.8628,-2.8896,-2.9266,-2.9266,-2.9347,-2.9497,-2.9903,-3.0478,-3.1191,-3.2016,-3.275,-3.3481,-3.4014,-3.4261,-3.4408,-3.4506,-3.4604,-3.4701,-3.4701,-3.4787,-3.4884,-3.4738,-3.4689,-3.4689,-3.4457,-3.4125,-3.3779,-3.3431,-3.298,-3.2555,-3.2128,-3.1567,-3.1075,-3.0983,-3.0401,-2.9774,-2.9396,-2.9185,-2.9026,-2.8654,-2.8504,-2.8461,-2.8461,-2.8344,-2.8291,-2.8291,-2.8291,-2.8291,-2.8291,-2.8291,-2.8291,-2.8291,-2.8291,-2.8291,-2.8291,-2.8291,-2.8535,-2.9131,-2.93,-2.9508,-2.9824,-2.9368,-2.9306,-2.9853,-2.9922,-3.0098,-3.0577,-3.082,-3.0752,-3.0469,-3.0938,-3.0751,-3.0118,-3.0476,-3.0463,-3.0031,-3.0014,-2.9994,-2.9994,-2.9994,-2.9994,-2.9994,-2.9994,-2.9827,-2.9554,-2.9237,-2.893,-2.8727,-2.3848,-2.418,-2.46,-2.5047,-2.5145,-2.5264,-2.5625,-2.5693,-2.5693,-2.5693,-2.5693,-2.5693,-2.5693,-2.5693,-2.5684,-2.5732,-2.5955,-2.6245,-2.6544,-2.7023,-2.7404,-2.7678,-2.816,-2.829,-2.8092,-2.8337,-2.8581,-2.885,-2.9035,-2.9255,-2.9531,-2.9531,-2.9531,-2.9577,-2.9829,-3.0499,-3.1479,-3.1933,-3.2763,-3.3817,-3.4298,-3.4628,-3.4884,-3.5126,-3.5368,-3.562,-3.562,-3.562,-3.562,-3.562,-3.5476,-3.5175,-3.4932,-3.4555,-3.4075,-3.353,-3.3181,-3.283,-3.224,-3.1874,-3.1567,-3.1322,-3.0495,-2.9711,-2.9659,-2.9396,-2.9185,-2.9132,-2.893,-2.8727,-2.8727,-2.8568,-2.8344,-2.8344,-2.8344,-2.8344,-2.8291,-2.8291,-2.8291,-2.8291,-2.8291,-2.8291,-2.8291,-2.8359,-2.875,-2.956,-2.9812,-2.9872,-2.9962,-2.9686,-2.9627,-2.9863,-2.9922,-3.0225,-3.083,-3.0889,-3.0889,-3.0898,-3.1508,-3.1546,-3.1103,-3.1343,-3.1184,-3.0729,-3.0263,-3.0056,-3.0056,-3.0015,-3.0015,-3.0056,-3.0056,-2.9919,-2.9729,-2.9359,-2.9103,-2.8846,-2.4277,-2.4629,-2.4998,-2.5096,-2.5361,-2.5577,-2.5674,-2.5693,-2.5693,-2.5693,-2.5693,-2.5693,-2.5693,-2.5693,-2.5781,-2.6004,-2.6255,-2.664,-2.7119,-2.7262,-2.7594,-2.8207,-2.8348,-2.8524,-2.885,-2.8943,-2.9082,-2.9347,-2.9393,-2.9542,-2.9783,-2.9783,-2.992,-3.0034,-3.0136,-3.079,-3.1969,-3.23,-3.3136,-3.4286,-3.4835,-3.5078,-3.5126,-3.5416,-3.5572,-3.562,-3.562,-3.5716,-3.592,-3.592,-3.5716,-3.5476,-3.5223,-3.4884,-3.4543,-3.4064,-3.358,-3.3131,-3.2779,-3.2291,-3.1874,-3.1567,-3.1167,-3.0713,-3.0047,-2.9837,-2.9669,-2.9185,-2.9026,-2.9036,-2.9036,-2.8973,-2.8877,-2.8674,-2.8621,-2.8514,-2.8344,-2.8291,-2.8291,-2.8291,-2.8291,-2.8291,-2.8291,-2.8906,-2.9512,-3.0019,-3.018,-3.0296,-3.0265,-2.9981,-2.9863,-2.9922,-3.0157,-3.0333,-3.0509,-3.0762,-3.0889,-3.0898,-3.1508,-3.1546,-3.1113,-3.165,-3.165,-3.1205,-3.0739,-3.0532,-3.0512,-3.0149,-3.0212,-3.0532,-3.0532,-3.076,-3.0962,-3.0605,-3.0342,-3.0133,-2.4923,-2.5267,-2.5563,-2.5563,-2.5624,-2.5693,-2.5693,-2.5693,-2.5693,-2.5693,-2.5693,-2.5693,-2.5693,-2.582,-2.6014,-2.6245,-2.663,-2.7023,-2.7262,-2.7641,-2.8019,-2.8395,-2.8628,-2.8896,-2.9255,-2.9405,-2.9554,-2.968,-2.968,-2.9829,-3.0057,-3.0057,-3.0091,-3.0227,-3.048,-3.1159,-3.2123,-3.2652,-3.3456,-3.4433,-3.4969,-3.5271,-3.5416,-3.5668,-3.586,-3.5991,-3.6073,-3.6216,-3.6323,-3.6323,-3.6086,-3.5716,-3.5476,-3.5126,-3.4738,-3.4347,-3.3965,-3.358,-3.3192,-3.2869,-3.2544,-3.2139,-3.1936,-3.1578,-3.062,-3.036,-3.0308,-2.9984,-2.9722,-2.9511,-2.9511,-2.929,-2.9026,-2.893,-2.8877,-2.8824,-2.8708,-2.8558,-2.8514,-2.8514,-2.8398,-2.8369,-2.8574,-2.9365,-2.9961,-3.0176,-3.0316,-3.0382,-3.0382,-3.0098,-2.9981,-3.0157,-3.0323,-3.045,-3.0645,-3.083,-3.0947,-3.1112,-3.1566,-3.1782,-3.1663,-3.1912,-3.1919,-3.1671,-3.1205,-3.1008,-3.0998,-3.076,-3.0801,-3.1008,-3.1008,-3.1164,-3.1371,-3.1011,-3.0625,-3.0304,-2.567,-2.5958,-2.6149,-2.61,-2.5917,-2.5732,-2.5684,-2.5693,-2.5693,-2.5693,-2.5693,-2.5742,-2.5781,-2.611,-2.639,-2.664,-2.7119,-2.7441,-2.7499,-2.8066,-2.8441,-2.8535,-2.8896,-2.9266,-2.9542,-2.9794,-2.9931,-2.9931,-2.9931,-3.0057,-3.0216,-3.0216,-3.0216,-3.0239,-3.0824,-3.1471,-3.2241,-3.3041,-3.3801,-3.4531,-3.5078,-3.5416,-3.562,-3.5955,-3.6228,-3.6452,-3.6628,-3.6709,-3.6709,-3.6709,-3.6405,-3.6003,-3.5716,-3.5271,-3.4896,-3.4638,-3.4428,-3.4205,-3.3707,-3.3558,-3.3434,-3.2818,-3.2645,-3.2353,-3.1384,-3.1034,-3.0931,-3.0879,-3.0464,-3.0151,-3.0151,-2.9722,-2.9343,-2.929,-2.9237,-2.9237,-2.9132,-2.893,-2.881,-2.889,-2.8691,-2.8736,-2.9092,-2.9775,-3.0234,-3.0303,-3.0422,-3.0509,-3.0509,-3.0216,-3.0225,-3.045,-3.0509,-3.0635,-3.0889,-3.0947,-3.1112,-3.1383,-3.173,-3.2018,-3.2295,-3.2153,-3.2101,-3.2081,-3.1681,-3.1495,-3.1485,-3.1412,-3.1422,-3.1495,-3.1495,-3.1536,-3.1554,-3.1191,-3.0681,-3.0254,-2.631,-2.6408,-2.6342,-2.6149,-2.6052,-2.5965,-2.5732,-2.5693,-2.5693,-2.5693,-2.5693,-2.5781,-2.6004,-2.6678,-2.7167,-2.7214,-2.762,-2.7998,-2.8254,-2.8348,-2.8581,-2.8989,-2.9082,-2.9312,-2.984,-2.9886,-2.9966,-3.017,-3.017,-3.017,-3.0216,-3.0216,-3.0216,-3.0239,-3.1009,-3.1751,-3.2524,-3.3327,-3.409,-3.4775,-3.532,-3.5572,-3.5656,-3.6181,-3.6499,-3.6675,-3.6675,-3.6709,-3.6709,-3.6709,-3.6534,-3.6275,-3.5752,-3.5572,-3.5465,-3.5178,-3.5061,-3.4961,-3.466,-3.4609,-3.4404,-3.365,-3.3308,-3.3069,-3.2656,-3.1986,-3.1424,-3.1178,-3.092,-3.0672,-3.0672,-3.062,-3.0412,-2.9942,-2.9889,-2.9722,-2.9185,-2.9079,-2.9176,-2.9611,-2.9729,-2.9849,-2.998,-3.0127,-3.0361,-3.0771,-3.0791,-3.083,-3.083,-3.0772,-3.0772,-3.083,-3.083,-3.083,-3.0889,-3.1112,-3.1392,-3.173,-3.2076,-3.2258,-3.2305,-3.2493,-3.2633,-3.2556,-3.2091,-3.1895,-3.1864,-3.1536,-3.1609,-3.1895,-3.1895,-3.2199,-3.2437,-3.1903,-3.1434,-3.1146,-2.6648,-2.6699,-2.6699,-2.6554,-2.6294,-2.6052,-2.5965,-2.5781,-2.5693,-2.5693,-2.582,-2.5965,-2.61,-2.6822,-2.7394,-2.7678,-2.8139,-2.8524,-2.8628,-2.885,-2.9128,-2.9301,-2.9462,-2.9657,-2.9886,-3.0011,-3.0091,-3.0216,-3.0216,-3.0216,-3.0216,-3.0216,-3.0422,-3.0916,-3.1518,-3.23,-3.3185,-3.3814,-3.4462,-3.5078,-3.5416,-3.5668,-3.586,-3.6358,-3.6628,-3.6722,-3.7062,-3.7062,-3.6909,-3.6909,-3.6687,-3.631,-3.5752,-3.5829,-3.5966,-3.5545,-3.5621,-3.5798,-3.5544,-3.5494,-3.5274,-3.4442,-3.4175,-3.4016,-3.3626,-3.3097,-3.2583,-3.2037,-3.168,-3.1424,-3.127,-3.1127,-3.0879,-3.0516,-3.0464,-3.0444,-3.0421,-3.0197,-3.0061,-3.0182,-3.0449,-3.0575,-3.049,-3.0659,-3.0838,-3.0869,-3.0889,-3.0889,-3.0889,-3.0889,-3.0889,-3.0889,-3.0889,-3.0947,-3.1102,-3.1218,-3.1556,-3.2076,-3.2248,-3.2373,-3.2555,-3.2669,-3.2669,-3.2659,-3.2463,-3.237,-3.2359,-3.2209,-3.225,-3.237,-3.237,-3.2437,-3.243,-3.196,-3.1614,-3.1325]},{"header":{"parameterUnit":"m.s-1","parameterCategory":1,"la1":30.6,"la2":28.766,"lo1":-90.7593,"lo2":-88.6598,"dy":0.0162,"dx":0.0183,"nx":116,"ny":114,"refTime":"2023-04-06T12:00:00:Z","depth":0,"parameterNumber":3,"parameterNumberName":"V-component_of_WINDS"},"data":[0.0,0.0,0.0,0.0,0.0,0.0,0.0,0.0,0.0,0.0,0.0,0.0,0.0,0.0,0.0,0.0,0.0,0.0,0.0,0.0,0.0,0.0,0.0,0.0,0.0,0.0,0.0,0.0,0.0,0.0,0.0,0.0,0.0,0.0,0.0,0.0,0.0,0.0,0.0,0.0,0.0,0.0,0.0,0.0,0.0,0.0,0.0,0.0,0.0,0.0,0.0,0.0,0.0,0.0,0.0,0.0,0.0,0.0,0.0,0.0,0.0,0.0,0.0,0.0,0.0,0.0,0.0,0.0,0.0,0.0,0.0,0.0,0.0,0.0,0.0,0.0,0.0,0.0,0.0,0.0,0.0,0.0,0.0,0.0,0.0,0.0,0.0,0.0,0.0,0.0,0.0,0.0,0.0,0.0,0.0,0.0,0.0,0.0,0.0,0.0,0.0,0.0,0.0,0.0,0.0,0.0,0.0,0.0,0.0,0.0,0.0,0.0,0.0,0.0,0.0,0.0,0.0,0.0,0.0,0.0,0.0,0.0,0.0,0.0,0.0,0.0,0.0,0.0,0.0,0.0,0.0,0.0,0.0,0.0,0.0,0.0,0.0,0.0,0.0,0.0,0.0,0.0,0.0,0.0,0.0,0.0,0.0,0.0,0.0,0.0,0.0,0.0,0.0,0.0,0.0,0.0,0.0,0.0,0.0,0.0,0.0,0.0,0.0,0.0,0.0,0.0,0.0,0.0,0.0,0.0,0.0,0.0,0.0,0.0,0.0,0.0,0.0,0.0,0.0,0.0,0.0,0.0,0.0,0.0,0.0,0.0,0.0,0.0,0.0,0.0,0.0,0.0,0.0,0.0,0.0,0.0,0.0,0.0,0.0,0.0,0.0,0.0,0.0,0.0,0.0,0.0,0.0,0.0,0.0,0.0,0.0,0.0,0.0,0.0,0.0,0.0,0.0,0.0,0.0,0.0,0.0,0.0,0.0,0.0,0.0,0.0,0.0,0.0,0.0,0.0,0.0,0.0,0.0,0.0,0.0,0.0,0.0,0.0,0.0,0.0,0.0,0.0,0.0,0.0,0.0,0.0,0.0,0.0,0.0,0.0,0.0,0.0,0.0,0.0,0.0,0.0,0.0,0.0,0.0,0.0,0.0,0.0,0.0,0.0,0.0,0.0,0.0,0.0,0.0,0.0,0.0,0.0,0.0,0.0,0.0,0.0,0.0,0.0,0.0,0.0,0.0,0.0,0.0,0.0,0.0,0.0,0.0,0.0,0.0,0.0,0.0,0.0,0.0,0.0,0.0,0.0,0.0,0.0,0.0,0.0,0.0,0.0,0.0,0.0,0.0,0.0,0.0,0.0,0.0,0.0,0.0,0.0,0.0,0.0,0.0,0.0,0.0,0.0,0.0,0.0,0.0,0.0,0.0,0.0,0.0,0.0,0.0,0.0,0.0,0.0,0.0,0.0,0.0,0.0,0.0,0.0,0.0,0.0,0.0,0.0,0.0,0.0,0.0,0.0,0.0,0.0,0.0,0.0,0.0,0.0,0.0,0.0,0.0,0.0,0.0,0.0,0.0,0.0,0.0,0.0,0.0,0.0,0.0,0.0,0.0,0.0,0.0,0.0,0.0,0.0,0.0,0.0,0.0,0.0,0.0,0.0,0.0,0.0,0.0,0.0,0.0,0.0,0.0,0.0,0.0,0.0,0.0,0.0,0.0,0.0,0.0,0.0,0.0,0.0,0.0,0.0,0.0,0.0,0.0,0.0,0.0,0.0,0.0,0.0,0.0,0.0,0.0,0.0,0.0,0.0,0.0,0.0,0.0,0.0,0.0,0.0,0.0,0.0,0.0,0.0,0.0,0.0,0.0,0.0,0.0,0.0,0.0,0.0,0.0,0.0,0.0,0.0,0.0,0.0,0.0,0.0,0.0,0.0,0.0,0.0,0.0,0.0,0.0,0.0,0.0,0.0,0.0,0.0,0.0,0.0,0.0,0.0,0.0,0.0,0.0,0.0,0.0,0.0,0.0,0.0,0.0,0.0,0.0,0.0,0.0,0.0,0.0,0.0,0.0,0.0,0.0,0.0,0.0,0.0,0.0,0.0,0.0,0.0,0.0,0.0,0.0,0.0,0.0,0.0,0.0,0.0,0.0,0.0,0.0,0.0,0.0,0.0,0.0,0.0,0.0,0.0,0.0,0.0,0.0,0.0,0.0,0.0,0.0,0.0,0.0,0.0,0.0,0.0,0.0,0.0,0.0,0.0,0.0,0.0,0.0,0.0,0.0,0.0,0.0,0.0,0.0,0.0,0.0,0.0,0.0,0.0,0.0,0.0,0.0,0.0,0.0,0.0,0.0,0.0,0.0,0.0,0.0,0.0,0.0,0.0,0.0,0.0,0.0,0.0,0.0,0.0,0.0,0.0,0.0,0.0,0.0,0.0,0.0,0.0,0.0,0.0,0.0,0.0,0.0,0.0,0.0,0.0,0.0,0.0,0.0,0.0,0.0,0.0,0.0,0.0,0.0,0.0,0.0,0.0,0.0,0.0,0.0,0.0,0.0,0.0,0.0,0.0,0.0,0.0,0.0,0.0,0.0,0.0,0.0,0.0,0.0,0.0,0.0,0.0,0.0,0.0,0.0,0.0,0.0,0.0,0.0,0.0,0.0,0.0,0.0,0.0,0.0,0.0,0.0,0.0,0.0,0.0,0.0,0.0,0.0,0.0,0.0,0.0,0.0,0.0,0.0,0.0,0.0,0.0,0.0,0.0,0.0,0.0,0.0,0.0,0.0,0.0,0.0,0.0,0.0,0.0,0.0,0.0,0.0,0.0,0.0,0.0,0.0,0.0,0.0,0.0,0.0,0.0,0.0,0.0,0.0,0.0,0.0,0.0,0.0,0.0,0.0,0.0,0.0,0.0,0.0,0.0,0.0,0.0,0.0,0.0,0.0,0.0,0.0,0.0,0.0,0.0,0.0,0.0,0.0,0.0,0.0,0.0,0.0,0.0,0.0,0.0,0.0,0.0,0.0,0.0,0.0,0.0,0.0,0.0,0.0,0.0,0.0,0.0,0.0,0.0,0.0,0.0,0.0,0.0,0.0,0.0,0.0,0.0,0.0,0.0,0.0,0.0,0.0,0.0,0.0,0.0,0.0,0.0,0.0,0.0,0.0,0.0,0.0,0.0,0.0,0.0,0.0,0.0,0.0,0.0,0.0,0.0,0.0,0.0,0.0,0.0,0.0,0.0,0.0,0.0,0.0,0.0,0.0,0.0,0.0,0.0,0.0,0.0,0.0,0.0,0.0,0.0,0.0,0.0,0.0,0.0,0.0,0.0,0.0,0.0,0.0,0.0,0.0,0.0,0.0,0.0,0.0,0.0,0.0,0.0,0.0,0.0,0.0,0.0,0.0,0.0,0.0,0.0,0.0,0.0,0.0,0.0,0.0,0.0,0.0,0.0,0.0,0.0,0.0,0.0,0.0,0.0,0.0,0.0,0.0,0.0,0.0,0.0,0.0,0.0,0.0,0.0,0.0,0.0,0.0,0.0,0.0,0.0,0.0,0.0,0.0,0.0,0.0,0.0,0.0,0.0,0.0,0.0,0.0,0.0,0.0,0.0,0.0,0.0,0.0,0.0,0.0,0.0,0.0,0.0,0.0,0.0,0.0,0.0,0.0,0.0,0.0,0.0,0.0,0.0,0.0,0.0,0.0,0.0,0.0,0.0,0.0,0.0,0.0,0.0,0.0,0.0,0.0,0.0,0.0,0.0,0.0,0.0,0.0,0.0,0.0,0.0,0.0,0.0,0.0,0.0,0.0,0.0,0.0,0.0,0.0,0.0,0.0,0.0,0.0,0.0,0.0,0.0,0.0,0.0,0.0,0.0,0.0,0.0,0.0,0.0,0.0,0.0,0.0,0.0,0.0,0.0,0.0,0.0,0.0,0.0,0.0,0.0,0.0,0.0,0.0,0.0,0.0,0.0,0.0,0.0,0.0,0.0,0.0,0.0,0.0,0.0,0.0,0.0,0.0,0.0,0.0,0.0,0.0,0.0,0.0,0.0,0.0,0.0,0.0,0.0,0.0,0.0,0.0,0.0,0.0,0.0,0.0,0.0,0.0,0.0,0.0,0.0,0.0,0.0,0.0,0.0,0.0,0.0,0.0,0.0,0.0,0.0,0.0,0.0,0.0,0.0,0.0,0.0,0.0,0.0,0.0,0.0,0.0,0.0,0.0,0.0,0.0,0.0,0.0,0.0,0.0,0.0,0.0,0.0,0.0,0.0,0.0,0.0,0.0,0.0,0.0,0.0,0.0,0.0,0.0,0.0,0.0,0.0,0.0,0.0,0.0,0.0,0.0,0.0,0.0,0.0,0.0,0.0,0.0,0.0,0.0,0.0,0.0,0.0,0.0,0.0,0.0,0.0,0.0,0.0,0.0,0.0,0.0,0.0,0.0,0.0,0.0,0.0,0.0,0.0,0.0,0.0,0.0,0.0,0.0,0.0,0.0,0.0,0.0,0.0,0.0,0.0,0.0,0.0,0.0,0.0,0.0,0.0,0.0,0.0,0.0,0.0,0.0,0.0,0.0,0.0,0.0,0.0,0.0,0.0,0.0,0.0,0.0,0.0,0.0,0.0,0.0,0.0,0.0,0.0,0.0,0.0,0.0,0.0,0.0,0.0,0.0,0.0,0.0,0.0,0.0,0.0,0.0,0.0,0.0,0.0,0.0,0.0,0.0,0.0,0.0,0.0,0.0,0.0,0.0,0.0,0.0,0.0,0.0,0.0,0.0,0.0,0.0,0.0,0.0,0.0,0.0,0.0,0.0,0.0,0.0,0.0,0.0,0.0,0.0,0.0,0.0,0.0,0.0,0.0,0.0,0.0,0.0,0.0,0.0,0.0,0.0,0.0,0.0,0.0,0.0,0.0,0.0,0.0,0.0,0.0,0.0,0.0,0.0,0.0,0.0,0.0,0.0,0.0,0.0,0.0,0.0,0.0,0.0,0.0,0.0,0.0,0.0,0.0,0.0,0.0,0.0,0.0,0.0,0.0,0.0,0.0,0.0,0.0,0.0,0.0,0.0,0.0,0.0,0.0,0.0,0.0,0.0,0.0,0.0,0.0,0.0,0.0,0.0,0.0,0.0,0.0,0.0,0.0,0.0,0.0,0.0,0.0,0.0,0.0,0.0,0.0,0.0,0.0,0.0,0.0,0.0,0.0,0.0,0.0,0.0,0.0,0.0,0.0,0.0,0.0,0.0,0.0,0.0,0.0,0.0,0.0,0.0,0.0,0.0,0.0,0.0,0.0,0.0,0.0,0.0,0.0,0.0,0.0,0.0,0.0,0.0,0.0,0.0,0.0,0.0,0.0,0.0,0.0,0.0,0.0,0.0,0.0,0.0,0.0,0.0,0.0,0.0,0.0,0.0,0.0,0.0,0.0,0.0,0.0,0.0,0.0,0.0,0.0,0.0,0.0,0.0,0.0,0.0,0.0,0.0,0.0,0.0,0.0,0.0,0.0,0.0,0.0,0.0,0.0,0.0,0.0,0.0,0.0,0.0,0.0,0.0,0.0,0.0,0.0,0.0,0.0,0.0,0.0,0.0,0.0,0.0,0.0,0.0,0.0,0.0,0.0,0.0,0.0,0.0,0.0,0.0,0.0,0.0,0.0,0.0,0.0,0.0,0.0,0.0,0.0,0.0,0.0,0.0,0.0,0.0,0.0,0.0,0.0,0.0,0.0,0.0,0.0,0.0,0.0,0.0,0.0,0.0,0.0,0.0,0.0,0.0,0.0,0.0,0.0,0.0,0.0,0.0,0.0,0.0,0.0,0.0,0.0,0.0,0.0,0.0,0.0,0.0,0.0,0.0,0.0,0.0,0.0,0.0,0.0,0.0,0.0,0.0,0.0,0.0,0.0,0.0,0.0,0.0,0.0,0.0,0.0,0.0,0.0,0.0,0.0,0.0,0.0,0.0,0.0,0.0,0.0,0.0,0.0,0.0,0.0,0.0,0.0,0.0,0.0,0.0,0.0,0.0,0.0,0.0,0.0,0.0,0.0,0.0,0.0,0.0,0.0,0.0,0.0,0.0,0.0,0.0,0.0,2.7211,0.0,0.0,0.0,0.0,0.0,0.0,0.0,0.0,0.0,0.0,0.0,0.0,0.0,0.0,0.0,0.0,0.0,0.0,0.0,0.0,0.0,0.0,0.0,0.0,0.0,0.0,0.0,0.0,0.0,0.0,0.0,0.0,0.0,0.0,0.0,0.0,0.0,0.0,0.0,2.5246,2.6716,2.8075,2.8038,2.7939,2.7806,0.0,0.0,0.0,0.0,0.0,0.0,0.0,0.0,0.0,0.0,0.0,0.0,0.0,0.0,0.0,0.0,0.0,0.0,0.0,0.0,0.0,0.0,0.0,0.0,0.0,0.0,0.0,0.0,0.0,0.0,0.0,0.0,0.0,0.0,0.0,0.0,0.0,0.0,0.0,0.0,0.0,0.0,0.0,0.0,0.0,0.0,0.0,0.0,0.0,0.0,0.0,0.0,0.0,0.0,0.0,0.0,0.0,0.0,0.0,0.0,0.0,0.0,0.0,0.0,0.0,0.0,0.0,0.0,0.0,0.0,0.0,2.8038,0.0,0.0,0.0,0.0,0.0,0.0,0.0,0.0,0.0,0.0,0.0,0.0,0.0,0.0,0.0,0.0,0.0,0.0,0.0,0.0,0.0,0.0,0.0,1.8038,1.8686,1.9467,1.9866,2.0405,0.0,0.0,0.0,0.0,0.0,0.0,0.0,0.0,0.0,2.5664,2.7405,2.9443,3.1657,3.1839,3.0942,2.9182,2.8952,0.0,0.0,0.0,0.0,0.0,0.0,0.0,0.0,0.0,0.0,0.0,0.0,0.0,0.0,0.0,0.0,0.0,0.0,0.0,0.0,0.0,0.0,0.0,0.0,0.0,0.0,0.0,0.0,0.0,0.0,0.0,0.0,0.0,0.0,0.0,0.0,0.0,0.0,0.0,0.0,0.0,0.0,0.0,0.0,0.0,0.0,0.0,0.0,0.0,0.0,0.0,0.0,0.0,0.0,0.0,0.0,0.0,0.0,0.0,0.0,0.0,0.0,0.0,3.3963,3.4369,3.4482,3.4935,3.487,3.4154,3.1659,3.0201,2.9506,2.825,0.0,0.0,0.0,0.0,0.0,0.0,0.0,0.0,0.0,0.0,0.0,0.0,0.0,0.0,0.0,0.0,0.0,0.0,0.0,0.0,0.0,1.9189,1.9949,2.0464,2.081,2.1201,2.161,0.0,0.0,0.0,0.0,0.0,0.0,2.4936,2.6126,2.8299,3.0614,3.2334,3.3452,3.4121,3.4403,3.4252,3.2635,3.1703,3.1283,0.0,0.0,0.0,0.0,0.0,0.0,0.0,0.0,0.0,0.0,0.0,0.0,0.0,0.0,0.0,0.0,0.0,0.0,0.0,0.0,0.0,0.0,0.0,0.0,0.0,0.0,0.0,0.0,0.0,0.0,0.0,0.0,0.0,0.0,0.0,0.0,0.0,0.0,0.0,0.0,0.0,2.9766,3.0069,0.0,0.0,0.0,0.0,0.0,0.0,0.0,0.0,0.0,0.0,0.0,0.0,0.0,3.3072,3.3842,3.4647,3.5473,3.6227,3.6576,3.6756,3.677,3.6355,3.6072,3.5828,3.4874,0.0,3.1166,3.0792,0.0,0.0,0.0,0.0,0.0,0.0,0.0,0.0,0.0,0.0,0.0,0.0,0.0,0.0,0.0,0.0,0.0,0.0,0.0,0.0,0.0,2.0347,2.1311,2.2141,2.2873,2.3389,2.3643,2.3917,0.0,0.0,0.0,2.5075,2.5815,2.686,2.8779,3.1665,3.3175,3.4595,3.5892,3.6226,3.6425,3.6504,3.5685,3.4512,3.3116,3.2755,0.0,0.0,0.0,0.0,0.0,0.0,0.0,0.0,0.0,0.0,0.0,0.0,0.0,0.0,0.0,0.0,0.0,0.0,0.0,0.0,0.0,0.0,0.0,0.0,0.0,0.0,0.0,0.0,0.0,0.0,0.0,0.0,0.0,0.0,0.0,0.0,0.0,0.0,0.0,3.0631,3.117,3.1134,3.139,3.1596,0.0,0.0,0.0,0.0,0.0,0.0,0.0,0.0,0.0,3.3769,3.4836,3.5692,3.6276,3.6987,3.7623,3.8216,3.8325,3.8479,3.8648,3.8409,3.8266,3.8204,3.7829,3.68,3.5176,3.3283,3.2103,3.142,0.0,0.0,0.0,0.0,2.8786,2.8813,0.0,0.0,0.0,0.0,0.0,0.0,0.0,0.0,0.0,0.0,0.0,0.0,2.0672,2.1734,2.2804,2.3919,2.4813,2.5404,2.5558,2.5924,2.5983,0.0,2.6375,2.7005,2.7462,2.9503,3.177,3.4266,3.5418,3.674,3.8178,3.8362,3.8597,3.8849,3.8849,3.7453,3.5075,3.4868,3.3711,3.2026,0.0,0.0,0.0,0.0,0.0,0.0,0.0,0.0,0.0,0.0,0.0,0.0,0.0,0.0,0.0,0.0,0.0,0.0,0.0,0.0,0.0,0.0,0.0,0.0,0.0,0.0,0.0,0.0,0.0,0.0,0.0,0.0,0.0,0.0,0.0,0.0,0.0,3.2259,3.2602,3.2224,3.2471,3.2752,0.0,0.0,0.0,0.0,0.0,0.0,3.4651,3.5369,3.5906,3.6199,3.7214,3.7958,3.8369,3.8931,3.9402,3.9817,3.9928,4.0103,4.034,4.0212,4.0132,4.0116,3.9864,3.9359,3.8541,3.5601,3.4295,3.4004,3.2545,3.1974,3.1857,3.1259,3.1143,3.1263,0.0,0.0,0.0,0.0,0.0,0.0,0.0,0.0,0.0,0.0,0.0,2.1125,2.2264,2.346,2.4594,2.5582,2.6197,2.6561,2.6617,2.7063,2.7315,2.7283,2.7624,2.8551,3.0067,3.3188,3.4941,3.5241,3.7384,3.895,3.9986,4.0705,4.1562,4.2526,4.2526,4.0671,3.7453,3.6635,3.5887,3.506,3.2853,0.0,0.0,0.0,0.0,0.0,0.0,0.0,0.0,0.0,0.0,0.0,0.0,0.0,0.0,0.0,0.0,0.0,0.0,0.0,0.0,0.0,0.0,0.0,0.0,0.0,0.0,0.0,0.0,0.0,0.0,0.0,0.0,0.0,0.0,0.0,0.0,0.0,0.0,3.3827,3.4861,0.0,0.0,0.0,0.0,3.603,3.6526,3.7093,3.7748,3.781,3.8153,3.8887,3.898,3.9323,3.9978,4.0142,4.0537,4.1213,4.1591,4.177,4.1787,4.1262,4.1037,4.1005,4.0364,4.0046,3.9825,3.771,3.6452,3.5796,3.5005,3.4638,3.4494,3.4463,3.4548,3.4644,0.0,0.0,0.0,0.0,0.0,0.0,0.0,0.0,1.8602,1.9304,2.0935,2.2472,2.3647,2.5561,2.7005,2.7674,2.892,2.9342,2.8545,2.8855,2.8707,2.7879,2.9009,3.087,3.3467,3.4739,3.636,3.8376,3.926,4.0442,4.1844,4.2099,4.2424,4.2791,4.2791,4.21,4.0883,3.9583,3.8054,3.6418,3.5103,3.3841,0.0,0.0,0.0,0.0,0.0,0.0,0.0,0.0,0.0,0.0,0.0,0.0,0.0,0.0,0.0,0.0,0.0,0.0,0.0,0.0,0.0,0.0,0.0,0.0,0.0,0.0,0.0,0.0,0.0,0.0,0.0,0.0,0.0,0.0,0.0,0.0,0.0,3.6066,3.6421,0.0,3.7571,3.78,3.7998,3.8304,3.8418,3.8764,3.9454,3.9827,4.0324,4.1026,4.1494,4.1872,4.221,4.2262,4.2322,4.2319,4.2468,4.2443,4.2238,4.2029,4.1948,4.1916,4.1675,4.1516,4.1309,4.0117,3.9183,3.8364,3.7578,3.6967,3.6438,3.6012,3.5698,3.5483,0.0,0.0,0.0,0.0,0.0,0.0,0.0,0.0,1.9541,2.044,2.2167,2.3952,2.5596,2.7401,2.8817,2.9675,3.0959,3.1379,3.0535,3.0789,3.0601,2.9762,3.1349,3.3244,3.5379,3.6544,3.8156,4.0221,4.0865,4.1869,4.3228,4.3228,4.3417,4.3735,4.3735,4.3623,4.3373,4.2341,4.0491,3.8185,3.7478,3.6165,3.4439,0.0,0.0,0.0,0.0,0.0,0.0,0.0,0.0,0.0,0.0,0.0,0.0,0.0,0.0,0.0,0.0,0.0,0.0,0.0,0.0,0.0,0.0,0.0,0.0,0.0,0.0,0.0,0.0,0.0,0.0,0.0,0.0,0.0,0.0,0.0,3.7496,3.7708,3.8016,3.8463,3.9232,3.9475,3.9767,4.0262,4.0435,4.078,4.1407,4.1794,4.2181,4.2651,4.3122,4.3408,4.3516,4.357,4.3472,4.325,4.3161,4.2974,4.2751,4.2558,4.2476,4.2476,4.2476,4.2445,4.2333,4.1898,4.1383,4.0791,3.9572,3.8828,3.838,3.7948,3.77,3.7575,0.0,0.0,0.0,0.0,0.0,0.0,0.0,1.9398,2.0741,2.1635,2.3385,2.5529,2.8047,2.8905,2.9916,3.1526,3.2159,3.2492,3.2459,3.2752,3.2967,3.2984,3.46,3.5622,3.5859,3.8785,4.0413,4.0612,4.2116,4.3305,4.4138,4.4138,4.4664,4.5607,4.5589,4.5276,4.4732,4.4732,4.3158,4.0568,3.9907,3.8322,3.6212,0.0,0.0,0.0,0.0,0.0,0.0,0.0,0.0,0.0,0.0,0.0,0.0,0.0,0.0,0.0,0.0,0.0,0.0,0.0,0.0,0.0,0.0,0.0,0.0,0.0,0.0,0.0,0.0,0.0,0.0,0.0,0.0,0.0,3.741,3.8146,3.8837,3.8714,3.9661,4.0353,4.0401,4.0874,4.1406,4.1947,4.2566,4.3182,4.3706,4.3753,4.3769,4.3785,4.3785,4.3785,4.3785,4.396,4.4047,4.405,4.3713,4.354,4.3476,4.2911,4.2619,4.2602,4.2602,4.2728,4.2899,4.2899,4.2976,4.2921,4.0945,4.0276,4.0349,4.0349,4.0645,4.1107,0.0,0.0,0.0,0.0,0.0,0.0,0.0,2.0318,2.1541,2.3084,2.4803,2.6649,2.8747,3.0336,3.1674,3.2825,3.3792,3.4163,3.3745,3.3868,3.4302,3.4962,3.554,3.6911,3.9133,4.001,4.1313,4.3126,4.3511,4.419,4.5034,4.5139,4.5347,4.5589,4.5693,4.5648,4.5507,4.5507,4.4736,4.3388,4.1556,4.0469,3.9671,0.0,0.0,0.0,0.0,0.0,0.0,0.0,0.0,0.0,0.0,0.0,0.0,0.0,0.0,0.0,0.0,0.0,0.0,0.0,0.0,0.0,0.0,0.0,0.0,0.0,0.0,0.0,0.0,0.0,0.0,0.0,0.0,3.9525,3.9055,3.9798,4.0561,4.1023,4.1181,4.1619,4.2526,4.2752,4.3056,4.358,4.3804,4.4186,4.4835,4.4867,4.5072,4.5582,4.5598,4.5598,4.5598,4.5617,4.5517,4.5142,4.5068,4.454,4.3654,4.362,4.3325,4.2837,4.2929,4.299,4.3052,4.3052,4.3143,4.3232,4.2566,4.2062,4.1737,4.1737,4.1729,4.1744,0.0,0.0,0.0,0.0,0.0,0.0,0.0,2.0976,2.2274,2.4334,2.5824,2.7623,3.0103,3.1484,3.2784,3.4091,3.4891,3.5182,3.4897,3.5301,3.5768,3.6309,3.7319,3.8738,4.0549,4.1525,4.2714,4.4182,4.4492,4.494,4.5476,4.5563,4.5641,4.577,4.5846,4.5922,4.5972,4.6023,4.5793,4.5257,4.3699,4.2619,4.174,4.0088,3.9031,3.8213,3.6671,3.5636,3.4863,3.4091,0.0,0.0,0.0,0.0,0.0,0.0,0.0,0.0,0.0,0.0,0.0,0.0,0.0,0.0,0.0,0.0,0.0,0.0,0.0,0.0,0.0,0.0,0.0,0.0,4.0822,4.1201,4.1519,4.1794,4.2121,4.2411,4.2833,4.3329,4.3977,4.4025,4.4249,4.4807,4.4855,4.5092,4.5693,4.5725,4.5882,4.6298,4.6298,4.6298,4.6298,4.6474,4.6405,4.614,4.5986,4.5552,4.4821,4.4625,4.415,4.3464,4.3541,4.3453,4.3295,4.3295,4.3476,0.0,0.0,0.0,0.0,0.0,4.3351,4.3335,0.0,0.0,0.0,0.0,0.0,0.0,0.0,2.1462,2.2896,2.5243,2.6498,2.8355,3.1498,3.2255,3.3228,3.4968,3.5296,3.5491,3.5725,3.662,3.7199,3.7285,3.9371,4.0693,4.0978,4.3065,4.4216,4.4432,4.5096,4.5476,4.5607,4.5632,4.577,4.5998,4.6023,4.6122,4.6221,4.6374,4.6405,4.6376,4.5835,4.4599,4.3047,4.2344,4.1605,4.0769,3.9388,3.8307,3.7458,3.6803,0.0,0.0,0.0,0.0,0.0,0.0,0.0,0.0,0.0,0.0,0.0,0.0,0.0,0.0,0.0,0.0,0.0,0.0,0.0,0.0,0.0,0.0,0.0,0.0,4.2165,4.3406,4.4114,4.4012,4.3718,4.3408,4.4379,4.5066,4.4967,4.4934,4.5175,4.5751,4.58,4.6005,4.6407,0.0,0.0,0.0,0.0,4.6455,4.6455,4.6789,4.6961,4.6945,4.6682,4.6471,4.6389,4.575,4.4996,4.4256,4.4256,4.4047,4.3658,4.3687,4.3964,4.4338,4.3789,4.3848,4.4281,4.4852,4.5159,4.5294,0.0,0.0,0.0,0.0,0.0,0.0,0.0,2.1858,2.3136,2.497,2.6599,2.8403,3.0552,3.1624,3.2681,3.3888,3.414,3.4562,3.5356,3.6723,3.7798,3.8437,3.9991,4.1409,4.2674,4.3725,4.457,4.5173,4.5433,4.5563,4.5589,4.5821,4.5947,4.5998,4.6228,4.635,4.6374,4.6495,4.6566,4.6548,4.643,4.5805,4.4898,4.4107,4.2961,4.1725,4.1424,4.0379,3.9122,3.898,3.8006,3.6838,3.6679,3.5668,0.0,0.0,0.0,0.0,0.0,0.0,0.0,0.0,0.0,0.0,0.0,0.0,0.0,0.0,0.0,0.0,0.0,0.0,0.0,4.2945,4.3711,4.4275,4.4901,4.5857,4.6125,4.5217,4.5096,4.5294,4.5814,4.5863,4.6123,4.6854,4.7055,4.7188,4.7251,4.7267,4.7267,4.7267,4.7267,4.7267,4.7267,4.7335,4.7403,4.7403,0.0,0.0,4.6405,4.6372,4.571,4.4596,4.4718,4.4471,4.401,4.4109,4.4452,4.4841,4.4731,4.478,4.4964,4.5459,4.5786,4.602,0.0,0.0,0.0,0.0,0.0,0.0,0.0,2.1889,2.3027,2.5093,2.6221,2.7676,2.9865,3.072,3.1732,3.323,3.3893,3.4586,3.5394,3.689,3.8065,3.8772,4.0919,4.2445,4.3172,4.4345,4.5131,4.5502,4.5615,4.5718,4.5795,4.5922,4.6073,4.6204,4.6332,4.6447,4.6518,4.6637,4.6684,4.6725,4.6754,4.6564,4.6156,4.527,4.4512,4.3796,4.3031,4.2021,4.0996,4.0586,3.9718,3.872,3.8345,3.7398,3.6363,0.0,0.0,0.0,0.0,0.0,0.0,0.0,0.0,0.0,0.0,0.0,0.0,0.0,0.0,4.0316,0.0,0.0,4.2766,4.4209,4.4777,4.5327,4.626,4.6867,4.6919,4.6203,4.629,4.6503,4.678,4.678,4.6994,4.7421,4.7554,4.7621,4.7737,4.7737,4.7737,4.7737,4.7737,4.7737,4.7737,4.7836,4.7853,4.7853,4.7853,4.772,4.7453,4.7421,4.6721,4.5527,4.5631,4.519,4.4338,4.4714,4.5052,4.5415,4.5606,4.5641,4.5597,4.602,4.6387,4.6695,0.0,0.0,0.0,0.0,0.0,0.0,0.0,2.1791,2.2768,2.4758,2.5506,2.6637,2.8734,2.9502,3.0567,3.2313,3.3562,3.4531,3.5228,3.6956,3.8234,3.8864,4.1608,4.3165,4.3264,4.4672,4.5502,4.5658,4.577,4.5897,4.5998,4.6048,4.6179,4.6405,4.6453,4.6542,4.6637,4.6795,4.6842,4.6842,4.6975,4.6998,4.6908,4.6015,4.5668,4.5432,4.42,4.3209,4.2416,4.1773,4.1007,4.0165,3.9517,3.8654,3.7755,3.7057,3.6287,0.0,0.0,0.0,0.0,0.0,0.0,0.0,0.0,3.8638,3.9761,3.9761,4.0774,4.1731,4.1888,4.3143,4.4396,4.5162,4.5671,4.635,4.7501,4.756,4.7378,4.7009,4.744,4.7721,4.7604,4.7604,4.7688,4.7836,4.7902,4.7968,4.8179,4.8179,4.8179,4.8179,4.8179,4.8179,4.8179,4.826,4.8292,4.8292,4.826,4.8356,4.8483,4.8324,4.7586,4.6378,4.63,4.5676,4.4752,4.5266,4.5658,4.5988,4.6357,4.6411,4.6363,4.6643,4.6949,4.7306,0.0,0.0,0.0,0.0,0.0,0.0,0.0,0.0,2.2424,2.2867,2.4365,2.5614,2.6162,2.7702,2.9187,3.0413,3.2035,3.3306,3.4038,3.665,3.8482,3.9207,4.1353,4.2804,4.3458,4.4327,4.5109,4.577,4.5897,4.5972,4.5998,4.6253,4.6357,4.6405,4.6637,4.6754,4.6795,4.6911,4.698,4.698,4.698,4.6998,4.6931,4.6235,4.5505,4.49,4.4721,4.3763,4.2589,4.2482,4.1457,4.02,4.011,3.9085,3.7881,3.7773,3.718,3.6535,3.6449,3.6774,3.7266,3.7782,3.8571,3.9203,0.0,4.0253,4.1341,4.1341,4.2456,4.3639,4.4355,4.4366,4.4734,4.6121,4.6629,4.7085,4.775,4.8307,4.8558,4.8318,4.8097,4.7968,4.7935,4.8049,4.8195,4.8388,4.853,4.8688,4.8877,4.8877,4.8877,4.8877,4.8877,4.8877,4.8877,4.8736,4.8639,4.8639,4.853,4.8483,4.8515,4.8483,4.7819,4.6621,4.5725,4.5411,4.5503,4.5684,4.6062,4.6525,4.6765,4.7071,4.7399,4.7262,4.7518,4.7893,0.0,0.0,0.0,0.0,0.0,0.0,0.0,0.0,0.0,2.2636,2.3579,2.4458,2.5143,2.6655,2.8049,2.9069,3.0747,3.2229,3.3359,3.5794,3.7671,3.873,4.0784,4.2259,4.2957,4.3724,4.4265,4.4579,4.4791,4.5115,4.5596,4.5752,4.6147,4.6754,4.6865,4.6962,4.708,4.7143,4.716,4.7075,4.6677,4.6498,4.6324,4.5663,4.4982,4.4383,4.4304,4.3931,0.0,4.2482,4.1778,4.1089,4.0147,3.9404,3.8769,3.8198,3.7784,3.7588,3.7846,3.8417,3.8963,3.9146,4.0014,4.0828,4.0785,4.1877,4.2938,4.2938,4.3722,4.4502,4.4851,4.5055,4.5468,0.0,4.7017,4.7592,4.8128,4.868,4.9001,4.8923,4.8798,4.861,4.842,4.8467,4.8656,4.9046,4.9138,4.9273,4.9513,4.9513,4.9513,4.9513,4.9513,4.95,4.9411,4.9333,4.9243,4.9152,4.8968,4.8984,4.906,4.8514,4.7632,4.6537,4.5837,4.5709,4.5963,4.6186,4.6525,4.6903,4.7169,4.7539,4.7913,4.777,4.7974,4.8364,0.0,0.0,0.0,0.0,0.0,0.0,0.0,0.0,0.0,0.0,2.2865,2.3533,2.4593,2.5747,2.6833,2.7763,2.944,3.1053,3.2454,3.4864,3.6845,3.8174,4.0061,4.1512,4.2424,4.2945,4.3419,4.3857,4.4078,4.4452,4.5046,4.5126,4.5609,4.6382,4.6427,4.6538,4.6672,4.6672,4.6647,4.6564,4.6076,4.5821,4.5649,4.4985,4.4335,4.3749,4.3672,4.3586,4.332,4.2032,4.1485,4.1137,3.9969,3.944,3.9115,3.8366,3.8264,3.8487,3.8852,3.9637,4.0363,4.0419,4.1342,4.2259,4.2445,4.3454,4.4337,4.4337,4.4899,4.5372,4.5372,4.568,4.609,4.6646,4.7119,4.762,4.8198,4.8731,4.9104,4.9104,4.9274,4.9333,4.9195,4.9043,4.9182,4.9708,4.9737,4.9884,5.0137,5.0154,5.0154,5.0154,5.0154,5.0097,4.9953,4.9913,4.9825,4.9696,4.9441,4.9411,4.9513,4.8468,4.7478,4.6583,4.6116,4.6087,4.6381,4.6619,4.6944,4.728,4.7578,4.7929,4.8285,4.8248,4.842,4.8714,0.0,0.0,0.0,0.0,0.0,0.0,0.0,0.0,0.0,0.0,0.0,0.0,0.0,2.4841,2.544,2.6376,2.8045,2.9655,3.1073,3.3958,3.6292,3.7739,3.9054,4.0496,4.2076,4.2026,4.2723,4.4284,4.4301,4.4351,4.4445,4.4555,4.4721,4.4886,4.4991,4.5072,4.5072,4.5072,4.5072,4.5072,4.5036,4.5036,4.4967,4.4357,4.3622,4.2954,4.2936,4.2559,4.1939,4.1119,4.0333,3.9659,3.9622,3.9057,3.8419,3.8323,3.8699,3.9175,3.9103,4.0143,4.1372,4.1899,4.2654,4.3432,4.4085,4.4855,4.5457,4.5457,4.6041,4.6554,4.6554,4.6339,4.6449,4.7232,4.6995,4.6999,4.7796,4.8428,4.8798,4.8798,4.9436,4.9982,0.0,4.9942,4.9884,5.0359,5.0369,5.0481,5.0766,5.0776,5.0776,5.0776,5.0776,5.0694,5.0557,5.0453,5.0313,5.0189,4.9854,4.9679,4.9656,4.8311,4.7412,4.6873,4.6395,4.6405,4.6801,4.7012,4.7302,4.7699,4.8048,4.8304,4.8513,4.8786,4.8891,4.8926,0.0,0.0,0.0,0.0,0.0,0.0,0.0,0.0,0.0,0.0,0.0,0.0,0.0,0.0,0.0,0.0,2.7079,2.8787,2.9707,3.2638,3.4757,3.569,3.6966,3.8401,4.001,3.9872,4.0308,4.1375,4.1457,4.1826,4.2409,4.2492,4.3208,4.4397,4.4455,4.4821,4.5388,4.5388,4.504,4.442,4.3972,4.3427,4.2809,4.2196,4.1865,4.1643,0.0,4.1161,4.1287,4.0529,4.0086,3.9756,3.9195,3.8747,3.8556,3.8976,3.9549,4.0149,4.0525,4.1781,4.2976,4.3019,4.3924,4.4894,4.5115,4.5721,4.6218,4.6218,4.6413,4.659,4.659,4.6542,4.6517,4.6702,4.7011,4.728,4.7413,4.8031,4.8464,4.8464,4.869,0.0,0.0,0.0,0.0,5.0884,5.0937,5.107,5.1393,5.1393,5.1393,5.1393,5.1315,5.1184,5.0999,5.0793,5.0602,5.0464,4.9781,4.9167,4.8612,4.7848,4.7116,4.6448,4.6648,4.6847,4.7035,4.7363,4.7702,4.8048,4.8208,4.8476,4.8786,4.8907,4.9044,4.9176,0.0,0.0,0.0,0.0,0.0,0.0,0.0,0.0,0.0,0.0,0.0,0.0,0.0,0.0,0.0,0.0,0.0,2.7428,2.8709,3.115,3.2968,3.3949,3.5219,3.6525,3.779,3.7954,3.8437,3.9205,3.9317,3.9679,4.0311,4.0655,4.147,4.2632,4.2923,4.3379,4.3962,4.3962,4.3616,4.3014,4.2593,4.2046,4.1447,4.0815,4.0437,0.0,3.9467,3.9522,3.9881,3.9657,3.9565,3.9458,3.882,3.8729,3.8929,3.936,4.0164,4.1053,4.1659,4.2789,4.3878,4.4221,4.5005,4.5761,4.6028,4.6255,4.6392,4.6392,4.6201,4.6028,4.6028,4.5988,4.6008,4.6176,4.6548,4.6852,4.6973,4.7643,4.8109,4.8109,4.8355,4.8615,0.0,0.0,0.0,5.0888,5.13,5.1629,5.1914,5.1651,5.1514,5.1501,5.1135,5.0784,5.0523,5.0344,5.011,4.9844,4.9264,4.8626,4.7841,4.7532,4.7058,4.6447,4.6842,4.7075,4.7258,4.76,4.7929,4.8247,4.8363,4.8605,4.8907,4.9027,4.916,4.9305,0.0,0.0,0.0,0.0,0.0,0.0,0.0,0.0,0.0,0.0,0.0,0.0,0.0,0.0,0.0,0.0,0.0,0.0,2.7886,2.9508,3.1034,3.2464,3.378,3.4818,3.5535,3.623,3.6974,3.7769,3.7769,3.7905,3.8152,3.8986,3.9485,3.9738,4.0506,4.0855,4.091,4.091,4.0873,4.0836,4.0836,4.0818,4.0708,4.0071,3.9311,3.8531,3.7951,3.7748,3.785,3.8519,3.877,3.8762,3.8593,3.9002,3.9507,3.9581,4.0582,4.183,4.2487,4.3236,4.4166,4.5471,4.5802,4.5998,4.677,4.6431,4.5942,4.5964,4.5458,4.5,4.5,0.0,4.5025,4.5646,4.5677,4.5848,4.6478,4.7251,4.7765,0.0,0.0,0.0,0.0,0.0,0.0,5.0359,0.0,5.2072,5.2214,5.1529,5.1131,5.1071,5.0308,4.9711,4.9341,4.9317,4.905,4.8521,4.8486,4.8082,4.7422,4.737,4.7146,4.6819,4.6957,4.7205,4.7533,4.7728,4.8014,4.8344,4.8514,4.8732,4.8943,4.9129,4.9244,4.9355,0.0,0.0,0.0,0.0,0.0,0.0,0.0,0.0,0.0,0.0,0.0,0.0,0.0,0.0,0.0,0.0,0.0,0.0,2.5632,2.7669,2.9265,3.0197,3.0955,3.1992,3.3369,3.3476,3.3913,3.473,3.4757,3.5181,3.5922,3.6181,3.7049,3.8405,3.8608,3.902,3.9579,3.9579,3.9242,3.8701,3.8701,3.8298,3.7706,3.764,3.7482,3.7254,3.7102,3.7054,3.7145,3.7771,3.8247,3.8666,3.9159,3.9322,3.9586,4.0727,4.1268,4.1749,4.2994,4.3921,4.4742,4.5574,4.5886,4.6006,4.6203,4.5735,4.5267,4.533,4.5189,4.5065,4.5065,4.5045,4.5057,4.5189,4.5685,0.0,4.6002,4.6692,0.0,4.7074,0.0,4.754,4.7719,4.8493,0.0,0.0,5.0119,5.0683,5.0868,5.0707,5.0602,5.0577,5.022,4.9996,4.9906,4.9501,4.9124,4.8801,4.8136,4.7791,4.7678,4.7077,4.6808,4.6819,4.7098,4.7403,4.7657,4.787,4.8172,4.8532,4.8569,4.882,4.9129,4.9179,4.9295,4.9471,0.0,0.0,0.0,0.0,0.0,0.0,0.0,0.0,0.0,0.0,0.0,0.0,0.0,0.0,0.0,0.0,0.0,0.0,0.0,2.6075,2.7246,2.8333,2.895,2.966,3.0467,3.1144,3.1691,3.2104,3.2562,3.3077,3.3648,3.4111,3.4909,3.5949,3.6292,3.6733,3.7163,3.7163,3.6901,0.0,0.0,3.613,3.5696,3.5757,3.5788,3.5788,3.5757,3.6174,3.6861,3.7489,3.8275,3.9067,3.9475,3.9925,4.0474,4.1341,4.1751,4.2157,4.3294,4.3916,4.4453,4.5176,4.5434,4.5498,4.5559,4.5075,4.4622,4.4644,4.4455,4.4278,4.4278,4.4278,4.4328,0.0,0.0,0.0,4.5964,4.6637,4.7098,0.0,4.7075,0.0,4.7334,4.7969,4.8394,0.0,4.9631,5.0393,5.0524,5.0257,5.0074,5.0015,4.9542,4.921,4.8952,4.8555,4.8253,4.7973,4.7475,4.7304,4.7358,4.6897,4.6754,4.6911,4.7187,4.745,4.772,4.797,4.8287,4.8605,4.8714,4.8925,4.9195,4.9228,4.9374,4.9567,0.0,0.0,0.0,0.0,0.0,0.0,0.0,0.0,0.0,0.0,1.9115,1.9024,0.0,0.0,0.0,0.0,0.0,0.0,0.0,0.0,2.5288,2.6732,2.7438,2.7763,2.768,2.9092,2.9803,2.9749,3.0561,3.1098,3.136,3.2198,3.2708,3.2974,3.366,3.4076,3.4249,3.4249,3.4266,3.4319,3.4319,3.4287,3.4205,0.0,3.4217,3.4206,3.4244,3.5236,3.6628,3.7322,3.8422,3.9493,3.9695,4.0526,4.1466,4.1702,4.2147,4.2751,4.344,4.3614,4.3811,4.4638,4.4746,4.4716,4.4859,4.4319,4.3824,4.3825,4.3341,4.2941,4.305,4.3068,4.3287,4.3862,0.0,4.5377,4.6002,4.6715,4.7216,4.7302,4.732,4.7385,4.7511,4.7657,4.7806,4.8032,4.9448,5.0354,5.0398,4.9873,4.9487,4.9334,4.8654,4.8052,4.7533,4.7312,4.7088,4.6865,4.6819,4.6819,4.6819,4.6819,4.6865,4.7002,4.7209,4.745,4.7738,4.8048,4.8363,4.8623,4.882,4.9029,4.9195,4.9292,4.9434,4.9623,0.0,0.0,0.0,0.0,0.0,0.0,0.0,0.0,0.0,0.0,1.8878,1.9024,0.0,0.0,0.0,0.0,0.0,0.0,0.0,0.0,0.0,2.5163,2.5847,2.647,2.7052,2.7239,2.7348,2.7399,2.7609,2.8155,2.9008,2.9276,2.9787,3.0516,3.0711,3.1172,3.1815,3.1815,3.2215,3.2852,3.2852,3.2788,3.2676,3.2685,0.0,0.0,3.3362,3.4468,3.5751,3.6597,3.7679,3.8917,4.0186,4.0599,4.087,4.2188,4.2598,4.2771,4.356,4.3755,4.3953,4.4743,4.452,4.4097,4.4233,4.3227,4.2341,4.2485,4.1967,4.1652,4.2261,4.2422,4.2643,4.3251,4.4015,4.4777,4.5379,4.6135,4.6813,0.0,4.7407,4.7511,4.7657,4.7827,0.0,0.0,4.8638,4.8861,4.888,4.8827,4.8698,4.8508,4.832,4.8048,4.7657,4.7425,4.7227,4.7133,4.6911,4.6865,4.6957,4.6842,4.6865,4.7002,4.7209,0.0,4.7738,4.8048,4.8363,4.8623,4.882,4.9029,4.9211,4.9337,4.948,4.9623,0.0,0.0,0.0,0.0,0.0,0.0,0.0,1.8737,1.879,1.8704,1.8878,1.9107,1.9368,1.9643,1.9853,0.0,0.0,0.0,0.0,0.0,0.0,0.0,0.0,0.0,2.4966,2.5801,2.6237,2.6228,0.0,2.7337,2.7875,2.8013,2.8327,2.8767,2.8822,2.9084,2.9487,2.9487,2.9702,3.0092,3.0505,3.0609,3.0628,0.0,0.0,0.0,0.0,3.4083,3.5098,3.5801,3.6971,3.8394,3.9859,4.0668,4.1233,4.2011,4.2402,4.2681,4.3077,4.3185,4.3294,4.373,4.3592,4.3255,4.301,4.2432,4.1884,4.1673,4.1368,4.1268,4.1656,4.211,4.2498,4.2749,4.3778,4.4638,4.4854,4.5904,4.6753,4.7014,4.7472,4.7806,4.7847,4.8032,4.819,4.8287,4.8513,4.8661,4.8661,4.8678,4.8624,4.8458,4.8306,4.8072,4.7747,4.7597,4.7403,4.7196,4.7066,4.702,4.6998,4.6934,4.6975,4.7111,4.7232,4.7454,4.7788,4.811,4.8438,4.8732,4.896,4.9162,4.9305,4.9449,4.9615,4.9778,0.0,0.0,0.0,0.0,0.0,0.0,1.8183,1.8294,1.8448,1.8688,1.8948,1.9196,1.9394,1.9657,1.9851,0.0,0.0,0.0,0.0,0.0,0.0,0.0,0.0,0.0,0.0,0.0,0.0,2.5227,2.6201,0.0,0.0,0.0,0.0,0.0,2.7274,2.745,2.7663,2.7663,2.7729,0.0,0.0,2.8728,0.0,0.0,0.0,0.0,0.0,3.3431,3.4194,3.4981,3.6055,3.7317,3.8752,4.0162,4.1307,4.1488,4.1975,4.2474,4.2456,4.2602,4.2765,4.286,4.2753,4.252,4.2068,4.1756,4.1421,4.0967,4.0785,4.0787,4.1003,4.1569,4.2108,0.0,4.3436,4.4322,4.4528,4.5607,4.6501,4.6829,4.7413,0.0,4.8092,4.8248,0.0,4.842,4.8715,4.8875,4.8876,4.8857,4.8786,4.8678,4.8458,4.8209,4.7893,4.7765,4.7551,4.7267,4.7219,4.7133,4.7043,4.7043,4.7088,4.7219,4.7338,4.756,4.7854,4.821,4.8532,4.8857,4.9129,4.9324,4.943,4.9585,4.9759,4.9893,0.0,0.0,0.0,0.0,0.0,0.0,1.8194,1.8406,1.8627,1.8769,1.9018,1.9272,1.9464,1.9676,1.9851,0.0,0.0,0.0,0.0,0.0,0.0,0.0,0.0,0.0,0.0,0.0,0.0,2.3705,2.4587,0.0,0.0,0.0,0.0,0.0,0.0,2.615,2.6897,2.6897,0.0,0.0,0.0,0.0,0.0,0.0,0.0,0.0,0.0,3.1845,3.2652,3.4156,3.4693,3.4987,3.6512,3.8313,4.0034,4.0766,4.15,4.2068,4.2067,4.2595,4.316,4.316,4.2614,4.2085,4.2171,4.1104,4.0086,4.0089,3.9619,3.9412,4.0089,4.0322,4.0873,0.0,0.0,4.3187,4.4575,4.4889,4.5497,4.691,0.0,0.0,4.8364,4.8457,4.8587,4.8839,4.9046,4.9131,4.9084,4.9068,4.9015,4.8891,4.8624,4.8381,4.8168,4.7845,4.7615,4.7468,4.729,4.7178,4.7196,4.7196,4.7196,4.7219,4.7529,4.7785,0.0,4.8402,4.8696,4.8926,4.9257,4.9399,4.9446,4.9755,4.9866,4.9925,0.0,0.0,0.0,0.0,0.0,0.0,1.8307,1.8473,1.8656,1.8842,1.9051,1.9282,1.9488,1.9719,1.9901,1.9984,0.0,0.0,0.0,0.0,0.0,0.0,0.0,0.0,0.0,0.0,2.2703,2.278,2.3214,0.0,0.0,0.0,0.0,0.0,0.0,2.4977,2.5337,2.5862,0.0,0.0,0.0,0.0,0.0,0.0,0.0,0.0,0.0,0.0,3.176,3.2795,3.3754,3.4622,3.5196,3.6575,3.8157,3.9268,4.0441,4.1383,4.1349,4.1571,4.1808,4.1774,4.1501,4.1189,4.0903,4.0347,3.9803,3.9471,3.919,3.9085,3.9429,3.9983,4.0587,4.1208,0.0,0.0,4.3577,4.4471,4.5273,4.5887,4.6848,0.0,0.0,0.0,4.8891,4.9062,4.9195,4.9244,4.923,4.9133,4.9032,4.8909,4.8697,4.8458,4.8267,4.801,4.7785,4.7615,4.7464,4.7338,4.7272,4.7272,4.7294,4.7381,4.7593,4.7866,0.0,4.8476,4.8803,4.9096,4.9321,4.9518,4.9726,4.9838,4.9992,5.0089,0.0,0.0,0.0,0.0,0.0,1.8348,1.8416,1.8542,1.8695,1.8887,1.9082,1.9309,1.9506,1.9743,1.995,2.0046,2.0159,0.0,0.0,0.0,0.0,0.0,0.0,0.0,0.0,0.0,2.1901,2.1966,2.2353,2.259,0.0,0.0,2.2946,2.3034,0.0,0.0,0.0,0.0,0.0,0.0,0.0,0.0,0.0,0.0,0.0,0.0,0.0,0.0,0.0,0.0,0.0,3.3669,3.4044,3.5086,3.6466,3.8021,3.9408,4.0441,4.0634,4.084,4.1009,4.0959,4.0776,4.048,4.006,3.9795,3.9507,3.9104,3.905,3.9092,3.9175,3.9732,4.0244,4.0486,0.0,4.2392,4.2857,4.3855,4.4736,4.5236,0.0,4.7539,0.0,4.8644,4.9228,4.9308,4.9371,4.9418,4.9387,4.9262,4.9131,4.8995,4.8803,4.8587,4.8363,4.817,4.797,4.7759,4.7636,4.749,4.7363,4.7407,4.7468,4.7575,4.7785,4.803,0.0,4.8605,4.8925,4.9244,4.943,4.9669,4.9912,4.9978,5.0089,5.0243,0.0,0.0,0.0,0.0,0.0,1.8416,1.8485,1.8603,1.8761,1.8887,1.914,1.9387,1.9585,1.9786,1.9981,2.018,2.0193,0.0,0.0,0.0,0.0,0.0,0.0,0.0,0.0,0.0,2.1136,2.12,2.214,2.2668,2.2799,2.287,2.2946,2.3009,0.0,0.0,0.0,0.0,0.0,0.0,0.0,0.0,0.0,0.0,0.0,0.0,0.0,0.0,0.0,0.0,0.0,0.0,0.0,3.3976,3.5072,3.733,3.8493,3.9197,3.9993,4.0732,4.1298,4.128,4.0705,4.0111,4.0092,3.9527,3.9026,3.9087,3.9156,3.9242,3.9373,3.9405,3.9666,4.0475,4.0606,0.0,4.2777,4.3019,4.3635,0.0,0.0,4.7158,4.8019,4.8995,4.9589,4.9608,4.9648,0.0,4.9608,4.948,4.9337,4.9195,4.9012,4.8768,4.8513,4.8363,4.8149,4.7899,4.7759,4.7636,4.7511,4.7636,4.7696,4.772,4.8111,4.8363,0.0,4.8855,4.9127,4.9321,4.9659,4.983,4.992,5.0114,5.0243,5.0302,0.0,0.0,0.0,0.0,0.0,0.0,1.8569,1.8686,1.8825,1.9009,1.9238,1.9467,1.9707,1.9918,2.0088,2.019,2.0245,0.0,0.0,0.0,0.0,0.0,0.0,0.0,0.0,2.0183,2.0361,2.0375,2.0776,2.1001,2.1096,2.1163,2.1234,2.1326,2.1935,2.224,0.0,0.0,0.0,0.0,0.0,0.0,0.0,0.0,0.0,0.0,0.0,0.0,0.0,0.0,0.0,0.0,0.0,0.0,0.0,3.5423,3.665,3.7744,3.8492,3.8832,3.91,3.9593,3.9116,3.8553,3.8595,3.802,3.7525,3.7584,3.8039,3.8456,3.8501,3.9039,3.9564,3.9796,4.0416,4.1249,0.0,0.0,0.0,4.4809,4.6247,4.7702,0.0,0.0,4.9802,4.9802,4.9792,4.9764,4.9736,4.9619,4.9418,4.9214,4.9012,4.8785,4.8569,4.8382,4.8228,4.8107,4.797,4.787,4.785,4.7888,4.7949,4.8048,4.8209,4.8439,4.8733,4.9012,4.9276,4.9529,4.9774,4.9939,5.0057,5.0219,5.0314,5.0382,0.0,0.0,0.0,0.0,0.0,0.0,1.8675,1.8769,1.8905,1.9112,1.9305,1.9532,1.9775,1.999,2.0134,2.0223,2.0,0.0,0.0,0.0,0.0,0.0,0.0,0.0,1.9982,1.9988,2.0024,2.0084,2.0169,2.0261,2.0334,2.041,2.0466,2.0522,2.1087,2.1367,0.0,0.0,0.0,0.0,0.0,0.0,2.5506,0.0,0.0,0.0,0.0,0.0,0.0,0.0,0.0,0.0,0.0,0.0,0.0,0.0,3.4959,3.5911,3.7287,3.7578,3.7631,3.8093,3.7838,3.748,3.7519,3.7167,3.6864,3.692,3.7368,3.7823,3.8147,3.8713,3.923,3.9555,4.0153,4.0936,0.0,0.0,0.0,4.5546,0.0,0.0,0.0,5.0005,5.0012,5.0012,4.9959,4.9912,4.983,4.9764,4.957,4.9292,4.9113,4.8926,4.8732,4.855,4.8401,4.8246,4.8151,4.8092,4.807,4.8092,4.8189,4.8323,4.8458,4.866,0.0,4.9144,4.9434,4.9692,4.9871,5.0044,5.0194,5.0302,5.0404,5.0483,0.0,0.0,0.0,0.0,0.0,0.0,0.0,1.8852,1.8991,1.9176,1.9387,1.958,1.9797,1.9986,2.0143,2.0296,1.9561,0.0,0.0,0.0,0.0,0.0,0.0,0.0,2.0002,2.0003,2.0088,2.0201,2.0262,2.0346,2.0396,2.0476,2.0503,2.0509,2.0562,2.0605,2.066,2.1523,2.2793,2.4232,2.4342,2.4802,0.0,0.0,0.0,0.0,0.0,0.0,0.0,0.0,0.0,0.0,0.0,0.0,0.0,0.0,0.0,0.0,0.0,3.6848,3.6845,3.6901,3.6864,3.6826,3.6826,3.6801,0.0,3.6836,3.6977,3.7366,3.8161,3.8463,3.8859,3.9671,3.9864,4.0492,0.0,4.253,0.0,0.0,4.7523,0.0,5.0047,5.0212,5.0212,5.0212,5.0231,5.0126,4.9933,4.9925,4.9769,4.9446,4.9308,4.9129,4.8909,4.884,4.8642,4.8325,4.8325,4.8286,4.8226,4.8305,4.8401,0.0,4.8804,4.8959,4.9042,4.9321,4.9566,4.9835,4.9965,5.0145,5.0325,5.0382,5.0493,5.0616,0.0,0.0,0.0,0.0,0.0,0.0,0.0,0.0,0.0,0.0,1.9442,1.965,1.9851,2.0016,2.0146,0.0,0.0,0.0,0.0,0.0,0.0,0.0,0.0,0.0,1.9183,1.9824,2.0195,2.0285,2.0339,2.0382,2.0405,2.0476,2.0532,2.0573,2.0583,2.0605,2.066,2.1522,2.2109,2.2534,2.3865,2.4475,0.0,0.0,0.0,0.0,2.5529,2.5976,0.0,0.0,0.0,0.0,0.0,0.0,0.0,0.0,3.2618,3.3705,3.4261,0.0,3.6284,3.6892,3.6584,3.6134,0.0,3.5708,3.53,3.531,3.6357,3.7332,3.7511,3.8661,3.9662,3.9905,4.0551,4.1393,4.247,4.3789,0.0,4.7484,4.7777,4.849,5.0195,5.0393,5.0427,5.0427,5.0371,5.0302,5.0219,5.012,4.9978,4.9783,4.9659,4.9387,4.8993,4.8926,4.8804,4.8697,4.8587,4.8514,4.8513,4.8624,4.8715,4.8821,4.9029,4.9211,4.9337,4.96,4.9802,4.9978,5.017,5.0325,5.0459,5.0535,5.0615,5.0701,0.0,0.0,0.0,0.0,0.0,0.0,0.0,0.0,0.0,0.0,1.9504,1.9713,1.9887,2.0026,2.0146,0.0,0.0,0.0,0.0,0.0,0.0,0.0,0.0,1.8983,1.8994,1.9822,2.0283,2.0353,2.0379,2.0426,2.0454,2.0489,2.0538,2.0597,2.0604,2.0605,2.0621,2.1093,2.1504,2.1871,2.2835,0.0,0.0,0.0,0.0,0.0,2.5322,2.557,0.0,2.6206,2.6903,2.7783,0.0,0.0,0.0,0.0,3.1865,3.271,3.3486,3.4537,3.549,3.5943,3.5717,3.5396,3.5396,0.0,0.0,3.481,3.5869,3.6921,3.7323,3.8514,3.9581,4.0022,4.0874,0.0,0.0,0.0,4.6061,4.7738,4.796,4.8662,0.0,5.0575,5.0595,5.0595,5.0565,5.0483,5.0393,5.0325,5.0175,5.0005,4.9925,4.9655,4.919,4.911,4.9029,4.8891,4.882,4.8784,4.8784,4.8926,4.9012,4.9113,4.9324,4.948,4.9596,4.9843,5.0044,5.0207,5.0337,5.047,5.0605,5.0673,5.0718,5.0808,0.0,0.0,0.0,0.0,0.0,0.0,0.0,0.0,0.0,0.0,0.0,0.0,0.0,0.0,0.0,0.0,0.0,0.0,0.0,0.0,0.0,0.0,1.8388,1.8929,1.8924,1.9847,2.0359,2.0421,2.0412,2.0443,2.0494,2.0498,2.0543,2.06,2.0605,2.0605,2.0604,2.0605,2.0995,2.1635,2.176,0.0,0.0,0.0,0.0,0.0,0.0,0.0,0.0,2.5901,2.6199,2.6566,2.8044,0.0,0.0,0.0,0.0,0.0,3.3181,3.4121,3.4669,3.4801,3.4839,3.4839,3.4839,0.0,0.0,0.0,0.0,3.6843,3.7595,3.849,0.0,4.0291,0.0,0.0,4.4284,4.5158,4.6264,4.7958,4.8151,0.0,5.0555,5.0729,5.0729,5.0729,5.0729,5.0683,5.0544,5.0542,5.0416,5.017,5.0158,4.9959,4.9503,4.9399,4.9273,4.9094,4.9059,4.9059,4.9077,4.9211,4.9308,4.9387,4.9644,0.0,4.9857,5.007,5.0248,5.0418,5.0513,5.0625,5.0738,5.0819,5.0866,5.0944,0.0,0.0,0.0,0.0,0.0,0.0,0.0,0.0,0.0,0.0,0.0,0.0,0.0,0.0,0.0,0.0,0.0,0.0,0.0,0.0,0.0,1.5676,1.7226,1.8079,1.8082,1.9643,2.0468,2.0478,2.0474,2.0494,2.0495,2.049,2.0547,2.0599,2.0602,2.0603,2.0603,2.0602,2.0677,2.0848,2.1535,0.0,0.0,0.0,0.0,0.0,0.0,0.0,0.0,2.5278,2.5742,2.6451,2.7395,0.0,0.0,0.0,0.0,0.0,3.2504,3.3363,3.4135,3.4877,3.5048,3.5048,3.5048,0.0,0.0,0.0,0.0,0.0,0.0,3.9552,4.0464,0.0,0.0,4.4333,0.0,0.0,4.641,4.816,0.0,4.9011,5.072,5.0874,5.0874,5.0874,5.088,5.0838,5.0757,5.0692,5.0586,5.0438,5.0446,5.0302,5.0005,4.9759,4.9604,4.9514,4.9384,4.9352,4.9352,4.954,4.9634,4.9663,0.0,5.0044,5.007,5.0337,5.0451,5.0497,5.0682,5.0791,5.0882,5.094,5.1016,5.1069,0.0,0.0,0.0,0.0,0.0,0.0,0.0,0.0,0.0,0.0,0.0,0.0,0.0,0.0,0.0,0.0,0.0,0.0,0.0,0.0,1.53,1.5297,1.6977,1.7904,1.79,1.9616,2.0495,2.05,2.0492,2.0506,2.0503,2.0544,2.0575,2.0599,2.06,2.0601,2.06,2.0556,2.055,2.0579,0.0,0.0,0.0,0.0,0.0,0.0,0.0,0.0,0.0,0.0,2.5342,2.5799,2.6602,0.0,0.0,0.0,0.0,0.0,3.234,3.2974,3.3574,3.4874,3.5143,3.5207,3.5644,0.0,0.0,0.0,0.0,0.0,0.0,0.0,4.1615,4.3034,0.0,4.4812,4.5737,4.6267,4.7022,0.0,0.0,4.9633,5.0886,5.1016,5.1004,5.1002,5.1007,5.0971,5.0909,5.0885,5.0791,5.0664,5.0212,4.9853,4.9626,4.902,4.8833,4.9051,4.8556,4.8315,4.8334,4.8935,4.921,4.9243,0.0,5.0314,5.0337,5.0575,5.0654,5.069,5.0847,5.0952,5.1009,5.1081,5.1141,5.1209,0.0,0.0,0.0,0.0,0.0,0.0,0.0,0.0,0.0,0.0,0.0,0.0,0.0,0.0,0.0,0.0,0.0,0.0,0.0,1.6174,1.5282,1.5302,1.6965,1.7902,1.7899,1.9616,2.0496,2.0496,2.0503,2.0495,2.0509,2.0572,2.0598,2.0597,2.0597,2.0596,2.0576,2.0526,2.0496,2.0503,0.0,0.0,0.0,0.0,0.0,0.0,0.0,0.0,0.0,0.0,0.0,0.0,0.0,0.0,0.0,2.864,2.9522,3.0569,3.234,3.2802,3.3207,3.4901,3.5223,3.5363,3.6183,0.0,0.0,0.0,0.0,0.0,0.0,4.1251,0.0,4.4382,4.477,4.5208,4.6104,4.6802,4.7623,4.8722,4.9431,5.0186,5.1035,5.1111,5.1117,5.1113,5.1126,5.1101,5.1042,5.0835,5.0669,5.0552,4.9713,4.9176,4.898,4.8125,4.793,4.8403,4.7796,4.7492,4.7542,4.8476,4.8898,4.8948,5.0076,5.0565,5.0585,5.0764,5.0858,5.0859,5.0984,5.1081,5.1153,5.1201,5.1273,5.1327,0.0,0.0,0.0,0.0,0.0,0.0,0.0,0.0,0.0,0.0,0.0,0.0,0.0,0.0,0.0,0.0,0.0,0.0,0.0,1.6106,1.5236,1.5308,1.6979,1.7895,1.7905,1.9614,2.0497,2.0497,2.0498,2.0504,2.0497,2.0569,2.0592,2.0606,2.0606,2.0564,2.0519,2.0507,2.0501,2.0497,2.0495,0.0,0.0,0.0,0.0,0.0,0.0,0.0,0.0,0.0,0.0,0.0,0.0,0.0,2.777,2.865,2.9518,3.0577,3.2323,3.2797,3.3214,3.4949,3.535,3.5504,3.6374,3.7217,0.0,3.8911,0.0,0.0,0.0,4.3151,4.4466,4.4666,4.5324,4.6123,4.7079,0.0,4.7941,4.9683,4.9941,5.0291,5.1103,5.1181,5.1181,5.1181,5.12,5.1184,5.1197,5.0348,4.9853,4.9788,4.8987,4.8484,4.8279,4.7469,4.7338,4.7861,4.7804,4.7766,4.7804,4.8747,4.9165,4.9233,5.0307,5.0775,5.0793,5.0925,5.0983,5.1004,5.1134,5.1224,5.1284,5.1281,5.135,5.1394,0.0,0.0,0.0,0.0,0.0,0.0,0.0,0.0,0.0,0.0,0.0,0.0,0.0,0.0,0.0,0.0,0.0,0.0,0.0,1.5779,1.521,1.5238,1.6945,1.7909,1.7905,1.9615,2.0498,2.0498,2.0507,2.0494,2.0498,2.0569,2.0591,2.0605,2.0562,2.0516,2.0506,2.0495,2.0503,2.0508,2.0499,2.048,0.0,0.0,0.0,0.0,0.0,0.0,0.0,0.0,2.5131,2.5164,2.5507,2.6556,2.774,2.8058,2.9187,3.0695,3.2404,3.2885,3.3346,3.5091,3.5907,3.6491,3.7286,3.8139,3.9022,3.9887,4.0798,0.0,0.0,0.0,4.4851,4.5415,4.6258,4.6964,4.731,4.8307,4.9231,4.9912,5.047,5.0932,5.1233,5.1269,5.1257,5.1257,5.1253,5.1027,5.0484,5.0125,4.9654,4.9109,4.8257,4.7761,4.765,4.6758,4.6428,4.6612,4.6483,4.6436,4.6455,4.7395,4.8094,4.8632,4.9674,5.043,5.0925,5.1024,5.1087,5.1139,5.1222,5.1304,5.1357,5.1357,5.1373,5.1402,0.0,0.0,0.0,0.0,0.0,0.0,0.0,0.0,0.0,0.0,0.0,0.0,0.0,0.0,0.0,0.0,0.0,0.0,1.625,1.5558,1.5173,1.5195,1.6928,1.7902,1.7905,1.9612,2.0497,2.0498,2.0492,2.0519,2.0521,2.059,2.059,2.0563,2.052,2.051,2.0494,2.0503,2.0506,2.0499,2.0483,2.0446,0.0,0.0,0.0,0.0,0.0,0.0,0.0,0.0,2.4931,2.5143,2.5197,2.635,2.7701,2.775,2.9017,3.0775,3.2505,3.2995,3.3454,3.5189,3.6488,3.746,3.7971,3.8749,3.9701,4.0835,4.2015,4.3228,4.4445,0.0,0.0,0.0,4.68,4.75,4.778,4.9069,5.0105,5.0371,5.0934,5.132,5.1335,5.1336,5.133,5.133,5.1079,5.0667,5.0069,4.9504,4.8948,4.8343,4.7474,4.6995,4.6922,4.6284,4.595,4.5923,4.578,4.5704,4.5679,4.6646,4.736,4.7948,4.9225,5.0099,5.0681,5.1017,5.1201,5.1261,5.1313,5.1369,5.1409,5.14,5.1406,5.1405,0.0,0.0,0.0,0.0,0.0,0.0,0.0,0.0,0.0,0.0,0.0,0.0,0.0,0.0,0.0,0.0,0.0,0.0,1.6233,1.5503,1.513,1.5195,1.6931,1.7905,1.7905,1.9606,2.051,2.05,2.0493,2.0521,2.0605,2.0591,2.0568,2.0498,2.0498,2.0507,2.0503,2.0492,2.0493,2.0485,2.0424,2.0405,2.0385,0.0,0.0,0.0,0.0,0.0,0.0,0.0,2.4479,2.5193,2.5193,2.6341,2.7719,2.7868,2.9083,3.0793,3.261,3.3095,3.3517,3.5271,3.6971,3.8227,3.8302,3.8949,4.0016,4.1768,4.3507,4.4722,4.4806,4.5517,0.0,4.6113,4.6837,4.7722,4.858,4.9461,5.0334,5.119,5.1294,5.134,5.1394,5.1408,5.1399,5.1399,5.0588,5.0085,5.0085,4.8445,4.7504,4.7494,4.6655,4.617,4.6102,4.6102,4.6072,4.6003,4.6003,4.5931,4.5826,4.6771,4.7185,4.7307,4.9096,4.9882,4.9965,5.0895,5.1327,5.1394,5.1394,5.1391,5.1405,5.1406,5.1405,5.1396,0.0,0.0,0.0,0.0,0.0,0.0,0.0,0.0,0.0,0.0,0.0,0.0,0.0,0.0,0.0,0.0,0.0,0.0,1.6182,1.5472,1.513,1.5193,1.6934,1.789,1.7893,1.9612,2.0501,2.0504,2.0558,2.0584,2.0605,2.0591,2.059,2.0563,2.052,2.049,2.0494,2.0496,2.0497,2.0499,2.0429,2.0391,2.0383,0.0,0.0,0.0,0.0,0.0,0.0,0.0,0.0,0.0,2.5201,2.6422,2.7844,2.7885,2.9142,3.0926,3.2633,3.3127,3.3726,3.6033,3.7477,0.0,0.0,4.0379,0.0,0.0,4.4409,4.4958,4.5609,4.5924,0.0,4.6913,4.7754,4.8643,4.9554,5.04,5.103,5.1327,5.1378,5.1372,5.1403,5.1396,5.1153,5.0536,5.0245,4.9584,4.8395,4.7849,4.7282,4.6676,4.6419,4.6257,4.6245,4.6193,4.6155,4.6131,4.6148,4.6078,4.5953,4.6279,4.6766,4.7368,4.7912,4.8514,4.9204,5.0087,5.0469,5.0547,5.1166,5.1406,5.1403,5.1395,5.1403,5.139,0.0,0.0,0.0,0.0,0.0,0.0,0.0,0.0,0.0,0.0,0.0,0.0,0.0,0.0,0.0,0.0,0.0,0.0,1.6158,1.5475,1.5121,1.5202,1.6902,1.8193,1.8924,1.9951,2.049,2.049,2.0564,2.061,2.0592,2.0596,2.0594,2.0608,2.0566,2.0516,2.0498,2.0506,2.0506,2.0499,2.0456,2.0421,2.041,0.0,0.0,0.0,0.0,0.0,0.0,0.0,0.0,0.0,2.5283,2.6245,2.7449,2.7831,2.897,3.0534,3.2628,3.321,3.3864,3.6444,3.7759,3.8894,4.08,0.0,0.0,0.0,4.5101,4.5527,4.6033,4.6138,0.0,4.7299,4.8179,4.9067,4.9972,5.0813,5.1349,5.1408,5.1399,5.1392,5.1409,5.1085,5.066,5.0136,4.9473,4.8808,4.8102,4.775,4.7476,4.7299,4.697,4.6776,4.6777,4.6424,4.6222,4.6195,4.6236,4.6184,4.6087,4.6119,4.6431,4.6945,4.7297,4.7964,4.8833,4.9409,4.9617,4.9663,5.0176,5.0367,5.0414,5.0766,5.0862,5.0878,0.0,0.0,0.0,0.0,0.0,0.0,0.0,0.0,0.0,0.0,0.0,0.0,0.0,0.0,0.0,0.0,0.0,0.0,0.0,1.5596,1.5219,1.5199,1.688,1.8644,2.0467,2.0503,2.0498,2.0498,2.057,2.0596,2.0599,2.0601,2.0599,2.0594,2.0594,2.0565,2.0503,2.0501,2.0499,2.0495,2.0493,2.0459,2.0416,2.0401,0.0,0.0,0.0,0.0,0.0,0.0,0.0,0.0,2.5388,2.5962,2.68,2.7722,2.8614,2.9898,3.2563,3.3304,3.396,3.666,3.7985,3.9526,4.285,4.3617,4.3868,4.4744,0.0,4.6197,4.6197,4.6192,4.6502,4.745,4.8272,4.9136,5.0071,5.0893,5.1408,5.1394,5.132,5.1273,5.1287,5.0488,4.998,4.9978,4.8564,4.8029,4.8768,4.8058,4.7973,4.8771,4.7953,4.751,4.7499,4.6705,4.6265,4.6191,4.6268,4.6263,4.6218,4.6219,4.6201,4.6255,4.7045,4.7836,4.858,4.8726,4.8788,4.8769,4.8784,4.8792,4.8907,4.9761,5.0043,5.0116,0.0,0.0,0.0,0.0,0.0,0.0,0.0,0.0,0.0,0.0,0.0,0.0,0.0,0.0,0.0,0.0,0.0,0.0,0.0,1.6445,1.579,1.5214,1.6929,1.8694,2.0467,2.0503,2.0498,2.0498,2.0573,2.0598,2.0599,2.0601,2.0601,2.06,2.0599,2.0595,2.0588,2.0519,2.0504,2.0505,2.0508,2.0491,2.0475,2.0412,2.0394,0.0,0.0,0.0,0.0,0.0,0.0,0.0,2.5259,2.6064,2.6912,2.7756,2.8656,2.9947,3.2594,3.3303,3.4092,3.7397,3.9371,4.1064,4.3197,4.368,4.41,4.5585,4.6056,4.6192,4.6192,4.6195,4.6705,4.8268,4.8677,4.933,5.0896,5.1291,5.1394,5.1393,5.0796,5.0389,5.0371,4.9587,4.907,4.9082,4.8759,4.863,4.8794,4.8613,4.8608,4.8791,4.7953,4.7491,4.7501,4.665,4.6216,4.6194,4.6264,4.6287,4.6288,4.6279,4.6287,4.6295,4.6478,4.6656,4.6891,4.7598,4.7849,4.7879,4.8535,4.8762,4.8831,4.9698,4.9971,5.0043,0.0,0.0,0.0,0.0,0.0,0.0,0.0,0.0,0.0,0.0,0.0,0.0,0.0,0.0,0.0,0.0,0.0,0.0,0.0,0.0,1.634,1.6443,1.7774,1.9141,2.0478,2.0497,2.0496,2.0503,2.0576,2.0816,2.1228,2.123,2.1426,2.1797,2.1797,2.1796,2.1773,2.1319,2.1116,2.1085,2.0678,2.0508,2.0498,2.0461,2.0448,2.0441,2.0447,0.0,0.0,0.0,0.0,0.0,0.0,0.0,2.6475,2.7727,2.844,2.9392,3.203,3.3028,3.4183,3.7647,0.0,4.0937,4.268,4.3406,4.4073,4.5361,4.593,4.6206,4.6206,4.6206,4.6621,4.7957,4.8526,4.9257,5.0585,5.1137,5.1241,5.0837,5.0371,4.9939,4.9525,4.8694,4.8347,4.8762,4.8413,4.8532,4.9322,4.9363,4.9543,4.994,4.8733,4.8074,4.8062,4.6791,4.6144,4.6139,4.6212,4.6248,4.6255,4.6289,4.6307,4.6308,4.6308,4.6307,4.6326,4.6767,4.6912,4.6917,4.7387,4.7506,4.7607,4.8865,4.9289,4.9404,0.0,0.0,0.0,0.0,0.0,0.0,0.0,0.0,0.0,0.0,0.0,0.0,0.0,0.0,0.0,0.0,0.0,0.0,0.0,0.0,0.0,1.7965,1.8763,1.9597,2.0489,2.0508,2.0494,2.0508,2.0579,2.1112,2.2109,2.1952,2.2322,2.3102,2.3102,2.3104,2.3047,2.2324,2.203,2.1966,2.1235,2.0955,2.0948,2.0955,2.095,2.0948,2.0959,2.1843,2.3041,2.3197,0.0,0.0,0.0,0.0,2.591,2.7515,2.8082,2.8735,3.1212,3.283,3.4608,3.7734,3.9172,0.0,4.2017,4.3076,4.3957,4.4817,4.5659,4.6221,4.6221,4.6221,4.6501,4.7375,4.8119,4.8906,4.9778,5.0505,5.0703,4.9961,4.9742,4.9362,4.8642,4.7789,4.7696,4.8713,4.8112,4.8441,5.012,5.0086,5.0291,5.0948,4.9353,4.8477,4.8453,4.6885,4.6099,4.6099,4.6154,4.6189,4.6193,4.6254,4.6283,4.6284,4.6276,4.6288,4.6285,4.623,4.6192,4.6173,4.6183,4.622,4.6484,4.8017,4.8631,4.8891,0.0,0.0,0.0,0.0,0.0,0.0,0.0,0.0,0.0,0.0,0.0,0.0,0.0,0.0,0.0,0.0,0.0,0.0,0.0,0.0,0.0,1.8792,1.9016,1.9546,2.0489,2.0508,2.0494,2.0508,2.0561,2.1406,2.2926,2.2165,2.2261,2.3096,2.3093,2.3094,2.3098,2.2981,2.2925,2.2929,2.2793,2.2754,2.2753,2.2749,2.2747,2.2747,2.2742,2.2892,2.3197,2.3957,2.4376,0.0,0.0,0.0,2.5784,2.6785,2.761,2.8612,3.0468,3.3269,3.6124,0.0,3.9243,4.0324,0.0,0.0,4.3957,0.0,4.5694,4.6297,4.6297,4.6297,4.6571,4.7431,4.7685,4.806,4.8945,4.916,4.9179,4.8994,4.8302,4.7805,4.7676,4.688,4.7025,4.8596,4.8615,4.927,5.0948,5.0379,5.0019,5.0067,4.8458,4.7548,4.7484,4.6562,4.611,4.609,4.6099,4.6134,4.6193,4.6219,4.6211,4.6207,4.6216,4.6206,4.6214,4.6198,4.6174,4.6119,4.6115,4.6523,4.724,4.8166,4.8915,4.9586,0.0,0.0,0.0,0.0,0.0,0.0,0.0,0.0,0.0,0.0,0.0,0.0,0.0,0.0,0.0,0.0,0.0,0.0,0.0,0.0,0.0,1.9001,1.9525,2.0023,2.0432,2.0488,2.0501,2.0508,2.0579,2.1465,2.3097,2.27,2.3259,2.456,2.4529,2.4507,2.4471,2.398,2.3772,2.3721,2.3244,2.3074,2.3096,2.3101,2.3102,2.3102,2.3103,2.3418,2.3886,2.4277,2.4723,2.5184,2.5531,0.0,0.0,0.0,2.7222,2.8003,3.0193,3.263,3.4964,0.0,3.8177,3.9489,4.0718,4.201,4.3222,4.4082,4.4961,4.5722,4.6205,4.6301,4.642,4.6814,4.7283,4.7734,4.8123,4.8568,4.8641,4.8125,4.7728,4.7312,4.6819,4.6391,4.6648,4.7875,4.7976,4.8482,4.9688,4.9405,4.9201,4.9165,4.7983,4.7326,4.729,4.6435,4.6019,4.6035,4.6042,4.6066,4.6089,4.6089,4.6135,4.6201,4.6167,4.6151,4.613,4.6131,4.6385,4.6761,4.6729,4.7208,4.8018,4.8827,4.9281,4.9605,0.0,0.0,0.0,0.0,0.0,0.0,0.0,0.0,0.0,0.0,0.0,0.0,0.0,0.0,0.0,0.0,0.0,0.0,0.0,0.0,0.0,1.9322,1.9995,2.0379,2.039,2.047,2.0492,2.0508,2.0579,2.1465,2.3093,2.3072,2.4009,2.5673,2.5617,2.5588,2.5527,2.4878,2.4722,2.4885,2.4216,2.4107,2.4347,2.4333,2.4339,2.434,2.434,2.4765,2.5347,2.5349,2.5635,2.5994,2.5996,2.5859,0.0,0.0,0.0,2.7836,3.0164,0.0,3.353,3.5505,3.6972,3.8281,0.0,0.0,4.2322,0.0,4.4234,4.5192,4.5859,4.615,4.6308,4.6308,4.6855,4.7263,4.7276,4.7771,4.7895,4.7242,4.7164,4.6913,4.6243,4.613,4.6459,4.7329,4.7383,4.7732,4.8554,4.8397,4.8269,4.8269,4.7425,4.6956,4.6931,4.6235,4.5899,4.5974,4.5962,4.5955,4.5958,4.5958,4.6118,4.6424,4.618,4.6206,4.6397,4.6386,4.6849,4.7572,4.7501,4.7976,4.8767,4.9341,4.962,4.9787,0.0,0.0,0.0,0.0,0.0,0.0,0.0,0.0,0.0,0.0,0.0,0.0,2.0626,2.0006,1.9616,1.9701,1.9763,1.9845,1.9939,2.0045,2.0107,2.0134,2.0249,0.0,2.0394,2.0465,2.0492,2.0508,2.0562,2.1464,2.3107,2.3033,2.3947,2.5607,2.5604,2.5556,2.5505,2.547,2.5903,2.6671,2.6555,2.6997,2.7733,2.7664,2.7698,2.7755,2.7755,2.7822,2.7912,2.791,2.7437,2.6844,2.6843,2.6316,2.5702,0.0,0.0,0.0,3.0332,3.1465,0.0,3.5351,3.6072,3.6792,0.0,0.0,4.1401,4.2299,4.3821,4.5013,4.5052,4.5737,4.6303,4.6302,4.6338,4.6371,4.6362,4.6351,4.6311,4.6268,4.6277,4.6224,4.6122,4.6095,4.647,4.734,4.7333,4.7686,4.8547,4.7822,4.737,4.737,4.6513,4.6038,4.5969,4.5867,4.5847,4.5906,4.5827,4.5814,4.5814,4.5814,4.6278,4.7001,4.6302,4.6471,4.7239,4.7178,4.763,4.8345,4.8265,4.8767,4.9523,4.9441,4.9894,5.0519,0.0,0.0,0.0,0.0,0.0,0.0,0.0,0.0,0.0,0.0,0.0,0.0,0.0,2.0933,2.0526,2.0584,2.0144,1.9892,1.999,2.0069,2.014,2.0207,2.0269,2.0324,2.0396,2.0466,2.0498,2.0501,2.052,2.1425,2.3102,2.3028,2.3915,2.5531,2.5543,2.5495,2.5464,2.5998,2.6361,2.6646,2.7142,2.7839,2.858,2.8555,2.889,2.936,2.9402,2.9434,2.9375,2.8892,2.8581,2.8293,0.0,0.0,2.6367,2.5848,2.6537,2.7593,0.0,0.0,0.0,3.2433,3.4345,3.6256,3.7174,3.8888,4.0506,4.1384,4.2511,4.3501,4.4069,4.5336,4.63,4.6291,4.6306,4.6278,4.6233,4.6215,4.6177,4.6146,4.6102,4.6071,4.6032,4.6005,4.6125,4.6471,4.648,4.6602,4.6909,4.6638,4.6477,4.6474,4.6116,4.5893,4.5852,4.5776,4.5754,4.5769,4.5754,4.5727,4.5746,4.6325,4.6727,4.6992,4.7287,4.7603,4.7942,4.7927,4.8346,4.9035,4.9024,4.9518,5.0231,5.0152,5.0263,5.0481,0.0,0.0,0.0,0.0,0.0,0.0,0.0,0.0,0.0,2.2909,0.0,0.0,0.0,0.0,2.1394,2.1173,2.0409,1.9961,2.0034,2.0084,2.013,2.0234,2.0288,2.0324,2.0396,2.0466,2.0498,2.0501,2.0501,2.1249,2.2669,2.2884,2.3744,2.5075,2.5321,2.5556,2.5803,2.6329,2.6822,2.7341,2.8122,2.893,2.9653,2.9896,3.0331,3.0853,3.0868,3.0879,3.0842,3.0388,3.008,2.9776,0.0,0.0,0.0,0.0,0.0,0.0,2.6965,0.0,0.0,0.0,3.2547,3.4557,3.5706,3.7281,3.8818,3.9989,4.1132,4.212,4.2685,4.4216,4.55,4.5785,4.6089,4.625,4.62,4.6189,4.6142,4.6078,4.6027,4.598,4.5969,4.5935,4.5917,4.596,4.596,4.5972,4.6005,4.5975,4.5978,4.5968,4.5893,4.5854,4.5807,4.5719,4.566,4.566,4.5616,4.5753,4.6052,4.6649,4.7181,4.7692,4.8288,4.8594,4.8681,4.8645,4.9102,4.9788,4.9779,5.0104,5.0572,5.0489,5.0416,5.0348,0.0,0.0,0.0,0.0,0.0,0.0,0.0,0.0,2.465,2.4707,0.0,0.0,0.0,0.0,0.0,2.1371,2.0516,2.0034,2.0108,2.0098,2.0158,2.0288,2.0295,2.0331,2.0394,2.0465,2.0492,2.0508,2.0506,2.0954,2.1812,2.2615,2.3426,2.4237,2.4974,2.5763,2.6532,2.6459,2.7363,2.8903,2.9629,3.0423,3.1238,3.1901,3.224,3.2383,3.2335,3.2364,3.2437,3.2545,3.2069,3.1279,0.0,0.0,0.0,0.0,0.0,0.0,0.0,0.0,0.0,0.0,0.0,0.0,3.4998,0.0,3.6342,3.8074,3.973,4.0899,4.0919,4.2357,4.3793,4.464,4.5556,4.6157,4.6157,4.6122,4.6066,4.6021,4.5989,4.596,4.5911,4.5905,4.5886,4.5905,4.5905,4.5923,4.5991,4.5943,4.5893,4.59,4.5821,4.5805,4.5781,4.5654,4.5605,4.5624,4.5495,4.5879,4.6742,4.6751,4.7652,4.9205,4.9224,4.9305,4.9413,4.9365,4.9825,5.0582,5.0521,5.05,5.0489,5.0424,5.0348,5.029,0.0,0.0,0.0,0.0,0.0,2.4723,2.4804,2.4865,2.4905,0.0,0.0,0.0,2.4587,2.3364,2.2228,2.1448,2.058,2.0093,2.0171,2.0178,2.02,2.0295,2.035,2.0375,2.039,2.047,2.0495,2.0494,2.0506,2.0952,2.1816,2.262,2.3402,2.4165,2.4904,2.5978,2.7229,2.7141,2.8025,2.9525,3.0246,3.1293,3.2485,3.3238,3.3899,3.4476,3.5083,3.5349,3.5333,3.4828,3.4239,3.3271,0.0,0.0,0.0,0.0,0.0,0.0,2.6052,0.0,0.0,0.0,0.0,0.0,0.0,0.0,3.5203,3.6328,3.7417,3.8373,3.8996,4.0489,4.1738,4.1964,4.3841,4.5247,4.5196,4.5677,4.6005,4.5931,4.5874,4.5854,4.5838,4.5771,4.5778,0.0,4.5834,4.5861,4.5917,4.5912,4.588,4.5821,4.5757,4.5708,4.5654,4.5577,4.583,4.6398,4.6349,4.68,4.7652,4.8186,4.866,4.9094,4.9671,4.9916,4.9916,5.0093,5.0238,5.0371,5.0359,5.0302,5.0207,5.0194,5.017,5.0158,0.0,0.0,0.0,0.0,0.0,2.4959,2.5019,2.5069,2.5082,0.0,0.0,0.0,2.5116,2.3962,2.3007,2.2561,2.1413,2.0742,2.0781,2.0438,2.0278,2.0337,2.0371,2.0407,2.0448,2.0478,2.0511,2.0539,2.0508,2.0751,2.1281,2.2426,2.3175,2.36,2.4676,2.6009,2.7418,2.7264,2.8321,3.0169,3.0828,3.1955,3.3308,3.4029,3.4802,3.5605,3.6417,3.6544,3.6311,3.626,3.5442,3.4067,0.0,0.0,0.0,0.0,0.0,0.0,0.0,0.0,0.0,0.0,0.0,0.0,3.042,3.1817,3.3214,3.4413,3.5363,3.6241,3.7114,3.8355,3.934,3.9708,4.1383,4.3015,4.4063,4.4594,4.4994,4.5318,4.5309,4.5375,4.5685,4.5708,4.5696,4.5708,4.5749,4.5778,4.5801,4.584,4.5812,4.5715,4.5684,4.5637,4.5559,4.5793,4.6147,4.6614,4.6925,4.7535,4.8395,4.882,4.9186,4.9482,4.9917,5.0089,5.007,5.0207,5.0243,5.0219,5.0219,5.017,5.0095,5.0095,5.0082,5.0057,0.0,0.0,2.4867,2.4999,2.5088,2.5136,2.5204,2.5215,2.5225,0.0,2.5214,2.5243,2.5307,2.4533,2.4045,2.4105,2.2674,2.1752,2.1759,2.104,2.0596,2.0565,2.0553,2.0542,2.0492,2.0493,2.0531,2.0583,2.0523,2.0542,2.0667,2.2183,2.2901,2.2985,2.4536,0.0,2.7272,2.7186,2.8543,3.0793,3.1347,3.2465,3.3844,3.4639,3.5426,3.6183,3.7031,3.6919,3.6466,3.715,3.6067,3.4271,3.3515,3.1777,0.0,0.0,2.7815,0.0,0.0,0.0,0.0,0.0,2.659,0.0,2.9602,3.0226,3.0752,3.2333,3.3339,3.4214,3.5104,3.5988,3.6859,3.7632,3.856,4.0111,4.2729,4.3136,4.3479,4.4329,4.4387,4.4596,4.5241,4.5439,4.5505,4.5453,4.5591,4.57,4.5692,4.575,4.5715,4.5588,4.5584,4.5589,4.5611,4.6181,4.6574,4.6765,4.7434,4.8205,4.903,4.8998,4.9398,5.0057,5.0005,4.9978,4.9965,4.9912,4.9952,5.007,5.007,5.0057,5.0057,5.0057,5.0018,4.9965,0.0,2.4942,2.5068,2.5147,2.5223,2.5287,2.5346,2.5355,2.5364,2.5363,2.5367,2.5376,2.5378,2.4648,2.4177,2.4174,2.3292,2.2736,2.2738,2.2621,2.2243,2.1567,2.1531,2.1192,2.0528,2.0495,2.0505,2.0526,2.0513,2.0834,2.1483,2.2382,2.3124,2.3744,2.5298,2.6412,2.7206,2.8241,2.9582,3.1069,3.1778,3.2915,3.4398,3.6337,3.7129,3.7381,3.883,3.9279,3.9067,3.816,3.6895,3.5495,3.4188,3.2681,3.1148,2.9832,0.0,0.0,0.0,0.0,0.0,0.0,2.5973,0.0,2.7184,2.7883,2.8694,2.9676,3.0563,3.1449,3.2322,3.371,3.4783,3.4956,3.6267,3.8176,4.0855,4.1815,4.2541,4.3293,4.3384,4.3382,4.3431,4.4075,4.4496,4.4465,4.5186,4.5616,4.562,4.5624,4.5607,4.5512,4.5466,4.5716,4.6305,4.6372,4.7106,4.8431,4.8578,4.9055,4.9771,4.9719,4.976,4.9843,4.9792,4.9764,4.9764,4.975,4.9792,4.9862,4.9862,4.9835,4.9778,4.9778,4.9778,4.9764,2.5038,2.5138,2.5229,2.5293,2.5356,2.5406,2.5449,2.5457,2.5468,2.5494,2.5505,2.5677,2.6097,2.5782,2.5714,2.6162,2.5038,2.4291,2.4295,2.354,2.292,2.2471,2.2453,2.2046,2.1171,2.1152,2.0936,2.0494,2.0467,2.0852,2.1665,2.2439,2.3386,2.4503,2.561,2.6843,2.8134,2.8673,3.009,3.2018,3.2358,3.3333,3.4795,3.661,3.751,3.8021,3.9575,4.0243,4.0137,3.8702,3.7647,3.6612,3.475,3.3478,3.2342,3.0493,2.9454,2.8652,0.0,0.0,0.0,2.5684,2.5685,0.0,0.0,2.6811,2.7395,2.8226,2.8738,2.932,3.0151,3.0996,3.1847,3.2698,3.355,3.4883,3.7107,3.8881,4.0253,4.1058,4.1489,4.1833,4.2182,4.2996,4.3503,4.3493,4.4334,4.4842,4.4853,4.5255,4.5467,4.5409,4.533,4.566,4.6431,4.6746,4.7523,4.8739,4.911,4.9487,4.9843,4.9835,4.9759,4.9692,4.9585,4.954,4.9495,4.9464,4.9464,4.951,4.9648,4.9648,4.9555,4.9555,4.9555,4.9555,2.522,2.5284,2.5357,2.5412,2.5468,2.5529,2.5512,2.5515,2.5609,2.5818,2.5856,2.6171,2.7059,2.7156,2.7426,2.8138,2.6894,2.6074,2.6073,2.4802,2.3902,2.357,2.3569,2.3098,2.2042,2.2036,2.1693,2.0989,2.0904,2.1294,2.2081,2.2705,2.3796,2.5212,2.5887,2.7251,2.9045,2.9217,3.0656,3.282,3.3294,3.42,3.538,3.6753,3.774,3.8597,4.0036,4.0551,4.0408,3.9156,3.8262,3.7345,3.5531,3.4246,3.3116,3.1371,3.0187,0.0,0.0,0.0,0.0,0.0,2.5705,2.5377,0.0,0.0,0.0,2.7026,0.0,0.0,0.0,0.0,0.0,3.0506,0.0,0.0,0.0,3.499,0.0,3.85,3.9221,3.9869,4.0645,4.1647,4.2372,4.2697,4.3406,4.3876,4.4028,4.4717,4.5156,4.5256,4.5181,4.5609,4.659,4.7087,4.7856,4.8821,4.9429,4.9678,4.963,4.963,4.9604,4.9514,4.9384,4.9305,4.9241,4.9179,4.9129,4.9146,4.9421,4.9434,4.9318,4.9318,4.9302,4.9305,2.5397,2.5426,2.5482,2.5482,2.5551,2.5582,2.5595,2.5581,2.5872,2.6655,2.6751,2.7078,2.7967,2.8046,2.8099,2.8188,2.7966,2.7825,2.7825,2.7639,2.6833,2.5295,2.5284,2.4544,2.2898,2.2866,2.2829,2.2721,2.2646,2.3006,2.3732,2.3753,2.4531,2.5925,2.6592,2.7616,2.8955,3.0698,3.1803,3.258,3.5016,3.6154,3.6563,3.8026,3.8975,3.9663,4.0643,4.0692,4.0246,4.0049,3.8746,3.7167,3.7,3.5099,3.2908,3.2958,3.147,2.968,2.9023,2.8358,2.7688,2.6982,2.6294,2.5855,2.6088,0.0,2.5103,2.5194,0.0,0.0,0.0,0.0,0.0,0.0,0.0,0.0,2.9363,3.0323,3.2439,3.6343,3.6878,3.7208,3.789,3.9332,4.0856,4.2337,4.2656,4.308,4.3805,4.3988,4.4391,4.5106,4.4991,4.5697,4.7264,4.724,4.8003,4.9589,4.9669,4.96,4.943,4.943,4.9371,4.9246,4.911,4.9042,4.9044,4.8959,4.8891,4.8875,4.9129,4.9144,4.9042,4.9042,4.901,4.896,2.546,2.5509,2.5554,2.5554,2.5581,2.5607,2.5646,2.6097,2.6526,2.6853,2.7344,2.816,2.9508,2.9618,2.9971,3.0895,3.049,2.9962,2.9403,2.8945,2.8151,2.6943,2.6435,2.5628,2.4426,2.3899,2.3387,2.2871,2.2831,2.316,2.3886,2.3825,2.4783,2.6611,2.7204,2.8385,3.0052,3.1576,3.2947,3.4218,3.557,3.6833,3.802,3.8843,3.9838,4.0923,4.1727,4.1633,4.1052,4.0602,3.9666,3.8513,3.7274,3.6095,3.4977,3.3886,3.2632,3.1456,3.0917,2.9915,2.8862,2.8224,2.753,2.6786,2.5991,2.5614,2.5291,2.4825,0.0,0.0,0.0,0.0,0.0,0.0,2.7039,0.0,0.0,0.0,2.981,3.3089,0.0,0.0,3.641,3.7181,3.8255,3.9901,4.0567,4.1287,4.212,4.3114,4.3839,4.4211,4.4587,4.5583,4.7278,4.7146,4.7922,4.9506,4.9449,4.9355,4.9292,4.9209,4.9127,4.9029,4.8926,4.8821,4.8715,4.8697,4.8606,4.8532,4.8642,4.8713,4.8767,4.8714,4.8678,4.8661,2.5565,0.0,2.5628,2.5628,2.5632,2.5712,2.5981,2.6561,2.7128,2.7527,2.833,2.939,3.082,3.1103,3.1669,3.283,3.2309,3.1621,3.0957,3.0369,2.9562,2.8485,2.783,2.7019,2.5962,2.512,2.4374,2.3725,2.3438,2.3551,2.405,2.4204,2.5206,2.6916,2.7693,2.9149,3.1073,3.2201,3.3785,3.56,3.6176,3.7597,3.9354,3.9679,4.0475,4.1537,4.2286,4.2278,4.186,4.1246,4.0573,3.9663,3.8121,3.7321,3.66,3.4987,3.3917,3.3134,3.2592,3.1365,3.0143,2.9771,2.8839,2.7732,2.673,2.6228,2.5846,2.5312,2.5074,0.0,0.0,0.0,0.0,0.0,0.0,2.6016,0.0,2.6726,0.0,0.0,0.0,0.0,0.0,3.5206,3.6036,3.7446,3.8601,3.9626,4.0515,4.2146,4.3202,4.3511,4.4239,4.5423,4.7081,4.6974,4.7725,4.9337,4.9211,4.9129,4.9113,4.8993,4.8891,4.8786,4.8697,4.8569,4.84,4.8381,4.8305,4.8209,4.819,4.8249,4.8364,4.8401,4.8381,4.8362,2.5697,2.5692,2.5708,2.5708,2.5703,2.5953,2.6737,2.6881,2.748,2.9106,3.0017,3.0816,3.1584,3.2297,3.2724,3.2701,3.2565,3.2463,3.2423,3.2423,3.1637,2.9918,2.9806,2.903,2.7362,2.655,2.6119,2.6081,2.5236,2.478,2.4685,2.5389,2.6051,2.6675,2.8061,2.9715,3.1558,3.2687,3.4204,3.599,3.7248,3.8833,4.0467,4.0689,4.0872,4.1129,4.1843,4.2203,4.2286,4.2243,4.1229,4.0028,4.0234,3.8788,3.6903,3.6443,3.5387,3.4202,3.3545,3.2469,3.1569,3.1685,3.0084,2.8529,2.8747,2.7589,2.6542,2.6686,2.6106,2.5597,0.0,0.0,0.0,0.0,0.0,0.0,0.0,0.0,0.0,0.0,0.0,0.0,0.0,3.3508,3.4726,3.5627,3.7162,3.8469,3.9406,4.1036,4.2377,4.3289,4.4027,4.5184,4.6799,4.6741,4.7535,4.9195,4.9077,4.8976,4.8909,4.884,4.8697,4.8513,4.8382,4.8286,4.8207,4.807,4.8012,4.7992,4.7872,4.7813,4.7854,4.811,4.813,4.8012,0.0,0.0,2.5702,2.5695,2.5702,2.5971,2.6776,2.7809,2.8864,2.992,3.0714,3.1894,3.375,3.4093,3.4571,3.5542,3.5536,3.5001,3.3834,3.3759,3.3026,3.1364,3.0744,2.9907,2.8815,2.7963,2.725,2.6733,2.6403,2.6176,2.6097,2.6246,2.6641,2.7257,2.8623,3.0044,3.1568,3.3695,3.538,3.6797,3.869,3.9707,4.0254,4.1465,4.1959,4.2087,4.2848,4.2827,4.2439,4.2439,4.1827,4.099,4.069,3.98,3.8785,3.8418,3.7293,3.6126,3.6104,3.5142,3.4036,3.3671,3.2425,3.1056,3.0168,2.9267,2.8336,2.7387,2.705,2.6767,0.0,0.0,0.0,0.0,0.0,0.0,0.0,0.0,0.0,0.0,0.0,0.0,0.0,3.0657,3.1913,3.4302,3.4947,3.6115,3.8169,3.9328,4.0611,4.2122,4.2928,4.4389,4.6587,4.6487,4.7274,4.8945,4.8803,4.8696,4.8642,4.8513,4.8401,4.8285,4.8169,4.801,4.7866,4.7824,4.7702,4.7539,4.7496,4.78,4.8291,4.846,4.8499,4.8529,2.576,2.5698,2.5697,2.5703,2.5925,2.6467,2.7545,2.8826,2.9917,3.0637,3.1871,3.3276,3.4764,3.5342,3.598,3.6871,3.6881,3.6335,3.5182,3.5089,3.4463,3.3127,3.2249,3.1396,3.0553,2.9426,2.8441,2.7606,2.7268,2.694,2.663,2.6837,2.7084,2.7435,2.9062,3.047,3.1757,3.4125,3.5938,3.7411,3.9644,4.0541,4.07,4.1966,4.241,4.2426,4.3182,4.3119,4.2723,4.2723,4.2286,4.1695,4.1372,4.0861,4.0297,3.9851,3.9105,3.832,3.8077,3.7209,3.6243,3.5722,3.4419,3.3054,3.2196,3.1319,3.0353,2.9139,2.8753,2.842,0.0,0.0,0.0,0.0,0.0,0.0,0.0,2.433,0.0,0.0,0.0,0.0,0.0,2.8813,3.0042,3.2351,3.3258,3.4445,3.6145,3.782,3.9423,4.0944,4.2085,4.3693,4.586,4.6089,4.6886,4.8272,4.8403,4.8438,4.8381,4.8248,4.8149,4.8087,4.7949,4.7785,4.7636,4.7593,4.7468,4.7298,4.7276,4.7738,4.8461,4.8573,4.8816,4.9118,2.5919,2.5754,2.5768,2.5804,2.6394,2.7408,2.9006,2.9877,3.0612,3.1378,3.3462,3.4849,3.4765,3.6068,3.6901,3.6812,3.6663,3.6555,3.645,3.6366,3.595,3.5076,3.4303,3.3456,3.252,3.0956,2.9727,2.8852,2.8003,2.7205,2.6462,2.7181,2.741,2.7285,2.9364,3.0945,3.2173,3.4059,3.5977,3.791,4.0094,4.1295,4.1829,4.2233,4.2228,4.2103,4.279,4.3035,4.3035,4.3066,4.2608,4.2064,4.2279,4.1915,4.1326,4.0768,4.0735,4.0656,3.9387,3.8655,3.8167,3.7814,3.6101,3.4557,3.4791,3.3723,3.2521,3.1886,3.1181,3.0498,2.9808,0.0,0.0,0.0,0.0,0.0,0.0,0.0,2.4161,0.0,2.4871,0.0,0.0,2.7944,2.9107,2.9922,3.2101,3.3429,3.3583,3.6571,3.8734,3.9793,4.1434,4.3083,4.4702,4.5568,4.6414,4.7298,4.79,4.8187,4.8168,4.805,4.7947,4.7861,4.7738,4.7615,4.7468,4.7341,4.728,4.7276,4.7259,4.7716,4.8414,4.8546,4.9113,4.9796,2.6634,2.6542,2.6689,2.7244,2.7482,2.8134,2.9713,3.0526,3.1659,3.3573,3.4185,3.5093,3.6744,3.716,3.752,3.7996,3.8006,3.7677,3.6955,3.6887,3.6495,3.555,3.5314,3.4797,3.3912,3.29,3.1935,3.0988,2.9597,2.8797,2.8587,2.8148,2.8182,2.8628,2.9631,3.106,3.2879,3.4791,3.7097,3.9522,4.0431,4.1054,4.1507,4.2139,4.2252,4.2108,4.2285,4.2365,4.2397,4.2523,4.2536,4.2467,4.2684,4.2313,4.1851,4.1947,4.1642,4.1239,4.1178,4.0778,4.0239,3.9566,3.8316,3.7201,3.6925,3.618,3.5236,3.4074,3.3724,3.3052,3.114,3.0097,0.0,0.0,0.0,0.0,0.0,0.0,0.0,2.3886,0.0,0.0,2.6253,2.67,2.7683,2.9631,3.0834,3.2043,3.3302,3.5258,3.7027,3.8576,4.0262,4.1901,4.3524,4.4985,4.6119,4.6941,4.7687,4.8028,4.7984,4.7842,4.772,4.7593,4.7468,4.7359,4.7267,4.7245,4.7178,4.7124,4.7709,4.8758,4.9936,4.996,5.0503,5.1182,2.7453,2.7322,2.7612,2.8681,2.879,2.9142,3.0406,3.1707,3.3002,3.4237,3.5157,3.6273,3.7809,3.8236,3.8677,3.9317,3.9358,3.9109,3.8589,3.8468,3.8183,3.7662,3.6891,3.6231,3.5683,3.4522,3.3314,3.2012,3.1111,3.0333,2.9642,2.9157,2.912,2.9468,3.0047,3.1219,3.2941,3.5374,3.7969,4.0512,4.0587,4.1081,0.0,4.2077,4.2109,4.1996,4.1916,4.198,4.2157,4.2591,4.2864,4.3041,4.3476,4.3472,4.3282,4.3188,4.2944,4.2629,4.2259,4.2016,4.1705,4.1098,4.0239,3.9416,3.8859,3.8303,3.7452,3.6035,3.5809,3.5279,3.3347,3.2179,0.0,0.0,0.0,0.0,0.0,0.0,0.0,0.0,2.4719,2.5211,2.6477,2.6303,2.694,2.8901,3.0048,3.107,3.1978,3.4151,3.603,3.746,3.9426,4.1126,4.243,4.439,4.5608,4.6061,4.7164,4.7663,4.7636,4.7554,4.749,4.7407,4.7316,4.7227,4.7196,4.7151,4.7066,4.7105,4.8229,4.9424,5.0548,5.0887,5.1315,5.169,2.8135,2.8078,2.8562,2.9842,3.0246,3.0628,3.1346,3.3042,3.4284,3.4417,3.6278,3.779,3.8356,3.916,3.9891,4.0402,4.0383,4.0328,4.0328,4.0141,4.0045,4.0026,3.8574,3.7676,3.7538,3.5947,3.4374,3.2861,3.2424,3.155,3.0219,3.0027,2.9943,3.0001,3.056,3.1634,3.3172,3.5837,3.8519,4.0929,4.0605,4.1218,4.2318,4.2028,4.1866,4.1833,4.1781,4.1928,4.2285,4.294,4.3343,4.3668,4.428,4.4689,4.4821,4.43,4.4295,4.4233,4.3046,4.2841,4.286,4.2311,4.1802,4.1287,4.062,4.0141,3.944,3.794,3.7727,3.7339,3.5825,3.4244,0.0,0.0,0.0,0.0,0.0,0.0,0.0,0.0,0.0,0.0,2.689,2.6453,2.6693,2.8075,2.9593,3.0451,3.0391,3.336,3.5491,3.6361,3.8833,4.0542,4.1355,4.3824,4.507,4.5068,4.6568,4.7302,4.7302,4.7298,4.7298,4.7276,4.7201,4.7156,4.7156,4.7043,4.7105,4.7421,4.8859,4.9886,5.0695,5.139,5.164,5.164,2.7911,2.8772,2.9653,2.9742,3.1832,3.3466,3.3346,3.3684,3.4634,3.6479,3.7476,3.8262,3.8974,3.9626,4.0054,4.016,4.0046,3.9932,3.9836,3.9797,3.9698,3.9534,3.9232,3.8986,3.8797,3.7138,3.613,3.5749,3.3121,3.1664,3.137,3.0162,2.9886,3.0418,3.1137,3.2995,3.5676,3.6481,3.8351,4.075,4.0439,4.1064,4.2142,4.1947,4.1784,4.1749,4.2317,4.2539,4.2639,4.2868,4.3381,4.3974,4.4373,4.4539,4.4607,4.4773,4.4854,4.4771,4.4202,4.4202,4.4069,4.2882,4.2635,4.2545,4.2047,4.1856,4.1452,4.018,3.9946,3.932,3.7187,3.5077,3.3158,0.0,0.0,2.916,2.8526,0.0,0.0,0.0,0.0,2.5959,2.6756,2.6783,2.7099,2.7971,2.9461,3.0333,3.0318,3.3312,3.5102,3.5261,3.8286,3.9945,4.0107,4.3271,4.4839,4.4856,4.6521,4.7302,4.7298,4.7227,4.7223,4.7201,4.7088,4.7043,4.7043,4.702,4.7677,4.8828,4.9646,5.0447,5.1181,5.1323,5.1359,5.1402,3.0128,3.0598,3.1279,3.1871,3.3113,3.4487,3.579,3.5926,3.6282,3.7412,3.8418,3.9299,4.0012,4.0326,4.0657,4.1062,4.0978,4.0858,4.0798,4.0655,4.0545,4.0438,3.9944,3.9565,3.9411,3.817,3.7068,3.6144,3.4665,3.3494,0.0,3.197,3.1814,3.211,3.3045,3.4427,3.6173,3.7334,3.8962,4.0707,4.0722,4.126,4.2077,4.1834,4.1907,4.2205,4.2568,4.3153,4.3737,4.3825,4.4151,4.462,4.5248,4.5498,4.5588,4.5436,4.5505,4.544,4.4852,4.4909,4.488,4.385,4.3793,4.3743,4.2719,4.2595,4.2402,4.1413,4.1219,4.0578,3.8431,3.6242,3.4345,3.3139,3.2043,3.101,3.0017,2.9295,2.8776,0.0,0.0,0.0,0.0,2.8567,2.8391,2.7982,2.9377,3.0194,3.0099,3.3055,3.4762,3.4834,3.789,3.9595,3.9696,4.2924,4.4533,4.4551,4.6167,4.6921,4.6921,4.6893,4.6888,4.6888,4.6819,4.6778,4.6813,4.724,4.8045,4.9054,4.9819,5.059,5.1298,5.1298,5.1246,5.1237,3.2302,3.2389,3.284,3.4037,3.4472,3.5395,3.7569,3.8133,3.8291,3.8205,3.9288,4.0235,4.0778,4.0928,4.1237,4.1827,4.1754,4.1653,4.1653,4.1471,4.1382,4.1533,4.0735,4.0221,4.0064,3.9202,3.8013,3.6441,3.6033,3.5145,3.3872,0.0,3.3668,3.3901,3.4889,3.5791,3.6661,3.8144,3.9585,4.0891,4.1048,4.1613,4.2317,4.1958,4.2268,4.2932,4.3058,4.3835,4.4768,4.4926,4.508,4.5368,4.6051,4.6423,4.6521,4.6128,4.6152,4.6123,4.544,4.5423,4.5468,4.4792,4.4828,4.4693,4.3452,4.3285,4.3165,4.2323,4.2021,4.1322,3.9421,3.7651,3.6028,3.4631,3.3905,3.3027,3.1802,3.1497,3.122,0.0,0.0,0.0,3.0349,3.0284,2.9723,2.8398,2.9607,3.0299,3.0118,3.2877,3.4591,3.486,3.7699,3.9466,3.9946,4.278,4.4304,4.4481,4.5911,4.659,4.659,4.659,4.659,4.659,4.659,4.6696,4.6908,4.7681,4.8434,4.9195,4.9983,5.0646,5.122,5.122,5.1158,5.1079,3.2641,3.3228,3.386,3.4609,3.6279,3.752,3.7541,3.9124,4.012,3.9595,4.0108,4.0549,4.062,4.106,4.1383,4.1448,4.134,4.1255,4.1255,4.1192,4.1382,4.1912,4.1739,4.1515,4.1248,4.0408,3.9478,3.852,3.6347,3.5203,3.5013,3.3672,3.3756,3.508,3.5592,3.6918,3.8716,3.8629,3.9735,4.1484,4.1195,4.1917,4.3051,4.2718,4.3026,4.3671,4.4306,4.4712,4.5059,4.5742,4.5965,4.6052,4.6227,4.6423,4.6617,4.6761,4.6813,4.6702,4.6156,4.6027,4.5947,4.55,4.5415,4.5326,4.4823,4.47,4.436,4.3148,4.2373,4.1435,3.9921,3.9469,3.869,3.6743,3.5814,3.5188,3.4751,3.3557,3.2772,3.2889,0.0,0.0,3.0906,3.082,3.0489,2.9687,3.0485,3.0956,3.0802,3.31,3.472,3.5399,3.7753,3.9669,4.104,4.2969,4.4296,4.5034,4.6106,4.659,4.659,4.659,4.659,4.659,4.659,4.6997,4.7758,4.8352,4.9078,4.9871,5.0576,5.0874,5.0945,5.0945,5.0918,5.0918,3.4558,3.4772,3.5293,3.6405,3.7198,3.8041,3.9175,3.9996,4.0502,4.06,4.081,4.0958,4.0958,4.1148,4.1295,4.1295,4.1198,4.1273,4.167,4.1585,4.1808,4.2397,4.2202,4.2064,4.1959,4.1435,4.0536,3.9233,3.833,3.7418,3.6436,3.594,3.5973,3.6502,3.7366,3.819,3.8947,4.0042,4.0937,4.1662,4.2285,4.2896,4.3409,4.3577,4.4065,4.4718,4.4973,4.5375,4.5824,4.6111,4.6223,4.6243,4.6439,4.6528,4.6633,4.6842,4.6876,4.6862,4.6639,4.6675,4.6614,4.5996,4.6011,4.6007,4.5406,4.5334,4.5175,4.4221,4.3074,4.2104,4.1588,4.0771,3.9807,3.869,3.798,3.7218,3.6196,3.5767,3.5236,3.4446,0.0,3.3718,3.3063,3.3011,3.2854,3.2469,3.1986,3.1638,3.1514,3.3701,3.5298,3.6079,3.7922,3.9646,4.118,4.2852,4.4052,4.4872,4.6277,4.6956,4.6973,4.7505,4.7495,4.7114,4.7548,4.7671,4.7636,4.8817,4.9477,4.9846,5.0601,5.0891,5.0891,5.0891,5.0891,5.0891,3.6266,3.6438,3.693,3.8151,3.8358,3.8837,4.025,4.0552,4.0747,4.1088,4.1088,4.1088,4.1157,4.1134,4.1111,4.1065,4.1196,4.1481,4.1869,4.1968,4.2262,4.2883,4.2695,4.2523,4.2442,4.225,4.1466,4.0053,3.9961,3.9211,3.7876,3.7978,3.8069,3.8164,3.9149,3.9631,3.9773,4.1143,4.1947,4.2294,4.3154,4.3749,4.4168,4.4467,4.5024,4.5597,4.5597,4.5952,4.6404,4.6404,4.6439,4.6509,4.6547,4.6633,4.6703,4.6858,4.6876,4.6876,4.6876,4.6996,4.6984,4.6548,4.6601,4.6602,4.5959,4.5938,4.5768,4.487,4.3876,4.3044,4.2684,4.1798,4.0912,4.0391,3.9831,3.905,3.7858,3.7784,3.7398,3.6212,3.6142,3.597,3.5382,3.5312,3.5171,3.4834,3.4112,3.3349,3.2601,3.4486,3.5956,3.6772,3.8503,4.017,4.1764,4.3114,4.4302,4.5327,4.6559,4.7264,4.7491,4.8146,4.8145,4.7715,4.8267,4.8345,4.8152,4.924,4.982,5.0012,5.0591,5.0792,5.0764,5.0764,5.0764,5.0764,3.7344,3.8071,3.8795,3.954,4.0055,4.0328,4.022,4.0694,4.1047,4.0935,4.0793,4.081,4.107,4.0982,4.0864,4.0721,4.1366,4.1746,4.1613,4.2159,4.2758,4.3369,4.3255,4.3077,4.281,4.2794,4.2342,4.1392,4.0724,4.0011,3.9282,3.9282,3.9566,4.0083,4.068,4.1272,4.1745,4.1657,4.2391,4.3654,4.3557,4.4329,4.5552,4.5346,4.5709,4.6298,4.6298,4.6423,4.6598,4.6598,4.6738,4.6858,4.6668,4.6738,4.6876,4.6876,4.6876,4.6876,4.6876,4.6876,4.6961,4.7132,4.7201,4.7073,4.6668,4.6601,4.6221,4.4956,4.4702,4.4224,4.2783,4.2473,4.2299,4.1743,4.1159,4.0604,4.0045,3.951,3.8973,3.8437,3.8357,3.8133,3.7508,3.7461,3.7133,3.6335,3.7012,3.646,3.4199,3.5473,3.6646,3.7461,3.9687,4.1619,4.3155,4.4066,4.5277,4.6793,4.6943,4.7378,4.8091,4.8233,4.8295,4.8295,4.8443,4.896,4.9688,4.9706,5.0038,5.0585,5.0612,5.0519,5.0415,5.0415,5.0415,5.0415,3.8762,3.8964,3.9285,3.9923,4.0119,4.0331,4.074,4.0897,4.1101,4.1481,4.1403,4.1534,4.2131,4.1711,4.1559,4.2022,4.2279,4.2569,4.2942,4.3064,4.3375,4.4007,4.3803,4.3635,4.3548,4.3414,4.2945,4.2142,4.1955,4.1458,4.0729,4.0729,4.0817,4.1026,4.1477,4.1789,4.1961,4.2726,4.3298,4.38,4.4705,4.5352,4.5771,4.6221,4.6509,4.6719,4.6719,4.6738,4.6807,4.6807,4.6842,4.6876,4.6807,4.6842,4.6876,4.6876,4.6876,4.6876,4.6876,4.6876,4.6927,4.6996,4.7115,4.7152,4.7058,4.6799,4.6501,4.6263,4.5798,4.5135,4.4175,4.3992,4.3671,4.262,4.2373,4.2104,4.1509,4.1459,4.1189,4.0516,4.0085,3.9542,3.8802,3.8254,3.7866,3.7626,3.7831,3.7521,3.6473,3.7335,3.8456,3.979,4.0532,4.1878,4.3931,4.4734,4.5631,4.6667,4.7867,4.8861,4.9656,4.9694,4.9443,4.9017,4.9567,4.9664,4.9482,4.9961,5.0282,5.0453,5.0453,5.0425,5.0415,5.0415,5.0415,5.0415,3.9684,3.9847,4.0115,4.052,4.053,4.0608,4.0977,4.0912,4.1027,4.166,4.1613,4.1912,4.2935,4.2567,4.2363,4.2602,4.2875,4.318,4.3505,4.3646,4.3878,4.4207,4.4027,4.3868,4.3793,4.3658,4.3367,4.2903,4.2638,4.2406,4.2208,4.1926,4.1914,4.2154,4.2348,4.2558,4.2778,4.3425,4.401,4.4577,4.5451,4.5969,4.6261,4.6714,4.6876,4.6876,4.6876,4.6876,4.6876,4.6876,4.6876,4.6876,4.6876,4.6876,4.6876,4.6876,4.6876,4.6876,4.6876,4.6876,4.6876,4.6876,4.6996,4.7149,4.7285,4.716,4.6979,4.6925,4.6527,4.598,4.5235,4.5102,4.4782,4.3752,4.3714,4.3518,4.2633,4.2699,4.2589,4.1911,4.1478,4.1077,4.0607,4.0153,3.988,3.988,3.988,3.9771,3.9543,3.9439,3.9979,4.1274,4.1878,4.3,4.4699,4.5475,4.6362,4.7431,4.8795,4.9727,5.0246,5.0302,5.007,4.9653,5.0178,5.0136,4.9754,5.0223,5.0313,5.02,5.02,5.0143,5.0057,5.0057,5.0057,5.0057,4.0177,4.0694,4.1186,4.1146,4.1105,4.1023,4.0888,4.0803,4.0967,4.157,4.1605,4.2064,4.3508,4.3569,4.3244,4.2683,4.327,4.3624,4.3504,4.3979,4.4224,4.4097,4.3969,4.3793,4.3598,4.3598,4.3598,4.3598,4.2903,4.292,4.3582,4.2886,4.2894,4.3484,4.327,4.3542,4.4088,4.3945,4.4609,4.5807,4.5856,4.6277,4.6876,4.6876,4.6876,4.6876,4.6876,4.6876,4.6876,4.6876,4.6876,4.6876,4.6876,4.6876,4.6876,4.6876,4.6876,4.6876,4.6876,4.6876,4.6876,4.6876,4.6876,4.6996,4.7403,4.7604,4.7556,4.7074,4.6974,4.6742,4.6013,4.5895,4.5694,4.51,4.5117,4.4792,4.3541,4.3428,4.3261,4.2717,4.2607,4.2626,4.274,4.2688,4.2654,4.2654,4.2654,4.2766,4.2954,4.1719,4.1346,4.213,4.3603,4.4716,4.5483,4.631,4.7476,4.8879,4.9648,5.0011,4.9993,5.012,5.0189,5.0189,5.0331,5.0341,5.0341,5.0341,5.0171,4.9866,4.9866,4.9737,4.9518,4.9518,4.9518,4.9518,4.0753,4.0844,4.0918,4.071,4.0638,4.0631,4.0607,4.0964,4.1486,4.2184,4.2673,4.3305,4.4253,4.4327,4.4259,4.4118,4.4253,4.4355,4.4327,4.4197,4.4126,4.4097,4.3835,4.3658,4.3598,4.3598,4.3598,4.3598,4.3416,4.3416,4.3598,4.3416,4.3714,4.4379,4.4243,4.4499,4.5014,4.5391,4.565,4.5856,4.6407,4.673,4.6876,4.6876,4.6876,4.6876,4.6876,4.6876,4.6876,4.6876,4.6876,4.6876,4.6876,4.6876,4.6876,4.6876,4.6876,4.6876,4.6876,4.6876,4.6876,4.6876,4.6876,4.6996,4.7403,4.7504,4.7588,4.7704,4.7736,4.7504,4.6775,4.6786,4.6662,4.6065,4.5613,4.529,4.5127,4.4643,4.4259,4.4118,4.3576,4.3203,4.323,4.2732,4.2392,4.2392,4.2392,4.277,4.363,4.3852,4.3915,4.3751,4.4665,4.55,4.632,4.7603,4.8758,4.9735,4.9907,5.0011,5.0011,5.0022,5.0051,5.0051,5.008,5.0005,4.9884,4.9884,4.9767,4.959,4.959,4.9577,4.9518,4.9518,4.9518,4.9518,4.084,4.0769,4.068,4.0534,4.051,4.0485,4.0412,4.0967,4.1639,4.2308,4.299,4.3724,4.4513,4.4615,4.4615,4.4615,4.4615,4.4615,4.4615,4.4286,4.4097,4.4097,4.3776,4.3598,4.3598,4.3598,4.3598,4.3598,4.3598,4.3598,4.3598,4.3598,4.3992,4.4688,4.4552,4.5006,4.5816,4.6011,4.617,4.6326,4.673,4.6876,4.6876,4.6876,4.6876,4.6876,4.6876,4.6876,4.6876,4.6876,4.6876,4.6876,4.6876,4.6876,4.6876,4.6772,4.6807,4.6876,4.6876,4.6876,4.6876,4.6876,4.6961,4.7115,4.7436,4.7537,4.7671,4.7935,4.8001,4.7917,4.7568,4.7581,4.7475,4.6971,4.6354,4.5854,4.5725,4.506,4.4733,4.5043,4.4722,4.4587,4.4925,4.4587,4.435,4.435,4.435,4.4659,4.5388,4.5781,4.5799,4.5372,4.6079,4.681,4.7614,4.8769,4.9579,5.0011,5.0011,5.0011,5.0011,5.0011,5.0011,5.0011,4.9889,4.9784,4.9708,4.9619,4.95,4.935,4.9307,4.9216,4.9155,4.9077,4.9046,4.9046,4.0673,4.0534,4.0461,4.0444,4.0436,4.0412,4.0288,4.0993,4.1706,4.2228,4.3047,4.3842,4.453,4.4615,4.4615,4.4615,4.4615,4.4615,4.4615,4.4315,4.4126,4.4097,4.3805,4.3628,4.3598,4.3598,4.3598,4.3598,4.3598,4.3598,4.3598,4.3598,4.4059,4.4854,4.4717,4.5352,4.6553,4.6371,4.6512,4.6876,4.6876,4.6876,4.6876,4.6876,4.6876,4.6876,4.6876,4.6876,4.6876,4.6876,4.6876,4.6876,4.6876,4.6876,4.6807,4.6652,4.6703,4.6823,4.6842,4.6876,4.6927,4.6927,4.7064,4.7251,4.747,4.7621,4.777,4.7984,4.8033,4.8082,4.8227,4.826,4.8187,4.7849,4.7171,4.654,4.6097,4.5399,4.5173,4.5788,4.5872,4.6109,4.6735,4.6786,4.6786,4.6786,4.6786,4.6903,4.7158,4.729,4.7227,4.6904,4.7534,4.8224,4.8965,4.9666,5.0011,5.0011,5.0011,5.0011,5.0011,4.9964,4.9964,4.9935,4.9755,4.9649,4.9619,4.95,4.932,4.9138,4.9001,4.8894,4.8738,4.8547,4.8515,4.8515,4.0404,4.0355,4.0288,4.0171,4.0146,4.0163,4.0121,4.1289,4.2178,4.2286,4.3548,4.4479,4.4598,4.4615,4.4615,4.4615,4.4615,4.4615,4.4615,4.4384,4.4224,4.4097,4.3939,4.3763,4.3598,4.3598,4.3598,4.3598,4.3598,4.3598,4.3598,4.3598,4.434,4.5616,4.5412,4.6076,4.7306,4.7122,4.6967,4.6876,4.6876,4.6876,4.6876,4.6876,4.6876,4.6876,4.6876,4.6876,4.6876,4.6876,4.6876,4.6876,4.6876,4.6772,4.6633,4.6617,4.6493,4.6439,4.6598,4.6772,4.6927,4.7098,4.7183,4.7285,4.7605,4.7671,4.7803,4.8098,4.8163,4.8227,4.842,4.8595,4.8673,4.8618,4.8101,4.7639,4.7567,4.6921,4.6498,4.6616,4.6616,4.6667,4.6786,4.6786,4.6786,4.6786,4.6786,4.6874,4.7031,4.779,4.8242,4.8295,4.8512,4.8999,4.9821,4.9942,5.0011,5.0011,5.0011,5.0011,5.0011,4.9813,4.9755,4.9737,4.959,4.9441,4.929,4.926,4.9094,4.8863,4.8832,4.869,4.8547,4.8515,4.8515,4.8515,4.033,4.0238,4.0163,4.0096,4.0096,4.0096,4.0096,4.1365,4.2286,4.2286,4.365,4.4615,4.4615,4.4615,4.4615,4.4615,4.4615,4.4615,4.4615,4.4412,4.4281,4.4196,4.3998,4.3809,4.3598,4.3598,4.3598,4.3598,4.3598,4.3598,4.3598,4.3598,4.4191,4.5218,4.5395,4.6026,4.6913,4.7122,4.7064,4.6876,4.6876,4.6876,4.6876,4.6876,4.6876,4.6876,4.6876,4.6842,4.6738,4.6738,4.6684,4.658,4.658,4.6493,4.6423,4.6349,4.6404,4.6493,4.6582,4.6738,4.6961,4.7149,4.7285,4.742,4.7638,4.7836,4.8,4.8163,4.8292,4.842,4.8627,4.8738,4.8801,4.8894,4.8331,4.7889,4.7889,4.7276,4.6938,4.7361,4.7394,4.7547,4.7953,4.7986,4.7986,4.7986,4.7986,4.803,4.818,4.8609,4.8928,4.9164,4.9355,4.9556,4.986,4.983,4.9801,4.9742,4.9742,4.9742,4.9713,4.9637,4.959,4.959,4.9411,4.929,4.9199,4.9107,4.8987,4.8769,4.8675,4.8532,4.8324,4.8276,4.8244,4.8244,4.0263,4.0163,4.0096,4.0096,4.0096,4.0163,4.0333,4.1441,4.2354,4.2523,4.3741,4.4615,4.4615,4.4615,4.4615,4.4615,4.4615,4.4615,4.4615,4.4468,4.4338,4.431,4.4039,4.3809,4.3598,4.3598,4.3598,4.3598,4.3598,4.3598,4.3598,4.3568,4.3949,4.466,4.5169,4.5733,4.6356,4.6907,4.703,4.6876,4.6876,4.6876,4.6842,4.6842,4.6807,4.6754,4.6754,4.6668,4.6528,4.6528,4.6439,4.6298,4.6298,4.6278,4.6243,4.6132,4.6314,4.6528,4.6582,4.6772,4.703,4.7217,4.7403,4.7588,4.777,4.8,4.8227,4.8324,4.8468,4.8627,4.8801,4.8849,4.8894,4.897,4.8545,4.8173,4.8173,4.7665,4.753,4.8075,4.8173,4.8392,4.8951,4.9001,4.9001,4.9001,4.9001,4.9032,4.9138,4.9199,4.935,4.9649,4.983,4.983,4.9649,4.9649,4.959,4.9518,4.9518,4.9518,4.9518,4.9458,4.9428,4.9411,4.9229,4.9138,4.9138,4.9001,4.8863,4.8707,4.8532,4.8324,4.8147,4.8033,4.8001,4.8001,4.0138,4.0113,4.0096,4.0096,4.0096,4.0333,4.1018,4.1779,4.254,4.325,4.4062,4.4615,4.4615,4.4615,4.4615,4.4615,4.4615,4.4615,4.4615,4.4587,4.4497,4.431,4.4039,4.3809,4.3598,4.3598,4.3598,4.3598,4.3598,4.3598,4.3598,4.3462,4.3798,4.4539,4.4884,4.544,4.614,4.6687,4.6911,4.6876,4.6876,4.6772,4.6617,4.6617,4.6493,4.6333,4.6333,4.6333,4.6333,4.6333,4.6298,4.6298,4.6298,4.6223,4.6096,4.6096,4.6223,4.6369,4.6563,4.6876,4.7217,4.7436,4.7588,4.777,4.8098,4.8195,4.8308,4.8675,4.8786,4.8801,4.894,4.897,4.9001,4.9001,4.8951,4.8934,4.8934,4.8883,4.8866,4.8917,4.8934,4.8951,4.9001,4.9001,4.9001,4.9001,4.9001,4.9001,4.9001,4.9138,4.929,4.9518,4.9649,4.9666,4.9518,4.95,4.9518,4.9518,4.9518,4.9518,4.9488,4.932,4.9229,4.9199,4.9094,4.9001,4.9001,4.8863,4.8707,4.8515,4.8292,4.8147,4.8001,4.8001,4.8001,4.8001,4.0096,4.0096,4.0096,4.0096,4.0096,4.0367,4.1085,4.183,4.2557,4.3291,4.4096,4.4615,4.4615,4.4615,4.4615,4.4615,4.4615,4.4615,4.4615,4.4615,4.4485,4.4184,4.4068,4.391,4.3598,4.3598,4.3568,4.3479,4.3479,4.3402,4.3295,4.3235,4.3352,4.3664,4.4592,4.5163,4.5456,4.6356,4.6703,4.6703,4.6563,4.6474,4.6388,4.6388,4.6369,4.6298,4.6298,4.6243,4.6203,4.6203,4.608,4.5972,4.5972,4.5952,4.5952,4.6152,4.6243,4.6369,4.6703,4.6996,4.7251,4.7436,4.7588,4.7803,4.813,4.8292,4.8452,4.8738,4.8863,4.8956,4.9001,4.9001,4.9001,4.9001,4.9001,4.9001,4.9001,4.9001,4.9001,4.9001,4.9001,4.9001,4.9001,4.9001,4.9001,4.9001,4.9001,4.9001,4.9001,4.9671,5.0223,5.0544,5.081,5.0649,5.0053,5.0495,5.0447,4.9865,4.9865,4.9627,4.9185,4.9032,4.8956,4.894,4.8784,4.8673,4.8673,4.8627,4.85,4.8324,4.8227,4.8163,4.8115,4.8115,4.8212,4.8292,4.0096,4.0096,4.018,4.0417,4.0468,4.0764,4.1745,4.232,4.2912,4.369,4.4248,4.4615,4.4615,4.4615,4.4615,4.4615,4.4615,4.4615,4.4615,4.4542,4.4384,4.4097,4.4056,4.3894,4.3598,4.3568,4.3492,4.3402,4.3342,4.3251,4.3113,4.3052,4.3037,4.3086,4.409,4.4659,4.4902,4.5796,4.632,4.6493,4.6298,4.6207,4.6136,4.6084,4.6012,4.5941,4.5941,4.59,4.5807,4.5807,4.5735,4.5625,4.5625,4.5662,4.5755,4.6171,4.6298,4.6369,4.6772,4.7098,4.7335,4.7486,4.7688,4.7935,4.8227,4.8452,4.8658,4.8832,4.8956,4.9001,4.9001,4.9001,4.9001,4.9001,4.9001,4.9001,4.9001,4.9001,4.9001,4.9001,4.9001,4.9001,4.9001,4.9001,4.9001,4.9001,4.9221,4.9472,4.9788,5.0481,5.0992,5.1297,5.1726,5.1687,5.1019,5.1274,5.1091,5.0439,5.0392,5.0004,4.928,4.9106,4.8925,4.8707,4.8547,4.8515,4.8483,4.842,4.8324,4.8195,4.813,4.8163,4.8195,4.8195,4.8324,4.8483,4.0096,4.0096,4.035,4.1068,4.1204,4.1711,4.3172,4.3392,4.369,4.4496,4.4615,4.4615,4.4615,4.4615,4.4615,4.4615,4.4615,4.4615,4.4615,4.4412,4.4253,4.4097,4.3969,4.3793,4.3598,4.3479,4.3402,4.3419,4.3204,4.3113,4.3096,4.2945,4.2899,4.2901,4.3331,4.3878,4.4521,4.5058,4.5693,4.6262,4.6136,4.5972,4.5771,4.5557,4.5373,4.5182,4.5182,4.5182,4.5182,4.5182,4.5182,4.5182,4.5182,4.5331,4.5609,4.6136,4.6298,4.6369,4.6789,4.7183,4.752,4.752,4.7853,4.826,4.8452,4.8658,4.8849,4.897,4.9001,4.9001,4.9001,4.9001,4.9001,4.9001,4.9001,4.9001,4.9001,4.9001,4.9001,4.9001,4.9001,4.9001,4.9001,4.9001,4.9001,4.9018,4.9678,5.0517,5.1456,5.1522,5.1522,5.1539,5.2238,5.2515,5.2317,5.1589,5.1202,5.1202,5.1072,5.0604,4.9897,4.967,4.9187,4.8515,4.8483,4.8483,4.8483,4.8292,4.8195,4.8195,4.8066,4.8082,4.8195,4.8195,4.8324,4.8483,4.0096,4.051,4.0933,4.117,4.1627,4.2286,4.324,4.3392,4.369,4.4496,4.4615,4.4615,4.4615,4.4615,4.4615,4.4615,4.4615,4.4542,4.4412,4.4241,4.4039,4.3776,4.3717,4.3628,4.3462,4.3265,4.3143,4.3054,4.2992,4.2852,4.2618,4.2571,4.2476,4.2382,4.3008,4.3648,4.4303,4.4697,4.5271,4.59,4.5609,4.5426,4.5368,4.5315,4.5241,4.5182,4.5182,4.5092,4.5002,4.5129,4.5092,4.5002,4.5182,4.5331,4.5552,4.5864,4.61,4.6369,4.6633,4.7098,4.752,4.752,4.777,4.8147,4.842,4.8564,4.8658,4.894,4.9001,4.9001,4.9001,4.9001,4.9001,4.9001,4.9001,4.9001,4.9001,4.9001,4.9001,4.9001,4.9001,4.9001,4.9001,4.9001,4.9221,4.9729,5.06,5.1441,5.2238,5.2479,5.2814,5.3232,5.3471,5.3493,5.3261,5.2975,5.2536,5.1978,5.1848,5.1109,4.9897,4.9556,4.8975,4.8292,4.8179,4.8147,4.8147,4.8082,4.8049,4.8066,4.8001,4.8082,4.8227,4.8356,4.8532,4.8675,4.0527,4.1119,4.1728,4.2033,4.2455,4.2997,4.3758,4.3876,4.4045,4.4547,4.4615,4.4615,4.4615,4.4615,4.4615,4.4615,4.4542,4.4412,4.4224,4.4039,4.3776,4.3539,4.3372,4.3312,4.3281,4.3113,4.2945,4.2775,4.2744,4.2539,4.2286,4.2286,4.2206,4.2125,4.2508,4.3226,4.4134,4.4167,4.4768,4.5662,4.5241,4.5055,4.4942,4.4867,4.4792,4.4716,4.4716,4.4625,4.4549,4.4663,4.4701,4.4701,4.4905,4.5182,4.5442,4.5698,4.6024,4.6278,4.6528,4.6911,4.7285,4.7369,4.7721,4.8115,4.8324,4.8452,4.8547,4.8767,4.8877,4.8925,4.8925,4.897,4.9001,4.9001,4.9001,4.9001,4.9001,4.9001,4.9001,4.9001,4.9001,4.9001,4.9001,4.9001,4.9424,5.0456,5.1395,5.2287,5.3118,5.3393,5.3695,5.3996,5.398,5.3882,5.3634,5.3517,5.3264,5.2773,5.2522,5.1816,5.0624,4.9976,4.9227,4.853,4.8149,4.8001,4.8001,4.8001,4.8001,4.8001,4.8001,4.8082,4.8227,4.842,4.8627,4.8769,4.1305,4.188,4.2608,4.3274,4.3443,4.3758,4.4496,4.4615,4.4615,4.4615,4.4615,4.4615,4.4615,4.4615,4.4598,4.457,4.4395,4.4224,4.4068,4.3776,4.3539,4.3342,4.3054,4.2945,4.3052,4.2914,4.2775,4.2571,4.2445,4.227,4.2077,4.2077,4.2077,4.2045,4.1915,4.266,4.3929,4.3551,4.4176,4.5389,4.5002,4.4723,4.4549,4.4358,4.4166,4.3988,4.3988,4.3988,4.3988,4.3988,4.4104,4.432,4.4511,4.483,4.522,4.5625,4.588,4.6132,4.6474,4.6703,4.6911,4.7098,4.7638,4.813,4.8163,4.8324,4.8452,4.8483,4.8627,4.8769,4.8769,4.8863,4.897,4.897,4.897,4.897,4.9001,4.9001,4.9001,4.9001,4.9001,4.9001,4.9001,4.912,4.9796,5.12,5.216,5.3068,5.3913,5.411,5.4143,5.4013,5.398,5.3833,5.3534,5.3501,5.3501,5.3518,5.3093,5.2501,5.1765,5.0773,4.9906,4.9177,4.8431,4.81,4.81,4.8034,4.8034,4.81,4.81,4.8231,4.8395,4.862,4.8797,4.8971,4.2049,4.2658,4.3189,4.3358,4.3927,4.4412,4.4581,4.4615,4.4615,4.4615,4.4615,4.4615,4.4615,4.4615,4.4542,4.4367,4.4241,4.401,4.3717,4.3628,4.3419,4.3023,4.293,4.279,4.2571,4.2508,4.2413,4.2206,4.2174,4.2093,4.1947,4.1947,4.185,4.172,4.167,4.2378,4.35,4.3255,4.3873,4.4986,4.4587,4.4396,4.4358,4.4127,4.4026,4.3988,4.3988,4.391,4.3769,4.3769,4.391,4.4104,4.4281,4.4549,4.4814,4.5204,4.5589,4.5916,4.6168,4.6439,4.6703,4.6911,4.7201,4.7521,4.7968,4.8099,4.8179,4.8452,4.8547,4.8564,4.8564,4.8578,4.8658,4.8801,4.8832,4.8894,4.897,4.9001,4.9001,4.9001,4.9001,4.9001,4.9001,5.0067,5.1116,5.1995,5.2939,5.3547,5.3766,5.3948,5.4013,5.398,5.3849,5.375,5.3651,5.3551,5.3501,5.3518,5.3093,5.2501,5.1781,5.1271,5.0651,4.9939,4.9193,4.8862,4.8829,4.8249,4.8349,4.8862,4.8862,4.9226,4.9791,4.9943,5.0126,5.0274,4.2736,4.3327,4.3833,4.3833,4.4271,4.4615,4.4615,4.4615,4.4615,4.4615,4.4615,4.4615,4.4615,4.4497,4.4384,4.4224,4.3993,4.3776,4.3628,4.3388,4.3146,4.2899,4.2744,4.2539,4.227,4.219,4.2109,4.1996,4.1996,4.1915,4.1752,4.1752,4.1703,4.1604,4.1952,4.2593,4.3411,4.3528,4.4096,4.4874,4.4458,4.4243,4.4127,4.3949,4.3793,4.366,4.3566,4.3448,4.3384,4.3384,4.3581,4.391,4.4104,4.4358,4.4663,4.4964,4.5278,4.5589,4.5896,4.608,4.6262,4.6545,4.6684,4.6927,4.7604,4.777,4.7803,4.7984,4.8147,4.8276,4.8276,4.8388,4.8547,4.8627,4.8658,4.869,4.8736,4.8846,4.8894,4.8894,4.894,4.9137,4.9492,5.0862,5.1894,5.2266,5.3176,5.37,5.37,5.3882,5.3948,5.3849,5.3733,5.3684,5.3618,5.3534,5.3467,5.3348,5.3058,5.2633,5.218,5.1569,5.1082,5.0684,4.9939,4.9624,4.9607,4.9226,4.9293,4.9624,4.9624,4.9872,5.0204,5.0358,5.0593,5.0809,4.3362,4.3849,4.4281,4.431,4.444,4.457,4.4598,4.4615,4.4615,4.4615,4.4615,4.4587,4.4542,4.4327,4.4138,4.401,4.3717,4.3492,4.3479,4.3115,4.2868,4.2806,4.2539,4.2286,4.2093,4.1963,4.1866,4.1866,4.1866,4.1752,4.1588,4.1588,4.1588,4.162,4.2329,4.2921,4.3372,4.3847,4.4349,4.4799,4.4396,4.4127,4.3988,4.3714,4.3463,4.325,4.3076,4.2981,4.2981,4.2981,4.329,4.3675,4.391,4.4243,4.4564,4.4938,4.5173,4.5391,4.5761,4.5872,4.5913,4.6116,4.6191,4.642,4.708,4.7335,4.7403,4.7436,4.7704,4.7902,4.7902,4.8147,4.8356,4.8388,4.842,4.842,4.8483,4.8627,4.8789,4.8923,4.9198,4.9647,5.0388,5.1572,5.2367,5.2486,5.3228,5.3651,5.3651,5.3816,5.3833,5.3684,5.3651,5.3601,5.3501,5.3467,5.3348,5.3144,5.2938,5.2764,5.2572,5.1833,5.1498,5.1464,5.0701,5.0402,5.0386,5.027,5.0286,5.0402,5.0402,5.0469,5.0619,5.0775,5.1062,5.1361,4.4004,4.4059,4.4167,4.4281,4.4338,4.4412,4.457,4.4615,4.4615,4.4615,4.4615,4.4542,4.4367,4.3964,4.3687,4.3658,4.3355,4.3113,4.2992,4.293,4.2775,4.2476,4.2413,4.2254,4.1931,4.1898,4.1817,4.1621,4.1621,4.1621,4.1588,4.1588,4.1588,4.162,4.2194,4.2714,4.3161,4.363,4.4127,4.461,4.4205,4.4026,4.3934,4.3503,4.321,4.3036,4.3036,4.2981,4.2981,4.2981,4.3155,4.3423,4.3856,4.4026,4.4288,4.5434,4.5795,4.5872,4.61,4.6137,4.6072,4.5683,4.5739,4.5936,4.6207,4.6649,4.703,4.7217,4.7386,4.7571,4.7571,4.7604,4.7737,4.8033,4.8066,4.8147,4.8452,4.8515,4.8798,4.9403,5.0219,5.1055,5.1928,5.2181,5.2587,5.3298,5.3467,5.3534,5.3534,5.3568,5.3568,5.3534,5.3534,5.3534,5.3501,5.3348,5.3161,5.2938,5.2729,5.264,5.2589,5.2381,5.2224,5.2227,5.1481,5.1166,5.1116,5.0469,5.0585,5.1166,5.1166,5.1529,5.2163,5.2445,5.2705,5.2876,4.3914,4.3998,4.3998,4.4085,4.4196,4.4338,4.4412,4.4542,4.4615,4.4615,4.4497,4.4412,4.431,4.3877,4.3522,4.3342,4.3021,4.279,4.2744,4.2571,4.2381,4.2238,4.2174,4.2061,4.1898,4.1784,4.1703,4.1588,4.1588,4.1588,4.1588,4.1588,4.1776,4.2068,4.2692,4.3157,4.3542,4.4167,4.4408,4.4396,4.4127,4.3949,4.3793,4.3329,4.3076,4.2996,4.2729,4.2729,4.2835,4.2835,4.305,4.3369,4.3856,4.4246,4.4713,4.5495,4.6005,4.6338,4.6532,4.6571,4.6493,4.6019,4.5975,4.597,4.5651,4.5868,4.6211,4.6615,4.6858,4.703,4.7132,4.7251,4.7436,4.7671,4.7704,4.7902,4.8448,4.868,4.9176,5.0108,5.0927,5.1648,5.2151,5.2572,5.3011,5.3467,5.3501,5.3501,5.3501,5.3501,5.3501,5.3501,5.3501,5.3467,5.3332,5.3264,5.3041,5.2729,5.2624,5.257,5.248,5.2409,5.2409,5.2393,5.2078,5.1928,5.1912,5.1545,5.1612,5.1928,5.1928,5.2163,5.2535,5.2799,5.3007,5.3179]}]]